<?xml version="1.0" encoding="UTF-8" standalone="no" ?>
<gpx xmlns="http://www.topografix.com/GPX/1/1" xmlns:xsi="http://www.w3.org/2001/XMLSchema-instance" xsi:schemaLocation="http://www.topografix.com/GPX/1/1 http://www.topografix.com/GPX/1/1/gpx.xsd" version="1.1" creator="VisuGPX - https://www.visugpx.com">
  <metadata>
    <name>VTT suze-bois noir - 28/09/2021</name>
  </metadata>
  <trk>
    <name><![CDATA[VTT suze-bois noir - 28/09/2021]]></name>
    <trkseg>
      <trkpt lat="44.35633" lon="4.78417">
        <ele>118</ele>
        <time>2021-09-28T08:57:05+02:00</time>
      </trkpt>
      <trkpt lat="44.35633" lon="4.78415">
        <ele>118</ele>
        <time>2021-09-28T08:57:10+02:00</time>
      </trkpt>
      <trkpt lat="44.35628" lon="4.78407">
        <ele>117.600586</ele>
        <time>2021-09-28T08:57:15+02:00</time>
      </trkpt>
      <trkpt lat="44.35621" lon="4.78406">
        <ele>118.299805</ele>
        <time>2021-09-28T08:57:20+02:00</time>
      </trkpt>
      <trkpt lat="44.35625" lon="4.78418">
        <ele>119.40039</ele>
        <time>2021-09-28T08:57:25+02:00</time>
      </trkpt>
      <trkpt lat="44.35629" lon="4.78429">
        <ele>119.799805</ele>
        <time>2021-09-28T08:57:30+02:00</time>
      </trkpt>
      <trkpt lat="44.35633" lon="4.78438">
        <ele>121.40039</ele>
        <time>2021-09-28T08:57:35+02:00</time>
      </trkpt>
      <trkpt lat="44.35637" lon="4.78449">
        <ele>122.5</ele>
        <time>2021-09-28T08:57:40+02:00</time>
      </trkpt>
      <trkpt lat="44.35642" lon="4.78462">
        <ele>122.90039</ele>
        <time>2021-09-28T08:57:45+02:00</time>
      </trkpt>
      <trkpt lat="44.35647" lon="4.78476">
        <ele>124.100586</ele>
        <time>2021-09-28T08:57:50+02:00</time>
      </trkpt>
      <trkpt lat="44.35653" lon="4.78492">
        <ele>124.90039</ele>
        <time>2021-09-28T08:57:55+02:00</time>
      </trkpt>
      <trkpt lat="44.3566" lon="4.78508">
        <ele>125.5</ele>
        <time>2021-09-28T08:58:00+02:00</time>
      </trkpt>
      <trkpt lat="44.35668" lon="4.78524">
        <ele>126.200195</ele>
        <time>2021-09-28T08:58:05+02:00</time>
      </trkpt>
      <trkpt lat="44.35674" lon="4.78543">
        <ele>126.90039</ele>
        <time>2021-09-28T08:58:10+02:00</time>
      </trkpt>
      <trkpt lat="44.35678" lon="4.78564">
        <ele>127.299805</ele>
        <time>2021-09-28T08:58:15+02:00</time>
      </trkpt>
      <trkpt lat="44.35681" lon="4.78584">
        <ele>128.60059</ele>
        <time>2021-09-28T08:58:20+02:00</time>
      </trkpt>
      <trkpt lat="44.35684" lon="4.78608">
        <ele>128.7998</ele>
        <time>2021-09-28T08:58:25+02:00</time>
      </trkpt>
      <trkpt lat="44.35686" lon="4.78635">
        <ele>129.7002</ele>
        <time>2021-09-28T08:58:30+02:00</time>
      </trkpt>
      <trkpt lat="44.35686" lon="4.78664">
        <ele>129.7002</ele>
        <time>2021-09-28T08:58:35+02:00</time>
      </trkpt>
      <trkpt lat="44.35687" lon="4.7869">
        <ele>129.60059</ele>
        <time>2021-09-28T08:58:40+02:00</time>
      </trkpt>
      <trkpt lat="44.35689" lon="4.78712">
        <ele>128.90039</ele>
        <time>2021-09-28T08:58:45+02:00</time>
      </trkpt>
      <trkpt lat="44.35689" lon="4.78731">
        <ele>128.60059</ele>
        <time>2021-09-28T08:58:50+02:00</time>
      </trkpt>
      <trkpt lat="44.35689" lon="4.7875">
        <ele>128.2998</ele>
        <time>2021-09-28T08:58:55+02:00</time>
      </trkpt>
      <trkpt lat="44.35692" lon="4.78772">
        <ele>128.10059</ele>
        <time>2021-09-28T08:59:00+02:00</time>
      </trkpt>
      <trkpt lat="44.35695" lon="4.78798">
        <ele>127.799805</ele>
        <time>2021-09-28T08:59:05+02:00</time>
      </trkpt>
      <trkpt lat="44.35696" lon="4.78826">
        <ele>127.600586</ele>
        <time>2021-09-28T08:59:10+02:00</time>
      </trkpt>
      <trkpt lat="44.35694" lon="4.7886">
        <ele>127.100586</ele>
        <time>2021-09-28T08:59:15+02:00</time>
      </trkpt>
      <trkpt lat="44.3569" lon="4.789">
        <ele>126.200195</ele>
        <time>2021-09-28T08:59:20+02:00</time>
      </trkpt>
      <trkpt lat="44.35692" lon="4.78959">
        <ele>122.799805</ele>
        <time>2021-09-28T08:59:25+02:00</time>
      </trkpt>
      <trkpt lat="44.35698" lon="4.79017">
        <ele>120.200195</ele>
        <time>2021-09-28T08:59:30+02:00</time>
      </trkpt>
      <trkpt lat="44.35701" lon="4.79066">
        <ele>119.299805</ele>
        <time>2021-09-28T08:59:35+02:00</time>
      </trkpt>
      <trkpt lat="44.35698" lon="4.79107">
        <ele>119.299805</ele>
        <time>2021-09-28T08:59:40+02:00</time>
      </trkpt>
      <trkpt lat="44.35689" lon="4.79144">
        <ele>119.799805</ele>
        <time>2021-09-28T08:59:45+02:00</time>
      </trkpt>
      <trkpt lat="44.35682" lon="4.79164">
        <ele>120.100586</ele>
        <time>2021-09-28T08:59:50+02:00</time>
      </trkpt>
      <trkpt lat="44.35661" lon="4.79157">
        <ele>119.600586</ele>
        <time>2021-09-28T08:59:55+02:00</time>
      </trkpt>
      <trkpt lat="44.35636" lon="4.79134">
        <ele>118.90039</ele>
        <time>2021-09-28T09:00:00+02:00</time>
      </trkpt>
      <trkpt lat="44.35608" lon="4.79113">
        <ele>118.100586</ele>
        <time>2021-09-28T09:00:05+02:00</time>
      </trkpt>
      <trkpt lat="44.3558" lon="4.79092">
        <ele>117.600586</ele>
        <time>2021-09-28T09:00:10+02:00</time>
      </trkpt>
      <trkpt lat="44.35553" lon="4.79074">
        <ele>117.299805</ele>
        <time>2021-09-28T09:00:15+02:00</time>
      </trkpt>
      <trkpt lat="44.35533" lon="4.79074">
        <ele>116.700195</ele>
        <time>2021-09-28T09:00:20+02:00</time>
      </trkpt>
      <trkpt lat="44.35513" lon="4.79087">
        <ele>116.40039</ele>
        <time>2021-09-28T09:00:25+02:00</time>
      </trkpt>
      <trkpt lat="44.35487" lon="4.7909">
        <ele>116</ele>
        <time>2021-09-28T09:00:30+02:00</time>
      </trkpt>
      <trkpt lat="44.35459" lon="4.791">
        <ele>115.299805</ele>
        <time>2021-09-28T09:00:35+02:00</time>
      </trkpt>
      <trkpt lat="44.35436" lon="4.79111">
        <ele>114.700195</ele>
        <time>2021-09-28T09:00:40+02:00</time>
      </trkpt>
      <trkpt lat="44.35413" lon="4.79127">
        <ele>114.90039</ele>
        <time>2021-09-28T09:00:45+02:00</time>
      </trkpt>
      <trkpt lat="44.35384" lon="4.79146">
        <ele>115.40039</ele>
        <time>2021-09-28T09:00:50+02:00</time>
      </trkpt>
      <trkpt lat="44.35363" lon="4.79151">
        <ele>115.799805</ele>
        <time>2021-09-28T09:00:55+02:00</time>
      </trkpt>
      <trkpt lat="44.35332" lon="4.79152">
        <ele>115.5</ele>
        <time>2021-09-28T09:01:00+02:00</time>
      </trkpt>
      <trkpt lat="44.353" lon="4.79155">
        <ele>113.90039</ele>
        <time>2021-09-28T09:01:05+02:00</time>
      </trkpt>
      <trkpt lat="44.35268" lon="4.7916">
        <ele>112.5</ele>
        <time>2021-09-28T09:01:10+02:00</time>
      </trkpt>
      <trkpt lat="44.35238" lon="4.79168">
        <ele>112.200195</ele>
        <time>2021-09-28T09:01:15+02:00</time>
      </trkpt>
      <trkpt lat="44.35209" lon="4.79177">
        <ele>112.100586</ele>
        <time>2021-09-28T09:01:20+02:00</time>
      </trkpt>
      <trkpt lat="44.35181" lon="4.79185">
        <ele>112.40039</ele>
        <time>2021-09-28T09:01:25+02:00</time>
      </trkpt>
      <trkpt lat="44.3515" lon="4.79185">
        <ele>112.40039</ele>
        <time>2021-09-28T09:01:30+02:00</time>
      </trkpt>
      <trkpt lat="44.35118" lon="4.79185">
        <ele>112</ele>
        <time>2021-09-28T09:01:35+02:00</time>
      </trkpt>
      <trkpt lat="44.35086" lon="4.79184">
        <ele>111.40039</ele>
        <time>2021-09-28T09:01:40+02:00</time>
      </trkpt>
      <trkpt lat="44.35057" lon="4.79184">
        <ele>110.600586</ele>
        <time>2021-09-28T09:01:45+02:00</time>
      </trkpt>
      <trkpt lat="44.3503" lon="4.79185">
        <ele>109.700195</ele>
        <time>2021-09-28T09:01:50+02:00</time>
      </trkpt>
      <trkpt lat="44.35003" lon="4.79184">
        <ele>109.100586</ele>
        <time>2021-09-28T09:01:55+02:00</time>
      </trkpt>
      <trkpt lat="44.34978" lon="4.79182">
        <ele>108.600586</ele>
        <time>2021-09-28T09:02:00+02:00</time>
      </trkpt>
      <trkpt lat="44.34953" lon="4.79176">
        <ele>108.40039</ele>
        <time>2021-09-28T09:02:05+02:00</time>
      </trkpt>
      <trkpt lat="44.34926" lon="4.79169">
        <ele>108</ele>
        <time>2021-09-28T09:02:10+02:00</time>
      </trkpt>
      <trkpt lat="44.34897" lon="4.79161">
        <ele>107.700195</ele>
        <time>2021-09-28T09:02:15+02:00</time>
      </trkpt>
      <trkpt lat="44.34868" lon="4.79149">
        <ele>107.100586</ele>
        <time>2021-09-28T09:02:20+02:00</time>
      </trkpt>
      <trkpt lat="44.34839" lon="4.79134">
        <ele>107.100586</ele>
        <time>2021-09-28T09:02:25+02:00</time>
      </trkpt>
      <trkpt lat="44.34804" lon="4.79111">
        <ele>106.90039</ele>
        <time>2021-09-28T09:02:30+02:00</time>
      </trkpt>
      <trkpt lat="44.34782" lon="4.79094">
        <ele>106.799805</ele>
        <time>2021-09-28T09:02:35+02:00</time>
      </trkpt>
      <trkpt lat="44.34757" lon="4.79069">
        <ele>106.40039</ele>
        <time>2021-09-28T09:02:40+02:00</time>
      </trkpt>
      <trkpt lat="44.34733" lon="4.79043">
        <ele>105.700195</ele>
        <time>2021-09-28T09:02:45+02:00</time>
      </trkpt>
      <trkpt lat="44.34709" lon="4.79018">
        <ele>104.799805</ele>
        <time>2021-09-28T09:02:50+02:00</time>
      </trkpt>
      <trkpt lat="44.3468" lon="4.78998">
        <ele>104.100586</ele>
        <time>2021-09-28T09:02:55+02:00</time>
      </trkpt>
      <trkpt lat="44.34651" lon="4.78978">
        <ele>103.100586</ele>
        <time>2021-09-28T09:03:00+02:00</time>
      </trkpt>
      <trkpt lat="44.34623" lon="4.7896">
        <ele>101.40039</ele>
        <time>2021-09-28T09:03:05+02:00</time>
      </trkpt>
      <trkpt lat="44.34594" lon="4.78946">
        <ele>100.5</ele>
        <time>2021-09-28T09:03:10+02:00</time>
      </trkpt>
      <trkpt lat="44.34565" lon="4.78936">
        <ele>99.700195</ele>
        <time>2021-09-28T09:03:15+02:00</time>
      </trkpt>
      <trkpt lat="44.34535" lon="4.78926">
        <ele>98.600586</ele>
        <time>2021-09-28T09:03:20+02:00</time>
      </trkpt>
      <trkpt lat="44.345" lon="4.78914">
        <ele>97.799805</ele>
        <time>2021-09-28T09:03:25+02:00</time>
      </trkpt>
      <trkpt lat="44.34476" lon="4.78905">
        <ele>97.600586</ele>
        <time>2021-09-28T09:03:30+02:00</time>
      </trkpt>
      <trkpt lat="44.34445" lon="4.78895">
        <ele>97.90039</ele>
        <time>2021-09-28T09:03:35+02:00</time>
      </trkpt>
      <trkpt lat="44.34415" lon="4.78894">
        <ele>99.200195</ele>
        <time>2021-09-28T09:03:40+02:00</time>
      </trkpt>
      <trkpt lat="44.34385" lon="4.789">
        <ele>100.299805</ele>
        <time>2021-09-28T09:03:45+02:00</time>
      </trkpt>
      <trkpt lat="44.34354" lon="4.78911">
        <ele>102.100586</ele>
        <time>2021-09-28T09:03:50+02:00</time>
      </trkpt>
      <trkpt lat="44.34327" lon="4.78926">
        <ele>102.40039</ele>
        <time>2021-09-28T09:03:55+02:00</time>
      </trkpt>
      <trkpt lat="44.343" lon="4.78938">
        <ele>102</ele>
        <time>2021-09-28T09:04:00+02:00</time>
      </trkpt>
      <trkpt lat="44.34276" lon="4.78949">
        <ele>101.40039</ele>
        <time>2021-09-28T09:04:05+02:00</time>
      </trkpt>
      <trkpt lat="44.34256" lon="4.78961">
        <ele>101.40039</ele>
        <time>2021-09-28T09:04:10+02:00</time>
      </trkpt>
      <trkpt lat="44.34241" lon="4.78972">
        <ele>102</ele>
        <time>2021-09-28T09:04:15+02:00</time>
      </trkpt>
      <trkpt lat="44.34228" lon="4.78985">
        <ele>102</ele>
        <time>2021-09-28T09:04:20+02:00</time>
      </trkpt>
      <trkpt lat="44.34216" lon="4.79001">
        <ele>102.100586</ele>
        <time>2021-09-28T09:04:25+02:00</time>
      </trkpt>
      <trkpt lat="44.34204" lon="4.79023">
        <ele>101.90039</ele>
        <time>2021-09-28T09:04:30+02:00</time>
      </trkpt>
      <trkpt lat="44.34185" lon="4.79043">
        <ele>101.299805</ele>
        <time>2021-09-28T09:04:35+02:00</time>
      </trkpt>
      <trkpt lat="44.34179" lon="4.79067">
        <ele>100.700195</ele>
        <time>2021-09-28T09:04:40+02:00</time>
      </trkpt>
      <trkpt lat="44.34179" lon="4.79078">
        <ele>100.700195</ele>
        <time>2021-09-28T09:04:45+02:00</time>
      </trkpt>
      <trkpt lat="44.3418" lon="4.79094">
        <ele>100.5</ele>
        <time>2021-09-28T09:04:50+02:00</time>
      </trkpt>
      <trkpt lat="44.34183" lon="4.79118">
        <ele>100.40039</ele>
        <time>2021-09-28T09:04:55+02:00</time>
      </trkpt>
      <trkpt lat="44.34184" lon="4.79143">
        <ele>100.700195</ele>
        <time>2021-09-28T09:05:00+02:00</time>
      </trkpt>
      <trkpt lat="44.34185" lon="4.79168">
        <ele>101</ele>
        <time>2021-09-28T09:05:05+02:00</time>
      </trkpt>
      <trkpt lat="44.34188" lon="4.79193">
        <ele>101.5</ele>
        <time>2021-09-28T09:05:10+02:00</time>
      </trkpt>
      <trkpt lat="44.34192" lon="4.79218">
        <ele>102.40039</ele>
        <time>2021-09-28T09:05:15+02:00</time>
      </trkpt>
      <trkpt lat="44.34196" lon="4.79241">
        <ele>103.100586</ele>
        <time>2021-09-28T09:05:20+02:00</time>
      </trkpt>
      <trkpt lat="44.342" lon="4.79263">
        <ele>104</ele>
        <time>2021-09-28T09:05:25+02:00</time>
      </trkpt>
      <trkpt lat="44.34204" lon="4.79285">
        <ele>104.600586</ele>
        <time>2021-09-28T09:05:30+02:00</time>
      </trkpt>
      <trkpt lat="44.34207" lon="4.7931">
        <ele>104.799805</ele>
        <time>2021-09-28T09:05:35+02:00</time>
      </trkpt>
      <trkpt lat="44.3421" lon="4.79337">
        <ele>105.5</ele>
        <time>2021-09-28T09:05:40+02:00</time>
      </trkpt>
      <trkpt lat="44.34213" lon="4.79362">
        <ele>105.600586</ele>
        <time>2021-09-28T09:05:45+02:00</time>
      </trkpt>
      <trkpt lat="44.34216" lon="4.79388">
        <ele>106.600586</ele>
        <time>2021-09-28T09:05:50+02:00</time>
      </trkpt>
      <trkpt lat="44.34219" lon="4.79414">
        <ele>106.799805</ele>
        <time>2021-09-28T09:05:55+02:00</time>
      </trkpt>
      <trkpt lat="44.34221" lon="4.7944">
        <ele>107.600586</ele>
        <time>2021-09-28T09:06:00+02:00</time>
      </trkpt>
      <trkpt lat="44.34225" lon="4.79465">
        <ele>107.200195</ele>
        <time>2021-09-28T09:06:05+02:00</time>
      </trkpt>
      <trkpt lat="44.34229" lon="4.79489">
        <ele>107.700195</ele>
        <time>2021-09-28T09:06:10+02:00</time>
      </trkpt>
      <trkpt lat="44.34232" lon="4.79514">
        <ele>107.700195</ele>
        <time>2021-09-28T09:06:15+02:00</time>
      </trkpt>
      <trkpt lat="44.34235" lon="4.79538">
        <ele>108.299805</ele>
        <time>2021-09-28T09:06:20+02:00</time>
      </trkpt>
      <trkpt lat="44.34238" lon="4.79563">
        <ele>107.600586</ele>
        <time>2021-09-28T09:06:25+02:00</time>
      </trkpt>
      <trkpt lat="44.34243" lon="4.79585">
        <ele>107.799805</ele>
        <time>2021-09-28T09:06:30+02:00</time>
      </trkpt>
      <trkpt lat="44.34244" lon="4.79609">
        <ele>107.600586</ele>
        <time>2021-09-28T09:06:35+02:00</time>
      </trkpt>
      <trkpt lat="44.34247" lon="4.79635">
        <ele>107.90039</ele>
        <time>2021-09-28T09:06:40+02:00</time>
      </trkpt>
      <trkpt lat="44.34251" lon="4.79661">
        <ele>107.90039</ele>
        <time>2021-09-28T09:06:45+02:00</time>
      </trkpt>
      <trkpt lat="44.34255" lon="4.79687">
        <ele>108.200195</ele>
        <time>2021-09-28T09:06:50+02:00</time>
      </trkpt>
      <trkpt lat="44.34259" lon="4.79712">
        <ele>108.299805</ele>
        <time>2021-09-28T09:06:55+02:00</time>
      </trkpt>
      <trkpt lat="44.34262" lon="4.79737">
        <ele>108.100586</ele>
        <time>2021-09-28T09:07:00+02:00</time>
      </trkpt>
      <trkpt lat="44.34263" lon="4.79758">
        <ele>108</ele>
        <time>2021-09-28T09:07:05+02:00</time>
      </trkpt>
      <trkpt lat="44.34265" lon="4.79778">
        <ele>108.90039</ele>
        <time>2021-09-28T09:07:10+02:00</time>
      </trkpt>
      <trkpt lat="44.34268" lon="4.79789">
        <ele>109.100586</ele>
        <time>2021-09-28T09:07:15+02:00</time>
      </trkpt>
      <trkpt lat="44.3427" lon="4.79801">
        <ele>109.799805</ele>
        <time>2021-09-28T09:07:20+02:00</time>
      </trkpt>
      <trkpt lat="44.34273" lon="4.79825">
        <ele>110.100586</ele>
        <time>2021-09-28T09:07:25+02:00</time>
      </trkpt>
      <trkpt lat="44.34277" lon="4.79844">
        <ele>110.40039</ele>
        <time>2021-09-28T09:07:30+02:00</time>
      </trkpt>
      <trkpt lat="44.34278" lon="4.79861">
        <ele>110.40039</ele>
        <time>2021-09-28T09:07:35+02:00</time>
      </trkpt>
      <trkpt lat="44.3428" lon="4.79885">
        <ele>110.5</ele>
        <time>2021-09-28T09:07:40+02:00</time>
      </trkpt>
      <trkpt lat="44.34277" lon="4.79912">
        <ele>110.600586</ele>
        <time>2021-09-28T09:07:45+02:00</time>
      </trkpt>
      <trkpt lat="44.34277" lon="4.79942">
        <ele>110.299805</ele>
        <time>2021-09-28T09:07:50+02:00</time>
      </trkpt>
      <trkpt lat="44.34282" lon="4.79975">
        <ele>109.600586</ele>
        <time>2021-09-28T09:07:55+02:00</time>
      </trkpt>
      <trkpt lat="44.34286" lon="4.80007">
        <ele>109.5</ele>
        <time>2021-09-28T09:08:00+02:00</time>
      </trkpt>
      <trkpt lat="44.3429" lon="4.80038">
        <ele>109.5</ele>
        <time>2021-09-28T09:08:05+02:00</time>
      </trkpt>
      <trkpt lat="44.34294" lon="4.8007">
        <ele>109.799805</ele>
        <time>2021-09-28T09:08:10+02:00</time>
      </trkpt>
      <trkpt lat="44.343" lon="4.80102">
        <ele>109.799805</ele>
        <time>2021-09-28T09:08:15+02:00</time>
      </trkpt>
      <trkpt lat="44.34304" lon="4.80134">
        <ele>110.5</ele>
        <time>2021-09-28T09:08:20+02:00</time>
      </trkpt>
      <trkpt lat="44.34308" lon="4.80166">
        <ele>111.700195</ele>
        <time>2021-09-28T09:08:25+02:00</time>
      </trkpt>
      <trkpt lat="44.34312" lon="4.80197">
        <ele>112</ele>
        <time>2021-09-28T09:08:30+02:00</time>
      </trkpt>
      <trkpt lat="44.34316" lon="4.80227">
        <ele>112.200195</ele>
        <time>2021-09-28T09:08:35+02:00</time>
      </trkpt>
      <trkpt lat="44.3432" lon="4.80257">
        <ele>112.200195</ele>
        <time>2021-09-28T09:08:40+02:00</time>
      </trkpt>
      <trkpt lat="44.34324" lon="4.80286">
        <ele>112.40039</ele>
        <time>2021-09-28T09:08:45+02:00</time>
      </trkpt>
      <trkpt lat="44.34327" lon="4.80315">
        <ele>112.5</ele>
        <time>2021-09-28T09:08:50+02:00</time>
      </trkpt>
      <trkpt lat="44.3433" lon="4.80344">
        <ele>112</ele>
        <time>2021-09-28T09:08:55+02:00</time>
      </trkpt>
      <trkpt lat="44.34333" lon="4.80374">
        <ele>111.600586</ele>
        <time>2021-09-28T09:09:00+02:00</time>
      </trkpt>
      <trkpt lat="44.34336" lon="4.80405">
        <ele>110.90039</ele>
        <time>2021-09-28T09:09:05+02:00</time>
      </trkpt>
      <trkpt lat="44.34339" lon="4.80438">
        <ele>111</ele>
        <time>2021-09-28T09:09:10+02:00</time>
      </trkpt>
      <trkpt lat="44.34342" lon="4.80469">
        <ele>111.299805</ele>
        <time>2021-09-28T09:09:15+02:00</time>
      </trkpt>
      <trkpt lat="44.34347" lon="4.80499">
        <ele>112</ele>
        <time>2021-09-28T09:09:20+02:00</time>
      </trkpt>
      <trkpt lat="44.3435" lon="4.8053">
        <ele>112.90039</ele>
        <time>2021-09-28T09:09:25+02:00</time>
      </trkpt>
      <trkpt lat="44.34353" lon="4.8056">
        <ele>113.799805</ele>
        <time>2021-09-28T09:09:30+02:00</time>
      </trkpt>
      <trkpt lat="44.34355" lon="4.8059">
        <ele>114.600586</ele>
        <time>2021-09-28T09:09:35+02:00</time>
      </trkpt>
      <trkpt lat="44.34351" lon="4.80615">
        <ele>115.200195</ele>
        <time>2021-09-28T09:09:40+02:00</time>
      </trkpt>
      <trkpt lat="44.34354" lon="4.80634">
        <ele>115.700195</ele>
        <time>2021-09-28T09:09:45+02:00</time>
      </trkpt>
      <trkpt lat="44.3436" lon="4.80659">
        <ele>117.200195</ele>
        <time>2021-09-28T09:09:50+02:00</time>
      </trkpt>
      <trkpt lat="44.34367" lon="4.80685">
        <ele>118.600586</ele>
        <time>2021-09-28T09:09:55+02:00</time>
      </trkpt>
      <trkpt lat="44.34375" lon="4.80712">
        <ele>120</ele>
        <time>2021-09-28T09:10:00+02:00</time>
      </trkpt>
      <trkpt lat="44.34384" lon="4.80739">
        <ele>119.100586</ele>
        <time>2021-09-28T09:10:05+02:00</time>
      </trkpt>
      <trkpt lat="44.34393" lon="4.80763">
        <ele>119.5</ele>
        <time>2021-09-28T09:10:10+02:00</time>
      </trkpt>
      <trkpt lat="44.34402" lon="4.80787">
        <ele>118.100586</ele>
        <time>2021-09-28T09:10:15+02:00</time>
      </trkpt>
      <trkpt lat="44.34412" lon="4.80809">
        <ele>117.40039</ele>
        <time>2021-09-28T09:10:20+02:00</time>
      </trkpt>
      <trkpt lat="44.34421" lon="4.80832">
        <ele>116.799805</ele>
        <time>2021-09-28T09:10:25+02:00</time>
      </trkpt>
      <trkpt lat="44.3443" lon="4.80856">
        <ele>116.299805</ele>
        <time>2021-09-28T09:10:30+02:00</time>
      </trkpt>
      <trkpt lat="44.3444" lon="4.80885">
        <ele>115.700195</ele>
        <time>2021-09-28T09:10:35+02:00</time>
      </trkpt>
      <trkpt lat="44.3445" lon="4.80913">
        <ele>115.90039</ele>
        <time>2021-09-28T09:10:40+02:00</time>
      </trkpt>
      <trkpt lat="44.3446" lon="4.80941">
        <ele>116</ele>
        <time>2021-09-28T09:10:45+02:00</time>
      </trkpt>
      <trkpt lat="44.34472" lon="4.80966">
        <ele>116.200195</ele>
        <time>2021-09-28T09:10:50+02:00</time>
      </trkpt>
      <trkpt lat="44.34478" lon="4.80992">
        <ele>116.40039</ele>
        <time>2021-09-28T09:10:55+02:00</time>
      </trkpt>
      <trkpt lat="44.34482" lon="4.8102">
        <ele>116.5</ele>
        <time>2021-09-28T09:11:00+02:00</time>
      </trkpt>
      <trkpt lat="44.3449" lon="4.81049">
        <ele>116.40039</ele>
        <time>2021-09-28T09:11:05+02:00</time>
      </trkpt>
      <trkpt lat="44.34498" lon="4.81084">
        <ele>116</ele>
        <time>2021-09-28T09:11:10+02:00</time>
      </trkpt>
      <trkpt lat="44.34505" lon="4.81118">
        <ele>115.5</ele>
        <time>2021-09-28T09:11:15+02:00</time>
      </trkpt>
      <trkpt lat="44.34511" lon="4.81148">
        <ele>115.600586</ele>
        <time>2021-09-28T09:11:20+02:00</time>
      </trkpt>
      <trkpt lat="44.34517" lon="4.81179">
        <ele>115.5</ele>
        <time>2021-09-28T09:11:25+02:00</time>
      </trkpt>
      <trkpt lat="44.34522" lon="4.81207">
        <ele>115.40039</ele>
        <time>2021-09-28T09:11:30+02:00</time>
      </trkpt>
      <trkpt lat="44.34527" lon="4.81239">
        <ele>115.200195</ele>
        <time>2021-09-28T09:11:35+02:00</time>
      </trkpt>
      <trkpt lat="44.34534" lon="4.81271">
        <ele>115.40039</ele>
        <time>2021-09-28T09:11:40+02:00</time>
      </trkpt>
      <trkpt lat="44.34545" lon="4.81302">
        <ele>115.5</ele>
        <time>2021-09-28T09:11:45+02:00</time>
      </trkpt>
      <trkpt lat="44.34558" lon="4.81333">
        <ele>116.299805</ele>
        <time>2021-09-28T09:11:50+02:00</time>
      </trkpt>
      <trkpt lat="44.34573" lon="4.81361">
        <ele>116.90039</ele>
        <time>2021-09-28T09:11:55+02:00</time>
      </trkpt>
      <trkpt lat="44.3459" lon="4.81383">
        <ele>117.5</ele>
        <time>2021-09-28T09:12:00+02:00</time>
      </trkpt>
      <trkpt lat="44.34606" lon="4.81407">
        <ele>117.700195</ele>
        <time>2021-09-28T09:12:05+02:00</time>
      </trkpt>
      <trkpt lat="44.34619" lon="4.81435">
        <ele>116.90039</ele>
        <time>2021-09-28T09:12:10+02:00</time>
      </trkpt>
      <trkpt lat="44.34628" lon="4.81464">
        <ele>116.299805</ele>
        <time>2021-09-28T09:12:15+02:00</time>
      </trkpt>
      <trkpt lat="44.34636" lon="4.81495">
        <ele>115.5</ele>
        <time>2021-09-28T09:12:20+02:00</time>
      </trkpt>
      <trkpt lat="44.34642" lon="4.81526">
        <ele>115.200195</ele>
        <time>2021-09-28T09:12:25+02:00</time>
      </trkpt>
      <trkpt lat="44.34643" lon="4.81555">
        <ele>114.700195</ele>
        <time>2021-09-28T09:12:30+02:00</time>
      </trkpt>
      <trkpt lat="44.34636" lon="4.81586">
        <ele>114.100586</ele>
        <time>2021-09-28T09:12:35+02:00</time>
      </trkpt>
      <trkpt lat="44.34633" lon="4.81619">
        <ele>113.799805</ele>
        <time>2021-09-28T09:12:40+02:00</time>
      </trkpt>
      <trkpt lat="44.34638" lon="4.81649">
        <ele>113.299805</ele>
        <time>2021-09-28T09:12:45+02:00</time>
      </trkpt>
      <trkpt lat="44.34649" lon="4.81673">
        <ele>114.100586</ele>
        <time>2021-09-28T09:12:50+02:00</time>
      </trkpt>
      <trkpt lat="44.34664" lon="4.81694">
        <ele>115.600586</ele>
        <time>2021-09-28T09:12:55+02:00</time>
      </trkpt>
      <trkpt lat="44.34681" lon="4.81719">
        <ele>116.5</ele>
        <time>2021-09-28T09:13:00+02:00</time>
      </trkpt>
      <trkpt lat="44.34695" lon="4.81745">
        <ele>117.700195</ele>
        <time>2021-09-28T09:13:05+02:00</time>
      </trkpt>
      <trkpt lat="44.347" lon="4.81775">
        <ele>117.5</ele>
        <time>2021-09-28T09:13:10+02:00</time>
      </trkpt>
      <trkpt lat="44.34683" lon="4.81797">
        <ele>115.299805</ele>
        <time>2021-09-28T09:13:15+02:00</time>
      </trkpt>
      <trkpt lat="44.34663" lon="4.81813">
        <ele>113.5</ele>
        <time>2021-09-28T09:13:20+02:00</time>
      </trkpt>
      <trkpt lat="44.34642" lon="4.81828">
        <ele>111.600586</ele>
        <time>2021-09-28T09:13:25+02:00</time>
      </trkpt>
      <trkpt lat="44.34623" lon="4.81843">
        <ele>110.299805</ele>
        <time>2021-09-28T09:13:30+02:00</time>
      </trkpt>
      <trkpt lat="44.34604" lon="4.81859">
        <ele>109.600586</ele>
        <time>2021-09-28T09:13:35+02:00</time>
      </trkpt>
      <trkpt lat="44.34589" lon="4.8188">
        <ele>110.5</ele>
        <time>2021-09-28T09:13:40+02:00</time>
      </trkpt>
      <trkpt lat="44.34582" lon="4.81903">
        <ele>111.700195</ele>
        <time>2021-09-28T09:13:45+02:00</time>
      </trkpt>
      <trkpt lat="44.34581" lon="4.81925">
        <ele>114.600586</ele>
        <time>2021-09-28T09:13:50+02:00</time>
      </trkpt>
      <trkpt lat="44.34585" lon="4.81946">
        <ele>115.799805</ele>
        <time>2021-09-28T09:13:55+02:00</time>
      </trkpt>
      <trkpt lat="44.34591" lon="4.81972">
        <ele>115.90039</ele>
        <time>2021-09-28T09:14:00+02:00</time>
      </trkpt>
      <trkpt lat="44.34597" lon="4.82004">
        <ele>115.299805</ele>
        <time>2021-09-28T09:14:05+02:00</time>
      </trkpt>
      <trkpt lat="44.34605" lon="4.82043">
        <ele>114.40039</ele>
        <time>2021-09-28T09:14:10+02:00</time>
      </trkpt>
      <trkpt lat="44.34617" lon="4.82081">
        <ele>113.299805</ele>
        <time>2021-09-28T09:14:15+02:00</time>
      </trkpt>
      <trkpt lat="44.34633" lon="4.82105">
        <ele>112.5</ele>
        <time>2021-09-28T09:14:20+02:00</time>
      </trkpt>
      <trkpt lat="44.34621" lon="4.82128">
        <ele>111.90039</ele>
        <time>2021-09-28T09:14:25+02:00</time>
      </trkpt>
      <trkpt lat="44.34607" lon="4.82153">
        <ele>111.600586</ele>
        <time>2021-09-28T09:14:30+02:00</time>
      </trkpt>
      <trkpt lat="44.346" lon="4.82183">
        <ele>111.600586</ele>
        <time>2021-09-28T09:14:35+02:00</time>
      </trkpt>
      <trkpt lat="44.34594" lon="4.82214">
        <ele>112</ele>
        <time>2021-09-28T09:14:40+02:00</time>
      </trkpt>
      <trkpt lat="44.34587" lon="4.82246">
        <ele>112.200195</ele>
        <time>2021-09-28T09:14:45+02:00</time>
      </trkpt>
      <trkpt lat="44.34583" lon="4.82277">
        <ele>112.40039</ele>
        <time>2021-09-28T09:14:50+02:00</time>
      </trkpt>
      <trkpt lat="44.3458" lon="4.82308">
        <ele>112.40039</ele>
        <time>2021-09-28T09:14:55+02:00</time>
      </trkpt>
      <trkpt lat="44.34577" lon="4.82342">
        <ele>112.600586</ele>
        <time>2021-09-28T09:15:00+02:00</time>
      </trkpt>
      <trkpt lat="44.34575" lon="4.82373">
        <ele>112.799805</ele>
        <time>2021-09-28T09:15:05+02:00</time>
      </trkpt>
      <trkpt lat="44.34574" lon="4.82398">
        <ele>113.100586</ele>
        <time>2021-09-28T09:15:10+02:00</time>
      </trkpt>
      <trkpt lat="44.34573" lon="4.82413">
        <ele>113.299805</ele>
        <time>2021-09-28T09:15:15+02:00</time>
      </trkpt>
      <trkpt lat="44.34572" lon="4.82425">
        <ele>113.40039</ele>
        <time>2021-09-28T09:15:20+02:00</time>
      </trkpt>
      <trkpt lat="44.34567" lon="4.82429">
        <ele>113.5</ele>
        <time>2021-09-28T09:15:25+02:00</time>
      </trkpt>
      <trkpt lat="44.34573" lon="4.82447">
        <ele>113.799805</ele>
        <time>2021-09-28T09:15:30+02:00</time>
      </trkpt>
      <trkpt lat="44.34571" lon="4.8247">
        <ele>114.100586</ele>
        <time>2021-09-28T09:15:35+02:00</time>
      </trkpt>
      <trkpt lat="44.3457" lon="4.82492">
        <ele>114.100586</ele>
        <time>2021-09-28T09:15:40+02:00</time>
      </trkpt>
      <trkpt lat="44.34557" lon="4.82504">
        <ele>113.799805</ele>
        <time>2021-09-28T09:15:45+02:00</time>
      </trkpt>
      <trkpt lat="44.34531" lon="4.82502">
        <ele>113</ele>
        <time>2021-09-28T09:15:50+02:00</time>
      </trkpt>
      <trkpt lat="44.34506" lon="4.82507">
        <ele>111.90039</ele>
        <time>2021-09-28T09:15:55+02:00</time>
      </trkpt>
      <trkpt lat="44.34493" lon="4.82534">
        <ele>110.90039</ele>
        <time>2021-09-28T09:16:00+02:00</time>
      </trkpt>
      <trkpt lat="44.34483" lon="4.82564">
        <ele>109.90039</ele>
        <time>2021-09-28T09:16:05+02:00</time>
      </trkpt>
      <trkpt lat="44.34473" lon="4.82594">
        <ele>109.200195</ele>
        <time>2021-09-28T09:16:10+02:00</time>
      </trkpt>
      <trkpt lat="44.34462" lon="4.82624">
        <ele>108.700195</ele>
        <time>2021-09-28T09:16:15+02:00</time>
      </trkpt>
      <trkpt lat="44.3445" lon="4.82655">
        <ele>108</ele>
        <time>2021-09-28T09:16:20+02:00</time>
      </trkpt>
      <trkpt lat="44.34439" lon="4.82686">
        <ele>107.600586</ele>
        <time>2021-09-28T09:16:25+02:00</time>
      </trkpt>
      <trkpt lat="44.34428" lon="4.82715">
        <ele>107.200195</ele>
        <time>2021-09-28T09:16:30+02:00</time>
      </trkpt>
      <trkpt lat="44.34417" lon="4.82743">
        <ele>107.100586</ele>
        <time>2021-09-28T09:16:35+02:00</time>
      </trkpt>
      <trkpt lat="44.34407" lon="4.82769">
        <ele>107.299805</ele>
        <time>2021-09-28T09:16:40+02:00</time>
      </trkpt>
      <trkpt lat="44.34398" lon="4.82796">
        <ele>107.90039</ele>
        <time>2021-09-28T09:16:45+02:00</time>
      </trkpt>
      <trkpt lat="44.34384" lon="4.82817">
        <ele>108.5</ele>
        <time>2021-09-28T09:16:50+02:00</time>
      </trkpt>
      <trkpt lat="44.34367" lon="4.82828">
        <ele>108.799805</ele>
        <time>2021-09-28T09:16:55+02:00</time>
      </trkpt>
      <trkpt lat="44.3435" lon="4.82835">
        <ele>108.90039</ele>
        <time>2021-09-28T09:17:00+02:00</time>
      </trkpt>
      <trkpt lat="44.34335" lon="4.82849">
        <ele>108.90039</ele>
        <time>2021-09-28T09:17:05+02:00</time>
      </trkpt>
      <trkpt lat="44.34322" lon="4.82881">
        <ele>107.5</ele>
        <time>2021-09-28T09:17:10+02:00</time>
      </trkpt>
      <trkpt lat="44.3431" lon="4.82915">
        <ele>105.90039</ele>
        <time>2021-09-28T09:17:15+02:00</time>
      </trkpt>
      <trkpt lat="44.34298" lon="4.82948">
        <ele>104.799805</ele>
        <time>2021-09-28T09:17:20+02:00</time>
      </trkpt>
      <trkpt lat="44.34285" lon="4.8298">
        <ele>104.100586</ele>
        <time>2021-09-28T09:17:25+02:00</time>
      </trkpt>
      <trkpt lat="44.34274" lon="4.83014">
        <ele>103.799805</ele>
        <time>2021-09-28T09:17:30+02:00</time>
      </trkpt>
      <trkpt lat="44.34275" lon="4.83047">
        <ele>104.40039</ele>
        <time>2021-09-28T09:17:35+02:00</time>
      </trkpt>
      <trkpt lat="44.34283" lon="4.83075">
        <ele>104.700195</ele>
        <time>2021-09-28T09:17:40+02:00</time>
      </trkpt>
      <trkpt lat="44.34292" lon="4.831">
        <ele>105.100586</ele>
        <time>2021-09-28T09:17:45+02:00</time>
      </trkpt>
      <trkpt lat="44.34299" lon="4.83121">
        <ele>105.299805</ele>
        <time>2021-09-28T09:17:50+02:00</time>
      </trkpt>
      <trkpt lat="44.34304" lon="4.83143">
        <ele>105.5</ele>
        <time>2021-09-28T09:17:55+02:00</time>
      </trkpt>
      <trkpt lat="44.34298" lon="4.83161">
        <ele>105.700195</ele>
        <time>2021-09-28T09:18:00+02:00</time>
      </trkpt>
      <trkpt lat="44.34282" lon="4.83162">
        <ele>105.799805</ele>
        <time>2021-09-28T09:18:05+02:00</time>
      </trkpt>
      <trkpt lat="44.3427" lon="4.83163">
        <ele>106.100586</ele>
        <time>2021-09-28T09:18:10+02:00</time>
      </trkpt>
      <trkpt lat="44.34271" lon="4.83181">
        <ele>106.5</ele>
        <time>2021-09-28T09:18:15+02:00</time>
      </trkpt>
      <trkpt lat="44.34275" lon="4.83203">
        <ele>107.100586</ele>
        <time>2021-09-28T09:18:20+02:00</time>
      </trkpt>
      <trkpt lat="44.3428" lon="4.83226">
        <ele>107.200195</ele>
        <time>2021-09-28T09:18:25+02:00</time>
      </trkpt>
      <trkpt lat="44.34284" lon="4.8325">
        <ele>107.90039</ele>
        <time>2021-09-28T09:18:30+02:00</time>
      </trkpt>
      <trkpt lat="44.34288" lon="4.83273">
        <ele>109.200195</ele>
        <time>2021-09-28T09:18:35+02:00</time>
      </trkpt>
      <trkpt lat="44.34292" lon="4.83294">
        <ele>109.799805</ele>
        <time>2021-09-28T09:18:40+02:00</time>
      </trkpt>
      <trkpt lat="44.34295" lon="4.83315">
        <ele>110.5</ele>
        <time>2021-09-28T09:18:45+02:00</time>
      </trkpt>
      <trkpt lat="44.34299" lon="4.83336">
        <ele>111.5</ele>
        <time>2021-09-28T09:18:50+02:00</time>
      </trkpt>
      <trkpt lat="44.34301" lon="4.83355">
        <ele>112.40039</ele>
        <time>2021-09-28T09:18:55+02:00</time>
      </trkpt>
      <trkpt lat="44.343" lon="4.83371">
        <ele>113.90039</ele>
        <time>2021-09-28T09:19:00+02:00</time>
      </trkpt>
      <trkpt lat="44.34301" lon="4.83381">
        <ele>114.100586</ele>
        <time>2021-09-28T09:19:05+02:00</time>
      </trkpt>
      <trkpt lat="44.34304" lon="4.83397">
        <ele>115.299805</ele>
        <time>2021-09-28T09:19:10+02:00</time>
      </trkpt>
      <trkpt lat="44.34307" lon="4.83415">
        <ele>116.299805</ele>
        <time>2021-09-28T09:19:15+02:00</time>
      </trkpt>
      <trkpt lat="44.34307" lon="4.83432">
        <ele>117.40039</ele>
        <time>2021-09-28T09:19:20+02:00</time>
      </trkpt>
      <trkpt lat="44.3431" lon="4.83453">
        <ele>118.90039</ele>
        <time>2021-09-28T09:19:25+02:00</time>
      </trkpt>
      <trkpt lat="44.34312" lon="4.83478">
        <ele>120.100586</ele>
        <time>2021-09-28T09:19:30+02:00</time>
      </trkpt>
      <trkpt lat="44.34312" lon="4.83503">
        <ele>121</ele>
        <time>2021-09-28T09:19:35+02:00</time>
      </trkpt>
      <trkpt lat="44.34309" lon="4.83526">
        <ele>121.5</ele>
        <time>2021-09-28T09:19:40+02:00</time>
      </trkpt>
      <trkpt lat="44.34303" lon="4.83547">
        <ele>122.299805</ele>
        <time>2021-09-28T09:19:45+02:00</time>
      </trkpt>
      <trkpt lat="44.34298" lon="4.83568">
        <ele>122.799805</ele>
        <time>2021-09-28T09:19:50+02:00</time>
      </trkpt>
      <trkpt lat="44.34295" lon="4.83592">
        <ele>122.799805</ele>
        <time>2021-09-28T09:19:55+02:00</time>
      </trkpt>
      <trkpt lat="44.34293" lon="4.83621">
        <ele>122.90039</ele>
        <time>2021-09-28T09:20:00+02:00</time>
      </trkpt>
      <trkpt lat="44.34289" lon="4.83651">
        <ele>122.600586</ele>
        <time>2021-09-28T09:20:05+02:00</time>
      </trkpt>
      <trkpt lat="44.34285" lon="4.83678">
        <ele>123.299805</ele>
        <time>2021-09-28T09:20:10+02:00</time>
      </trkpt>
      <trkpt lat="44.34274" lon="4.83693">
        <ele>124.200195</ele>
        <time>2021-09-28T09:20:15+02:00</time>
      </trkpt>
      <trkpt lat="44.34259" lon="4.83695">
        <ele>124.700195</ele>
        <time>2021-09-28T09:20:20+02:00</time>
      </trkpt>
      <trkpt lat="44.34243" lon="4.83692">
        <ele>125.100586</ele>
        <time>2021-09-28T09:20:25+02:00</time>
      </trkpt>
      <trkpt lat="44.34222" lon="4.83689">
        <ele>125.299805</ele>
        <time>2021-09-28T09:20:30+02:00</time>
      </trkpt>
      <trkpt lat="44.34198" lon="4.83687">
        <ele>125.200195</ele>
        <time>2021-09-28T09:20:35+02:00</time>
      </trkpt>
      <trkpt lat="44.34174" lon="4.83685">
        <ele>124.90039</ele>
        <time>2021-09-28T09:20:40+02:00</time>
      </trkpt>
      <trkpt lat="44.34151" lon="4.83683">
        <ele>124</ele>
        <time>2021-09-28T09:20:45+02:00</time>
      </trkpt>
      <trkpt lat="44.34131" lon="4.83682">
        <ele>123.200195</ele>
        <time>2021-09-28T09:20:50+02:00</time>
      </trkpt>
      <trkpt lat="44.34119" lon="4.8368">
        <ele>122.799805</ele>
        <time>2021-09-28T09:20:55+02:00</time>
      </trkpt>
      <trkpt lat="44.34114" lon="4.83678">
        <ele>122.600586</ele>
        <time>2021-09-28T09:21:00+02:00</time>
      </trkpt>
      <trkpt lat="44.34098" lon="4.83675">
        <ele>122.100586</ele>
        <time>2021-09-28T09:21:05+02:00</time>
      </trkpt>
      <trkpt lat="44.3408" lon="4.83674">
        <ele>121.299805</ele>
        <time>2021-09-28T09:21:10+02:00</time>
      </trkpt>
      <trkpt lat="44.34061" lon="4.83673">
        <ele>121.200195</ele>
        <time>2021-09-28T09:21:15+02:00</time>
      </trkpt>
      <trkpt lat="44.34042" lon="4.83673">
        <ele>121.5</ele>
        <time>2021-09-28T09:21:20+02:00</time>
      </trkpt>
      <trkpt lat="44.34022" lon="4.83672">
        <ele>122</ele>
        <time>2021-09-28T09:21:25+02:00</time>
      </trkpt>
      <trkpt lat="44.34003" lon="4.83672">
        <ele>122.40039</ele>
        <time>2021-09-28T09:21:30+02:00</time>
      </trkpt>
      <trkpt lat="44.33984" lon="4.83674">
        <ele>123.100586</ele>
        <time>2021-09-28T09:21:35+02:00</time>
      </trkpt>
      <trkpt lat="44.33965" lon="4.83675">
        <ele>124.100586</ele>
        <time>2021-09-28T09:21:40+02:00</time>
      </trkpt>
      <trkpt lat="44.33946" lon="4.83676">
        <ele>126.200195</ele>
        <time>2021-09-28T09:21:45+02:00</time>
      </trkpt>
      <trkpt lat="44.33927" lon="4.83677">
        <ele>128.7002</ele>
        <time>2021-09-28T09:21:50+02:00</time>
      </trkpt>
      <trkpt lat="44.3391" lon="4.83677">
        <ele>131</ele>
        <time>2021-09-28T09:21:55+02:00</time>
      </trkpt>
      <trkpt lat="44.33894" lon="4.83677">
        <ele>132.5</ele>
        <time>2021-09-28T09:22:00+02:00</time>
      </trkpt>
      <trkpt lat="44.33877" lon="4.83678">
        <ele>132.7998</ele>
        <time>2021-09-28T09:22:05+02:00</time>
      </trkpt>
      <trkpt lat="44.33858" lon="4.8368">
        <ele>132.60059</ele>
        <time>2021-09-28T09:22:10+02:00</time>
      </trkpt>
      <trkpt lat="44.33841" lon="4.83682">
        <ele>132.90039</ele>
        <time>2021-09-28T09:22:15+02:00</time>
      </trkpt>
      <trkpt lat="44.33824" lon="4.83685">
        <ele>131.7002</ele>
        <time>2021-09-28T09:22:20+02:00</time>
      </trkpt>
      <trkpt lat="44.33805" lon="4.8369">
        <ele>130.2998</ele>
        <time>2021-09-28T09:22:25+02:00</time>
      </trkpt>
      <trkpt lat="44.33786" lon="4.83692">
        <ele>129</ele>
        <time>2021-09-28T09:22:30+02:00</time>
      </trkpt>
      <trkpt lat="44.33774" lon="4.83682">
        <ele>127.90039</ele>
        <time>2021-09-28T09:22:35+02:00</time>
      </trkpt>
      <trkpt lat="44.33778" lon="4.83664">
        <ele>127.40039</ele>
        <time>2021-09-28T09:22:40+02:00</time>
      </trkpt>
      <trkpt lat="44.33787" lon="4.83652">
        <ele>128</ele>
        <time>2021-09-28T09:22:45+02:00</time>
      </trkpt>
      <trkpt lat="44.33795" lon="4.83643">
        <ele>128.2998</ele>
        <time>2021-09-28T09:22:50+02:00</time>
      </trkpt>
      <trkpt lat="44.33803" lon="4.83626">
        <ele>128.7998</ele>
        <time>2021-09-28T09:22:55+02:00</time>
      </trkpt>
      <trkpt lat="44.33815" lon="4.83619">
        <ele>129.7002</ele>
        <time>2021-09-28T09:23:00+02:00</time>
      </trkpt>
      <trkpt lat="44.33833" lon="4.83615">
        <ele>130.7998</ele>
        <time>2021-09-28T09:23:05+02:00</time>
      </trkpt>
      <trkpt lat="44.33849" lon="4.83606">
        <ele>131.2998</ele>
        <time>2021-09-28T09:23:10+02:00</time>
      </trkpt>
      <trkpt lat="44.33864" lon="4.83595">
        <ele>131.60059</ele>
        <time>2021-09-28T09:23:15+02:00</time>
      </trkpt>
      <trkpt lat="44.33881" lon="4.83583">
        <ele>130.90039</ele>
        <time>2021-09-28T09:23:20+02:00</time>
      </trkpt>
      <trkpt lat="44.33894" lon="4.8357">
        <ele>130</ele>
        <time>2021-09-28T09:23:25+02:00</time>
      </trkpt>
      <trkpt lat="44.33895" lon="4.83555">
        <ele>130</ele>
        <time>2021-09-28T09:23:30+02:00</time>
      </trkpt>
      <trkpt lat="44.33893" lon="4.83541">
        <ele>129.7002</ele>
        <time>2021-09-28T09:23:35+02:00</time>
      </trkpt>
      <trkpt lat="44.33895" lon="4.83523">
        <ele>129.2002</ele>
        <time>2021-09-28T09:23:40+02:00</time>
      </trkpt>
      <trkpt lat="44.33904" lon="4.83509">
        <ele>127</ele>
        <time>2021-09-28T09:23:45+02:00</time>
      </trkpt>
      <trkpt lat="44.33912" lon="4.83493">
        <ele>125.90039</ele>
        <time>2021-09-28T09:23:50+02:00</time>
      </trkpt>
      <trkpt lat="44.33909" lon="4.83475">
        <ele>126.100586</ele>
        <time>2021-09-28T09:23:55+02:00</time>
      </trkpt>
      <trkpt lat="44.33912" lon="4.83454">
        <ele>126.5</ele>
        <time>2021-09-28T09:24:00+02:00</time>
      </trkpt>
      <trkpt lat="44.33912" lon="4.83428">
        <ele>127.200195</ele>
        <time>2021-09-28T09:24:05+02:00</time>
      </trkpt>
      <trkpt lat="44.33908" lon="4.83401">
        <ele>128.10059</ele>
        <time>2021-09-28T09:24:10+02:00</time>
      </trkpt>
      <trkpt lat="44.33897" lon="4.83376">
        <ele>130.60059</ele>
        <time>2021-09-28T09:24:15+02:00</time>
      </trkpt>
      <trkpt lat="44.3389" lon="4.83348">
        <ele>132.7002</ele>
        <time>2021-09-28T09:24:20+02:00</time>
      </trkpt>
      <trkpt lat="44.33882" lon="4.83329">
        <ele>135.2002</ele>
        <time>2021-09-28T09:24:25+02:00</time>
      </trkpt>
      <trkpt lat="44.33882" lon="4.83311">
        <ele>135.60059</ele>
        <time>2021-09-28T09:24:30+02:00</time>
      </trkpt>
      <trkpt lat="44.33881" lon="4.83289">
        <ele>135.7002</ele>
        <time>2021-09-28T09:24:35+02:00</time>
      </trkpt>
      <trkpt lat="44.3388" lon="4.83265">
        <ele>135.5</ele>
        <time>2021-09-28T09:24:40+02:00</time>
      </trkpt>
      <trkpt lat="44.33887" lon="4.83258">
        <ele>134.40039</ele>
        <time>2021-09-28T09:24:45+02:00</time>
      </trkpt>
      <trkpt lat="44.3389" lon="4.83245">
        <ele>133.10059</ele>
        <time>2021-09-28T09:24:50+02:00</time>
      </trkpt>
      <trkpt lat="44.33894" lon="4.83225">
        <ele>132.2002</ele>
        <time>2021-09-28T09:24:55+02:00</time>
      </trkpt>
      <trkpt lat="44.33907" lon="4.83217">
        <ele>129.2998</ele>
        <time>2021-09-28T09:25:00+02:00</time>
      </trkpt>
      <trkpt lat="44.33921" lon="4.83207">
        <ele>125.700195</ele>
        <time>2021-09-28T09:25:05+02:00</time>
      </trkpt>
      <trkpt lat="44.33926" lon="4.83199">
        <ele>125.200195</ele>
        <time>2021-09-28T09:25:10+02:00</time>
      </trkpt>
      <trkpt lat="44.33926" lon="4.8319">
        <ele>124</ele>
        <time>2021-09-28T09:25:15+02:00</time>
      </trkpt>
      <trkpt lat="44.33919" lon="4.83178">
        <ele>125.100586</ele>
        <time>2021-09-28T09:25:20+02:00</time>
      </trkpt>
      <trkpt lat="44.33917" lon="4.8316">
        <ele>124.200195</ele>
        <time>2021-09-28T09:25:25+02:00</time>
      </trkpt>
      <trkpt lat="44.33907" lon="4.83135">
        <ele>124.600586</ele>
        <time>2021-09-28T09:25:30+02:00</time>
      </trkpt>
      <trkpt lat="44.33895" lon="4.83114">
        <ele>123.799805</ele>
        <time>2021-09-28T09:25:35+02:00</time>
      </trkpt>
      <trkpt lat="44.33885" lon="4.83094">
        <ele>124.799805</ele>
        <time>2021-09-28T09:25:40+02:00</time>
      </trkpt>
      <trkpt lat="44.33876" lon="4.83076">
        <ele>125.299805</ele>
        <time>2021-09-28T09:25:45+02:00</time>
      </trkpt>
      <trkpt lat="44.33868" lon="4.83057">
        <ele>124.600586</ele>
        <time>2021-09-28T09:25:50+02:00</time>
      </trkpt>
      <trkpt lat="44.3386" lon="4.83041">
        <ele>123.799805</ele>
        <time>2021-09-28T09:25:55+02:00</time>
      </trkpt>
      <trkpt lat="44.33852" lon="4.83025">
        <ele>123.5</ele>
        <time>2021-09-28T09:26:00+02:00</time>
      </trkpt>
      <trkpt lat="44.33845" lon="4.83006">
        <ele>123</ele>
        <time>2021-09-28T09:26:05+02:00</time>
      </trkpt>
      <trkpt lat="44.33836" lon="4.82982">
        <ele>122.100586</ele>
        <time>2021-09-28T09:26:10+02:00</time>
      </trkpt>
      <trkpt lat="44.33828" lon="4.82952">
        <ele>121.200195</ele>
        <time>2021-09-28T09:26:15+02:00</time>
      </trkpt>
      <trkpt lat="44.33819" lon="4.8292">
        <ele>122</ele>
        <time>2021-09-28T09:26:20+02:00</time>
      </trkpt>
      <trkpt lat="44.33805" lon="4.82887">
        <ele>122.700195</ele>
        <time>2021-09-28T09:26:25+02:00</time>
      </trkpt>
      <trkpt lat="44.3379" lon="4.82854">
        <ele>124</ele>
        <time>2021-09-28T09:26:30+02:00</time>
      </trkpt>
      <trkpt lat="44.33778" lon="4.82823">
        <ele>124.5</ele>
        <time>2021-09-28T09:26:35+02:00</time>
      </trkpt>
      <trkpt lat="44.33763" lon="4.82794">
        <ele>125.40039</ele>
        <time>2021-09-28T09:26:40+02:00</time>
      </trkpt>
      <trkpt lat="44.33751" lon="4.82766">
        <ele>125.90039</ele>
        <time>2021-09-28T09:26:45+02:00</time>
      </trkpt>
      <trkpt lat="44.33739" lon="4.82737">
        <ele>125.5</ele>
        <time>2021-09-28T09:26:50+02:00</time>
      </trkpt>
      <trkpt lat="44.33725" lon="4.82705">
        <ele>125.90039</ele>
        <time>2021-09-28T09:26:55+02:00</time>
      </trkpt>
      <trkpt lat="44.33721" lon="4.82672">
        <ele>124.299805</ele>
        <time>2021-09-28T09:27:00+02:00</time>
      </trkpt>
      <trkpt lat="44.33715" lon="4.82644">
        <ele>123.5</ele>
        <time>2021-09-28T09:27:05+02:00</time>
      </trkpt>
      <trkpt lat="44.33702" lon="4.82616">
        <ele>123.200195</ele>
        <time>2021-09-28T09:27:10+02:00</time>
      </trkpt>
      <trkpt lat="44.33686" lon="4.82596">
        <ele>124.600586</ele>
        <time>2021-09-28T09:27:15+02:00</time>
      </trkpt>
      <trkpt lat="44.3367" lon="4.82585">
        <ele>125.100586</ele>
        <time>2021-09-28T09:27:20+02:00</time>
      </trkpt>
      <trkpt lat="44.33653" lon="4.82587">
        <ele>126.90039</ele>
        <time>2021-09-28T09:27:25+02:00</time>
      </trkpt>
      <trkpt lat="44.33638" lon="4.82581">
        <ele>126.90039</ele>
        <time>2021-09-28T09:27:30+02:00</time>
      </trkpt>
      <trkpt lat="44.33622" lon="4.82572">
        <ele>126.90039</ele>
        <time>2021-09-28T09:27:35+02:00</time>
      </trkpt>
      <trkpt lat="44.33607" lon="4.8256">
        <ele>126.299805</ele>
        <time>2021-09-28T09:27:40+02:00</time>
      </trkpt>
      <trkpt lat="44.33595" lon="4.82559">
        <ele>126.600586</ele>
        <time>2021-09-28T09:27:45+02:00</time>
      </trkpt>
      <trkpt lat="44.3358" lon="4.82559">
        <ele>127.200195</ele>
        <time>2021-09-28T09:27:50+02:00</time>
      </trkpt>
      <trkpt lat="44.33571" lon="4.82554">
        <ele>126.200195</ele>
        <time>2021-09-28T09:27:55+02:00</time>
      </trkpt>
      <trkpt lat="44.33557" lon="4.82547">
        <ele>125.200195</ele>
        <time>2021-09-28T09:28:00+02:00</time>
      </trkpt>
      <trkpt lat="44.33538" lon="4.82533">
        <ele>124.40039</ele>
        <time>2021-09-28T09:28:05+02:00</time>
      </trkpt>
      <trkpt lat="44.33522" lon="4.82521">
        <ele>122.299805</ele>
        <time>2021-09-28T09:28:10+02:00</time>
      </trkpt>
      <trkpt lat="44.33508" lon="4.82511">
        <ele>122.40039</ele>
        <time>2021-09-28T09:28:15+02:00</time>
      </trkpt>
      <trkpt lat="44.33494" lon="4.82498">
        <ele>122.100586</ele>
        <time>2021-09-28T09:28:20+02:00</time>
      </trkpt>
      <trkpt lat="44.33479" lon="4.82487">
        <ele>121</ele>
        <time>2021-09-28T09:28:25+02:00</time>
      </trkpt>
      <trkpt lat="44.33463" lon="4.82473">
        <ele>122.600586</ele>
        <time>2021-09-28T09:28:30+02:00</time>
      </trkpt>
      <trkpt lat="44.33447" lon="4.82458">
        <ele>123.200195</ele>
        <time>2021-09-28T09:28:35+02:00</time>
      </trkpt>
      <trkpt lat="44.33435" lon="4.82446">
        <ele>125.299805</ele>
        <time>2021-09-28T09:28:40+02:00</time>
      </trkpt>
      <trkpt lat="44.33423" lon="4.82435">
        <ele>125.5</ele>
        <time>2021-09-28T09:28:45+02:00</time>
      </trkpt>
      <trkpt lat="44.33414" lon="4.82428">
        <ele>126.600586</ele>
        <time>2021-09-28T09:28:50+02:00</time>
      </trkpt>
      <trkpt lat="44.33402" lon="4.82421">
        <ele>128.2998</ele>
        <time>2021-09-28T09:28:55+02:00</time>
      </trkpt>
      <trkpt lat="44.33388" lon="4.82418">
        <ele>129.2002</ele>
        <time>2021-09-28T09:29:00+02:00</time>
      </trkpt>
      <trkpt lat="44.33369" lon="4.82415">
        <ele>130.10059</ele>
        <time>2021-09-28T09:29:05+02:00</time>
      </trkpt>
      <trkpt lat="44.33352" lon="4.82409">
        <ele>129.7002</ele>
        <time>2021-09-28T09:29:10+02:00</time>
      </trkpt>
      <trkpt lat="44.33334" lon="4.824">
        <ele>128.60059</ele>
        <time>2021-09-28T09:29:15+02:00</time>
      </trkpt>
      <trkpt lat="44.33318" lon="4.82388">
        <ele>127</ele>
        <time>2021-09-28T09:29:20+02:00</time>
      </trkpt>
      <trkpt lat="44.333" lon="4.82382">
        <ele>125.5</ele>
        <time>2021-09-28T09:29:25+02:00</time>
      </trkpt>
      <trkpt lat="44.3328" lon="4.82379">
        <ele>124.200195</ele>
        <time>2021-09-28T09:29:30+02:00</time>
      </trkpt>
      <trkpt lat="44.33258" lon="4.82361">
        <ele>122.600586</ele>
        <time>2021-09-28T09:29:35+02:00</time>
      </trkpt>
      <trkpt lat="44.33232" lon="4.82339">
        <ele>120.799805</ele>
        <time>2021-09-28T09:29:40+02:00</time>
      </trkpt>
      <trkpt lat="44.33206" lon="4.82325">
        <ele>119.700195</ele>
        <time>2021-09-28T09:29:45+02:00</time>
      </trkpt>
      <trkpt lat="44.33182" lon="4.82314">
        <ele>119.100586</ele>
        <time>2021-09-28T09:29:50+02:00</time>
      </trkpt>
      <trkpt lat="44.33161" lon="4.82315">
        <ele>119.100586</ele>
        <time>2021-09-28T09:29:55+02:00</time>
      </trkpt>
      <trkpt lat="44.33142" lon="4.82331">
        <ele>120.5</ele>
        <time>2021-09-28T09:30:00+02:00</time>
      </trkpt>
      <trkpt lat="44.3312" lon="4.82354">
        <ele>120.600586</ele>
        <time>2021-09-28T09:30:05+02:00</time>
      </trkpt>
      <trkpt lat="44.331" lon="4.82371">
        <ele>119.5</ele>
        <time>2021-09-28T09:30:10+02:00</time>
      </trkpt>
      <trkpt lat="44.3309" lon="4.82383">
        <ele>118.40039</ele>
        <time>2021-09-28T09:30:15+02:00</time>
      </trkpt>
      <trkpt lat="44.33086" lon="4.82397">
        <ele>118.799805</ele>
        <time>2021-09-28T09:30:20+02:00</time>
      </trkpt>
      <trkpt lat="44.33077" lon="4.82414">
        <ele>117.90039</ele>
        <time>2021-09-28T09:30:25+02:00</time>
      </trkpt>
      <trkpt lat="44.33067" lon="4.82432">
        <ele>117.600586</ele>
        <time>2021-09-28T09:30:30+02:00</time>
      </trkpt>
      <trkpt lat="44.3306" lon="4.82446">
        <ele>116.600586</ele>
        <time>2021-09-28T09:30:35+02:00</time>
      </trkpt>
      <trkpt lat="44.33047" lon="4.82456">
        <ele>115.299805</ele>
        <time>2021-09-28T09:30:40+02:00</time>
      </trkpt>
      <trkpt lat="44.33036" lon="4.82454">
        <ele>113.600586</ele>
        <time>2021-09-28T09:30:45+02:00</time>
      </trkpt>
      <trkpt lat="44.33024" lon="4.82455">
        <ele>113.100586</ele>
        <time>2021-09-28T09:30:50+02:00</time>
      </trkpt>
      <trkpt lat="44.33012" lon="4.82459">
        <ele>111.90039</ele>
        <time>2021-09-28T09:30:55+02:00</time>
      </trkpt>
      <trkpt lat="44.32994" lon="4.82453">
        <ele>110.600586</ele>
        <time>2021-09-28T09:31:00+02:00</time>
      </trkpt>
      <trkpt lat="44.32982" lon="4.82457">
        <ele>109.799805</ele>
        <time>2021-09-28T09:31:05+02:00</time>
      </trkpt>
      <trkpt lat="44.32978" lon="4.82469">
        <ele>109.40039</ele>
        <time>2021-09-28T09:31:10+02:00</time>
      </trkpt>
      <trkpt lat="44.3298" lon="4.8248">
        <ele>109.100586</ele>
        <time>2021-09-28T09:31:15+02:00</time>
      </trkpt>
      <trkpt lat="44.3298" lon="4.82496">
        <ele>108.90039</ele>
        <time>2021-09-28T09:31:20+02:00</time>
      </trkpt>
      <trkpt lat="44.32977" lon="4.82518">
        <ele>108.600586</ele>
        <time>2021-09-28T09:31:25+02:00</time>
      </trkpt>
      <trkpt lat="44.32967" lon="4.82533">
        <ele>107.799805</ele>
        <time>2021-09-28T09:31:30+02:00</time>
      </trkpt>
      <trkpt lat="44.32959" lon="4.8255">
        <ele>107.5</ele>
        <time>2021-09-28T09:31:35+02:00</time>
      </trkpt>
      <trkpt lat="44.32947" lon="4.82566">
        <ele>107</ele>
        <time>2021-09-28T09:31:40+02:00</time>
      </trkpt>
      <trkpt lat="44.32933" lon="4.82578">
        <ele>106.600586</ele>
        <time>2021-09-28T09:31:45+02:00</time>
      </trkpt>
      <trkpt lat="44.32922" lon="4.82589">
        <ele>106.100586</ele>
        <time>2021-09-28T09:31:50+02:00</time>
      </trkpt>
      <trkpt lat="44.32916" lon="4.82598">
        <ele>105.799805</ele>
        <time>2021-09-28T09:31:55+02:00</time>
      </trkpt>
      <trkpt lat="44.32914" lon="4.82616">
        <ele>105.40039</ele>
        <time>2021-09-28T09:32:00+02:00</time>
      </trkpt>
      <trkpt lat="44.32911" lon="4.82642">
        <ele>104.600586</ele>
        <time>2021-09-28T09:32:05+02:00</time>
      </trkpt>
      <trkpt lat="44.32913" lon="4.82667">
        <ele>104</ele>
        <time>2021-09-28T09:32:10+02:00</time>
      </trkpt>
      <trkpt lat="44.32913" lon="4.82693">
        <ele>103.90039</ele>
        <time>2021-09-28T09:32:15+02:00</time>
      </trkpt>
      <trkpt lat="44.32916" lon="4.82719">
        <ele>103.90039</ele>
        <time>2021-09-28T09:32:20+02:00</time>
      </trkpt>
      <trkpt lat="44.32916" lon="4.82739">
        <ele>104.100586</ele>
        <time>2021-09-28T09:32:25+02:00</time>
      </trkpt>
      <trkpt lat="44.32915" lon="4.82757">
        <ele>104.200195</ele>
        <time>2021-09-28T09:32:30+02:00</time>
      </trkpt>
      <trkpt lat="44.32916" lon="4.82774">
        <ele>104.299805</ele>
        <time>2021-09-28T09:32:35+02:00</time>
      </trkpt>
      <trkpt lat="44.32915" lon="4.82788">
        <ele>104.40039</ele>
        <time>2021-09-28T09:32:40+02:00</time>
      </trkpt>
      <trkpt lat="44.32912" lon="4.82796">
        <ele>104.700195</ele>
        <time>2021-09-28T09:32:46+02:00</time>
      </trkpt>
      <trkpt lat="44.32909" lon="4.82802">
        <ele>104.799805</ele>
        <time>2021-09-28T09:32:51+02:00</time>
      </trkpt>
      <trkpt lat="44.32911" lon="4.82793">
        <ele>104.700195</ele>
        <time>2021-09-28T09:32:56+02:00</time>
      </trkpt>
      <trkpt lat="44.32913" lon="4.82775">
        <ele>104.299805</ele>
        <time>2021-09-28T09:33:01+02:00</time>
      </trkpt>
      <trkpt lat="44.32915" lon="4.82757">
        <ele>104.200195</ele>
        <time>2021-09-28T09:33:07+02:00</time>
      </trkpt>
      <trkpt lat="44.32915" lon="4.82741">
        <ele>104.100586</ele>
        <time>2021-09-28T09:33:12+02:00</time>
      </trkpt>
      <trkpt lat="44.32909" lon="4.82725">
        <ele>104.100586</ele>
        <time>2021-09-28T09:33:17+02:00</time>
      </trkpt>
      <trkpt lat="44.32898" lon="4.82717">
        <ele>104.40039</ele>
        <time>2021-09-28T09:33:22+02:00</time>
      </trkpt>
      <trkpt lat="44.32881" lon="4.82719">
        <ele>104.5</ele>
        <time>2021-09-28T09:33:27+02:00</time>
      </trkpt>
      <trkpt lat="44.32863" lon="4.82722">
        <ele>103.90039</ele>
        <time>2021-09-28T09:33:32+02:00</time>
      </trkpt>
      <trkpt lat="44.32849" lon="4.82726">
        <ele>103.5</ele>
        <time>2021-09-28T09:33:38+02:00</time>
      </trkpt>
      <trkpt lat="44.32835" lon="4.82727">
        <ele>103.100586</ele>
        <time>2021-09-28T09:33:43+02:00</time>
      </trkpt>
      <trkpt lat="44.3282" lon="4.82729">
        <ele>103.200195</ele>
        <time>2021-09-28T09:33:48+02:00</time>
      </trkpt>
      <trkpt lat="44.32805" lon="4.82733">
        <ele>103.90039</ele>
        <time>2021-09-28T09:33:53+02:00</time>
      </trkpt>
      <trkpt lat="44.32789" lon="4.82738">
        <ele>105.5</ele>
        <time>2021-09-28T09:33:58+02:00</time>
      </trkpt>
      <trkpt lat="44.32777" lon="4.82742">
        <ele>106.600586</ele>
        <time>2021-09-28T09:34:04+02:00</time>
      </trkpt>
      <trkpt lat="44.32764" lon="4.82746">
        <ele>108.100586</ele>
        <time>2021-09-28T09:34:09+02:00</time>
      </trkpt>
      <trkpt lat="44.32751" lon="4.82749">
        <ele>110.90039</ele>
        <time>2021-09-28T09:34:14+02:00</time>
      </trkpt>
      <trkpt lat="44.32736" lon="4.82753">
        <ele>111.90039</ele>
        <time>2021-09-28T09:34:19+02:00</time>
      </trkpt>
      <trkpt lat="44.32723" lon="4.82759">
        <ele>113.700195</ele>
        <time>2021-09-28T09:34:25+02:00</time>
      </trkpt>
      <trkpt lat="44.32711" lon="4.82764">
        <ele>114.90039</ele>
        <time>2021-09-28T09:34:30+02:00</time>
      </trkpt>
      <trkpt lat="44.32699" lon="4.82768">
        <ele>114.700195</ele>
        <time>2021-09-28T09:34:35+02:00</time>
      </trkpt>
      <trkpt lat="44.32683" lon="4.82774">
        <ele>115</ele>
        <time>2021-09-28T09:34:41+02:00</time>
      </trkpt>
      <trkpt lat="44.32665" lon="4.8278">
        <ele>114.90039</ele>
        <time>2021-09-28T09:34:47+02:00</time>
      </trkpt>
      <trkpt lat="44.32652" lon="4.82785">
        <ele>115</ele>
        <time>2021-09-28T09:34:52+02:00</time>
      </trkpt>
      <trkpt lat="44.32634" lon="4.8279">
        <ele>114.90039</ele>
        <time>2021-09-28T09:34:57+02:00</time>
      </trkpt>
      <trkpt lat="44.32619" lon="4.82793">
        <ele>114.700195</ele>
        <time>2021-09-28T09:35:03+02:00</time>
      </trkpt>
      <trkpt lat="44.32596" lon="4.82802">
        <ele>113.90039</ele>
        <time>2021-09-28T09:35:08+02:00</time>
      </trkpt>
      <trkpt lat="44.3257" lon="4.82823">
        <ele>113</ele>
        <time>2021-09-28T09:35:13+02:00</time>
      </trkpt>
      <trkpt lat="44.32555" lon="4.82843">
        <ele>112.40039</ele>
        <time>2021-09-28T09:35:18+02:00</time>
      </trkpt>
      <trkpt lat="44.32535" lon="4.82858">
        <ele>112</ele>
        <time>2021-09-28T09:35:23+02:00</time>
      </trkpt>
      <trkpt lat="44.32513" lon="4.82872">
        <ele>111.799805</ele>
        <time>2021-09-28T09:35:29+02:00</time>
      </trkpt>
      <trkpt lat="44.3249" lon="4.82886">
        <ele>111.90039</ele>
        <time>2021-09-28T09:35:34+02:00</time>
      </trkpt>
      <trkpt lat="44.32467" lon="4.82899">
        <ele>111.5</ele>
        <time>2021-09-28T09:35:39+02:00</time>
      </trkpt>
      <trkpt lat="44.32446" lon="4.82911">
        <ele>111.5</ele>
        <time>2021-09-28T09:35:44+02:00</time>
      </trkpt>
      <trkpt lat="44.32422" lon="4.82924">
        <ele>111.40039</ele>
        <time>2021-09-28T09:35:49+02:00</time>
      </trkpt>
      <trkpt lat="44.32402" lon="4.82935">
        <ele>111.40039</ele>
        <time>2021-09-28T09:35:55+02:00</time>
      </trkpt>
      <trkpt lat="44.32383" lon="4.82946">
        <ele>111.200195</ele>
        <time>2021-09-28T09:36:00+02:00</time>
      </trkpt>
      <trkpt lat="44.32363" lon="4.82958">
        <ele>111.200195</ele>
        <time>2021-09-28T09:36:05+02:00</time>
      </trkpt>
      <trkpt lat="44.3234" lon="4.8297">
        <ele>111</ele>
        <time>2021-09-28T09:36:10+02:00</time>
      </trkpt>
      <trkpt lat="44.32314" lon="4.82981">
        <ele>109.600586</ele>
        <time>2021-09-28T09:36:15+02:00</time>
      </trkpt>
      <trkpt lat="44.32293" lon="4.8299">
        <ele>109</ele>
        <time>2021-09-28T09:36:21+02:00</time>
      </trkpt>
      <trkpt lat="44.3227" lon="4.83004">
        <ele>108.200195</ele>
        <time>2021-09-28T09:36:26+02:00</time>
      </trkpt>
      <trkpt lat="44.32245" lon="4.83024">
        <ele>107.90039</ele>
        <time>2021-09-28T09:36:31+02:00</time>
      </trkpt>
      <trkpt lat="44.32231" lon="4.83034">
        <ele>107.5</ele>
        <time>2021-09-28T09:36:37+02:00</time>
      </trkpt>
      <trkpt lat="44.32235" lon="4.83046">
        <ele>107.90039</ele>
        <time>2021-09-28T09:36:42+02:00</time>
      </trkpt>
      <trkpt lat="44.32245" lon="4.83056">
        <ele>107.799805</ele>
        <time>2021-09-28T09:36:47+02:00</time>
      </trkpt>
      <trkpt lat="44.32262" lon="4.83071">
        <ele>107.299805</ele>
        <time>2021-09-28T09:36:52+02:00</time>
      </trkpt>
      <trkpt lat="44.32278" lon="4.83085">
        <ele>105.100586</ele>
        <time>2021-09-28T09:36:57+02:00</time>
      </trkpt>
      <trkpt lat="44.32272" lon="4.83098">
        <ele>105</ele>
        <time>2021-09-28T09:37:03+02:00</time>
      </trkpt>
      <trkpt lat="44.32259" lon="4.83103">
        <ele>105.600586</ele>
        <time>2021-09-28T09:37:08+02:00</time>
      </trkpt>
      <trkpt lat="44.32246" lon="4.83103">
        <ele>106.600586</ele>
        <time>2021-09-28T09:37:13+02:00</time>
      </trkpt>
      <trkpt lat="44.32226" lon="4.83109">
        <ele>107.299805</ele>
        <time>2021-09-28T09:37:18+02:00</time>
      </trkpt>
      <trkpt lat="44.32213" lon="4.83111">
        <ele>107.600586</ele>
        <time>2021-09-28T09:37:23+02:00</time>
      </trkpt>
      <trkpt lat="44.32201" lon="4.8311">
        <ele>107.600586</ele>
        <time>2021-09-28T09:37:29+02:00</time>
      </trkpt>
      <trkpt lat="44.32191" lon="4.83114">
        <ele>107.600586</ele>
        <time>2021-09-28T09:37:34+02:00</time>
      </trkpt>
      <trkpt lat="44.32182" lon="4.83122">
        <ele>107.5</ele>
        <time>2021-09-28T09:37:39+02:00</time>
      </trkpt>
      <trkpt lat="44.32169" lon="4.83135">
        <ele>107.100586</ele>
        <time>2021-09-28T09:37:44+02:00</time>
      </trkpt>
      <trkpt lat="44.3216" lon="4.83149">
        <ele>107</ele>
        <time>2021-09-28T09:37:49+02:00</time>
      </trkpt>
      <trkpt lat="44.32153" lon="4.8316">
        <ele>106.700195</ele>
        <time>2021-09-28T09:37:55+02:00</time>
      </trkpt>
      <trkpt lat="44.32155" lon="4.83177">
        <ele>106.5</ele>
        <time>2021-09-28T09:38:00+02:00</time>
      </trkpt>
      <trkpt lat="44.32162" lon="4.83199">
        <ele>106.200195</ele>
        <time>2021-09-28T09:38:05+02:00</time>
      </trkpt>
      <trkpt lat="44.32173" lon="4.83219">
        <ele>105.700195</ele>
        <time>2021-09-28T09:38:10+02:00</time>
      </trkpt>
      <trkpt lat="44.32185" lon="4.8324">
        <ele>105.40039</ele>
        <time>2021-09-28T09:38:15+02:00</time>
      </trkpt>
      <trkpt lat="44.32194" lon="4.83262">
        <ele>105.100586</ele>
        <time>2021-09-28T09:38:21+02:00</time>
      </trkpt>
      <trkpt lat="44.32188" lon="4.83295">
        <ele>104.700195</ele>
        <time>2021-09-28T09:38:26+02:00</time>
      </trkpt>
      <trkpt lat="44.32177" lon="4.83324">
        <ele>104.200195</ele>
        <time>2021-09-28T09:38:31+02:00</time>
      </trkpt>
      <trkpt lat="44.32166" lon="4.83357">
        <ele>104.100586</ele>
        <time>2021-09-28T09:38:37+02:00</time>
      </trkpt>
      <trkpt lat="44.32151" lon="4.83392">
        <ele>104</ele>
        <time>2021-09-28T09:38:43+02:00</time>
      </trkpt>
      <trkpt lat="44.32149" lon="4.83425">
        <ele>104.299805</ele>
        <time>2021-09-28T09:38:48+02:00</time>
      </trkpt>
      <trkpt lat="44.32145" lon="4.83455">
        <ele>104.600586</ele>
        <time>2021-09-28T09:38:53+02:00</time>
      </trkpt>
      <trkpt lat="44.32139" lon="4.83487">
        <ele>105.200195</ele>
        <time>2021-09-28T09:38:58+02:00</time>
      </trkpt>
      <trkpt lat="44.32132" lon="4.8351">
        <ele>105.5</ele>
        <time>2021-09-28T09:39:04+02:00</time>
      </trkpt>
      <trkpt lat="44.32127" lon="4.83528">
        <ele>106.200195</ele>
        <time>2021-09-28T09:39:09+02:00</time>
      </trkpt>
      <trkpt lat="44.32121" lon="4.83545">
        <ele>106.600586</ele>
        <time>2021-09-28T09:39:14+02:00</time>
      </trkpt>
      <trkpt lat="44.32108" lon="4.83545">
        <ele>106.600586</ele>
        <time>2021-09-28T09:39:19+02:00</time>
      </trkpt>
      <trkpt lat="44.32097" lon="4.83556">
        <ele>106.90039</ele>
        <time>2021-09-28T09:39:24+02:00</time>
      </trkpt>
      <trkpt lat="44.32093" lon="4.8357">
        <ele>107.100586</ele>
        <time>2021-09-28T09:39:30+02:00</time>
      </trkpt>
      <trkpt lat="44.32087" lon="4.83579">
        <ele>107.40039</ele>
        <time>2021-09-28T09:39:35+02:00</time>
      </trkpt>
      <trkpt lat="44.32083" lon="4.8359">
        <ele>107.90039</ele>
        <time>2021-09-28T09:39:40+02:00</time>
      </trkpt>
      <trkpt lat="44.32075" lon="4.83601">
        <ele>108.40039</ele>
        <time>2021-09-28T09:39:45+02:00</time>
      </trkpt>
      <trkpt lat="44.32072" lon="4.83612">
        <ele>108.700195</ele>
        <time>2021-09-28T09:39:50+02:00</time>
      </trkpt>
      <trkpt lat="44.32062" lon="4.83616">
        <ele>109.700195</ele>
        <time>2021-09-28T09:39:56+02:00</time>
      </trkpt>
      <trkpt lat="44.32053" lon="4.83623">
        <ele>110.40039</ele>
        <time>2021-09-28T09:40:01+02:00</time>
      </trkpt>
      <trkpt lat="44.32042" lon="4.83632">
        <ele>111.90039</ele>
        <time>2021-09-28T09:40:06+02:00</time>
      </trkpt>
      <trkpt lat="44.32032" lon="4.8364">
        <ele>113.700195</ele>
        <time>2021-09-28T09:40:11+02:00</time>
      </trkpt>
      <trkpt lat="44.3202" lon="4.83652">
        <ele>115.600586</ele>
        <time>2021-09-28T09:40:16+02:00</time>
      </trkpt>
      <trkpt lat="44.32013" lon="4.83663">
        <ele>116.700195</ele>
        <time>2021-09-28T09:40:22+02:00</time>
      </trkpt>
      <trkpt lat="44.32001" lon="4.8367">
        <ele>118.40039</ele>
        <time>2021-09-28T09:40:27+02:00</time>
      </trkpt>
      <trkpt lat="44.31985" lon="4.83673">
        <ele>120.200195</ele>
        <time>2021-09-28T09:40:32+02:00</time>
      </trkpt>
      <trkpt lat="44.31976" lon="4.83675">
        <ele>120.600586</ele>
        <time>2021-09-28T09:40:37+02:00</time>
      </trkpt>
      <trkpt lat="44.31965" lon="4.83676">
        <ele>121.299805</ele>
        <time>2021-09-28T09:40:43+02:00</time>
      </trkpt>
      <trkpt lat="44.31949" lon="4.83675">
        <ele>121.799805</ele>
        <time>2021-09-28T09:40:48+02:00</time>
      </trkpt>
      <trkpt lat="44.31934" lon="4.83672">
        <ele>122.5</ele>
        <time>2021-09-28T09:40:53+02:00</time>
      </trkpt>
      <trkpt lat="44.31917" lon="4.83664">
        <ele>122.90039</ele>
        <time>2021-09-28T09:40:58+02:00</time>
      </trkpt>
      <trkpt lat="44.319" lon="4.83652">
        <ele>123</ele>
        <time>2021-09-28T09:41:04+02:00</time>
      </trkpt>
      <trkpt lat="44.31882" lon="4.83642">
        <ele>122.700195</ele>
        <time>2021-09-28T09:41:09+02:00</time>
      </trkpt>
      <trkpt lat="44.31863" lon="4.83634">
        <ele>122.200195</ele>
        <time>2021-09-28T09:41:14+02:00</time>
      </trkpt>
      <trkpt lat="44.31848" lon="4.83633">
        <ele>121.799805</ele>
        <time>2021-09-28T09:41:19+02:00</time>
      </trkpt>
      <trkpt lat="44.31828" lon="4.83633">
        <ele>121.700195</ele>
        <time>2021-09-28T09:41:24+02:00</time>
      </trkpt>
      <trkpt lat="44.31816" lon="4.83644">
        <ele>122.200195</ele>
        <time>2021-09-28T09:41:29+02:00</time>
      </trkpt>
      <trkpt lat="44.31804" lon="4.83654">
        <ele>122.90039</ele>
        <time>2021-09-28T09:41:34+02:00</time>
      </trkpt>
      <trkpt lat="44.31785" lon="4.83663">
        <ele>124.299805</ele>
        <time>2021-09-28T09:41:40+02:00</time>
      </trkpt>
      <trkpt lat="44.31769" lon="4.83674">
        <ele>125.40039</ele>
        <time>2021-09-28T09:41:45+02:00</time>
      </trkpt>
      <trkpt lat="44.31752" lon="4.83684">
        <ele>126.40039</ele>
        <time>2021-09-28T09:41:50+02:00</time>
      </trkpt>
      <trkpt lat="44.31729" lon="4.83706">
        <ele>126.40039</ele>
        <time>2021-09-28T09:41:55+02:00</time>
      </trkpt>
      <trkpt lat="44.31706" lon="4.83721">
        <ele>126</ele>
        <time>2021-09-28T09:42:01+02:00</time>
      </trkpt>
      <trkpt lat="44.3168" lon="4.83723">
        <ele>127.799805</ele>
        <time>2021-09-28T09:42:06+02:00</time>
      </trkpt>
      <trkpt lat="44.31659" lon="4.83726">
        <ele>126.40039</ele>
        <time>2021-09-28T09:42:11+02:00</time>
      </trkpt>
      <trkpt lat="44.31636" lon="4.83731">
        <ele>126.5</ele>
        <time>2021-09-28T09:42:16+02:00</time>
      </trkpt>
      <trkpt lat="44.31606" lon="4.83735">
        <ele>123.90039</ele>
        <time>2021-09-28T09:42:21+02:00</time>
      </trkpt>
      <trkpt lat="44.31579" lon="4.83741">
        <ele>120.299805</ele>
        <time>2021-09-28T09:42:27+02:00</time>
      </trkpt>
      <trkpt lat="44.31555" lon="4.83741">
        <ele>116.700195</ele>
        <time>2021-09-28T09:42:32+02:00</time>
      </trkpt>
      <trkpt lat="44.31531" lon="4.8374">
        <ele>114.600586</ele>
        <time>2021-09-28T09:42:37+02:00</time>
      </trkpt>
      <trkpt lat="44.31507" lon="4.83734">
        <ele>113.799805</ele>
        <time>2021-09-28T09:42:42+02:00</time>
      </trkpt>
      <trkpt lat="44.3149" lon="4.8372">
        <ele>115.299805</ele>
        <time>2021-09-28T09:42:47+02:00</time>
      </trkpt>
      <trkpt lat="44.31481" lon="4.83706">
        <ele>117</ele>
        <time>2021-09-28T09:42:53+02:00</time>
      </trkpt>
      <trkpt lat="44.31464" lon="4.83693">
        <ele>118</ele>
        <time>2021-09-28T09:42:58+02:00</time>
      </trkpt>
      <trkpt lat="44.31451" lon="4.83679">
        <ele>119.90039</ele>
        <time>2021-09-28T09:43:03+02:00</time>
      </trkpt>
      <trkpt lat="44.31457" lon="4.83661">
        <ele>120.200195</ele>
        <time>2021-09-28T09:43:08+02:00</time>
      </trkpt>
      <trkpt lat="44.31466" lon="4.83646">
        <ele>121</ele>
        <time>2021-09-28T09:43:13+02:00</time>
      </trkpt>
      <trkpt lat="44.3147" lon="4.83631">
        <ele>121.799805</ele>
        <time>2021-09-28T09:43:19+02:00</time>
      </trkpt>
      <trkpt lat="44.31473" lon="4.83615">
        <ele>122.5</ele>
        <time>2021-09-28T09:43:24+02:00</time>
      </trkpt>
      <trkpt lat="44.31475" lon="4.83591">
        <ele>122.299805</ele>
        <time>2021-09-28T09:43:29+02:00</time>
      </trkpt>
      <trkpt lat="44.31478" lon="4.83572">
        <ele>122.700195</ele>
        <time>2021-09-28T09:43:34+02:00</time>
      </trkpt>
      <trkpt lat="44.31482" lon="4.83547">
        <ele>121.299805</ele>
        <time>2021-09-28T09:43:39+02:00</time>
      </trkpt>
      <trkpt lat="44.31489" lon="4.83537">
        <ele>122.799805</ele>
        <time>2021-09-28T09:43:45+02:00</time>
      </trkpt>
      <trkpt lat="44.31496" lon="4.83529">
        <ele>122.90039</ele>
        <time>2021-09-28T09:43:50+02:00</time>
      </trkpt>
      <trkpt lat="44.31506" lon="4.83524">
        <ele>122.90039</ele>
        <time>2021-09-28T09:43:55+02:00</time>
      </trkpt>
      <trkpt lat="44.31518" lon="4.83517">
        <ele>123.5</ele>
        <time>2021-09-28T09:44:00+02:00</time>
      </trkpt>
      <trkpt lat="44.31529" lon="4.8351">
        <ele>123.700195</ele>
        <time>2021-09-28T09:44:05+02:00</time>
      </trkpt>
      <trkpt lat="44.31539" lon="4.83504">
        <ele>125</ele>
        <time>2021-09-28T09:44:11+02:00</time>
      </trkpt>
      <trkpt lat="44.31551" lon="4.83499">
        <ele>124.600586</ele>
        <time>2021-09-28T09:44:16+02:00</time>
      </trkpt>
      <trkpt lat="44.31565" lon="4.83496">
        <ele>125.100586</ele>
        <time>2021-09-28T09:44:21+02:00</time>
      </trkpt>
      <trkpt lat="44.31572" lon="4.83496">
        <ele>125.299805</ele>
        <time>2021-09-28T09:44:27+02:00</time>
      </trkpt>
      <trkpt lat="44.31581" lon="4.835">
        <ele>125.200195</ele>
        <time>2021-09-28T09:44:32+02:00</time>
      </trkpt>
      <trkpt lat="44.31591" lon="4.83505">
        <ele>127.100586</ele>
        <time>2021-09-28T09:44:37+02:00</time>
      </trkpt>
      <trkpt lat="44.31601" lon="4.8351">
        <ele>126.90039</ele>
        <time>2021-09-28T09:44:42+02:00</time>
      </trkpt>
      <trkpt lat="44.31612" lon="4.83515">
        <ele>128.40039</ele>
        <time>2021-09-28T09:44:47+02:00</time>
      </trkpt>
      <trkpt lat="44.31622" lon="4.8352">
        <ele>129.90039</ele>
        <time>2021-09-28T09:44:53+02:00</time>
      </trkpt>
      <trkpt lat="44.31632" lon="4.83526">
        <ele>129.60059</ele>
        <time>2021-09-28T09:44:58+02:00</time>
      </trkpt>
      <trkpt lat="44.3164" lon="4.83533">
        <ele>131</ele>
        <time>2021-09-28T09:45:03+02:00</time>
      </trkpt>
      <trkpt lat="44.3165" lon="4.83538">
        <ele>131.90039</ele>
        <time>2021-09-28T09:45:08+02:00</time>
      </trkpt>
      <trkpt lat="44.31659" lon="4.83546">
        <ele>132.7998</ele>
        <time>2021-09-28T09:45:13+02:00</time>
      </trkpt>
      <trkpt lat="44.31668" lon="4.83554">
        <ele>132.90039</ele>
        <time>2021-09-28T09:45:19+02:00</time>
      </trkpt>
      <trkpt lat="44.31675" lon="4.83562">
        <ele>133.10059</ele>
        <time>2021-09-28T09:45:24+02:00</time>
      </trkpt>
      <trkpt lat="44.31683" lon="4.83572">
        <ele>133.10059</ele>
        <time>2021-09-28T09:45:30+02:00</time>
      </trkpt>
      <trkpt lat="44.31693" lon="4.83581">
        <ele>132.7998</ele>
        <time>2021-09-28T09:45:36+02:00</time>
      </trkpt>
      <trkpt lat="44.31699" lon="4.8359">
        <ele>132.5</ele>
        <time>2021-09-28T09:45:41+02:00</time>
      </trkpt>
      <trkpt lat="44.31703" lon="4.83599">
        <ele>132.40039</ele>
        <time>2021-09-28T09:45:46+02:00</time>
      </trkpt>
      <trkpt lat="44.31704" lon="4.83615">
        <ele>131.40039</ele>
        <time>2021-09-28T09:45:51+02:00</time>
      </trkpt>
      <trkpt lat="44.31699" lon="4.83625">
        <ele>131.2998</ele>
        <time>2021-09-28T09:45:57+02:00</time>
      </trkpt>
      <trkpt lat="44.31693" lon="4.8363">
        <ele>131.5</ele>
        <time>2021-09-28T09:46:02+02:00</time>
      </trkpt>
      <trkpt lat="44.31686" lon="4.83633">
        <ele>131.2998</ele>
        <time>2021-09-28T09:46:07+02:00</time>
      </trkpt>
      <trkpt lat="44.3168" lon="4.83637">
        <ele>131.60059</ele>
        <time>2021-09-28T09:46:12+02:00</time>
      </trkpt>
      <trkpt lat="44.31671" lon="4.83641">
        <ele>131.7998</ele>
        <time>2021-09-28T09:46:17+02:00</time>
      </trkpt>
      <trkpt lat="44.31662" lon="4.83645">
        <ele>132.10059</ele>
        <time>2021-09-28T09:46:23+02:00</time>
      </trkpt>
      <trkpt lat="44.31653" lon="4.83646">
        <ele>132.7002</ele>
        <time>2021-09-28T09:46:28+02:00</time>
      </trkpt>
      <trkpt lat="44.31646" lon="4.8364">
        <ele>132.90039</ele>
        <time>2021-09-28T09:46:33+02:00</time>
      </trkpt>
      <trkpt lat="44.3164" lon="4.8363">
        <ele>133.7002</ele>
        <time>2021-09-28T09:46:38+02:00</time>
      </trkpt>
      <trkpt lat="44.31622" lon="4.83622">
        <ele>134.90039</ele>
        <time>2021-09-28T09:46:43+02:00</time>
      </trkpt>
      <trkpt lat="44.31607" lon="4.83622">
        <ele>135.2002</ele>
        <time>2021-09-28T09:46:49+02:00</time>
      </trkpt>
      <trkpt lat="44.31592" lon="4.83625">
        <ele>135.2998</ele>
        <time>2021-09-28T09:46:54+02:00</time>
      </trkpt>
      <trkpt lat="44.31576" lon="4.83632">
        <ele>134.2998</ele>
        <time>2021-09-28T09:46:59+02:00</time>
      </trkpt>
      <trkpt lat="44.31561" lon="4.83629">
        <ele>133.2998</ele>
        <time>2021-09-28T09:47:04+02:00</time>
      </trkpt>
      <trkpt lat="44.3155" lon="4.83611">
        <ele>132.7002</ele>
        <time>2021-09-28T09:47:09+02:00</time>
      </trkpt>
      <trkpt lat="44.31536" lon="4.83588">
        <ele>131.90039</ele>
        <time>2021-09-28T09:47:14+02:00</time>
      </trkpt>
      <trkpt lat="44.31527" lon="4.8359">
        <ele>131.2998</ele>
        <time>2021-09-28T09:47:20+02:00</time>
      </trkpt>
      <trkpt lat="44.31527" lon="4.83593">
        <ele>131.2998</ele>
        <time>2021-09-28T09:47:25+02:00</time>
      </trkpt>
      <trkpt lat="44.31527" lon="4.83602">
        <ele>131</ele>
        <time>2021-09-28T09:47:30+02:00</time>
      </trkpt>
      <trkpt lat="44.31522" lon="4.8361">
        <ele>129.7002</ele>
        <time>2021-09-28T09:47:35+02:00</time>
      </trkpt>
      <trkpt lat="44.31515" lon="4.83631">
        <ele>126.799805</ele>
        <time>2021-09-28T09:47:41+02:00</time>
      </trkpt>
      <trkpt lat="44.315" lon="4.83642">
        <ele>123.600586</ele>
        <time>2021-09-28T09:47:46+02:00</time>
      </trkpt>
      <trkpt lat="44.3148" lon="4.83651">
        <ele>121.200195</ele>
        <time>2021-09-28T09:47:51+02:00</time>
      </trkpt>
      <trkpt lat="44.3146" lon="4.83663">
        <ele>120.100586</ele>
        <time>2021-09-28T09:47:56+02:00</time>
      </trkpt>
      <trkpt lat="44.31445" lon="4.83665">
        <ele>120.299805</ele>
        <time>2021-09-28T09:48:01+02:00</time>
      </trkpt>
      <trkpt lat="44.31427" lon="4.83665">
        <ele>120.5</ele>
        <time>2021-09-28T09:48:07+02:00</time>
      </trkpt>
      <trkpt lat="44.31411" lon="4.83666">
        <ele>120.5</ele>
        <time>2021-09-28T09:48:12+02:00</time>
      </trkpt>
      <trkpt lat="44.31395" lon="4.83672">
        <ele>120.5</ele>
        <time>2021-09-28T09:48:17+02:00</time>
      </trkpt>
      <trkpt lat="44.31375" lon="4.83681">
        <ele>120.600586</ele>
        <time>2021-09-28T09:48:22+02:00</time>
      </trkpt>
      <trkpt lat="44.31362" lon="4.83685">
        <ele>120.700195</ele>
        <time>2021-09-28T09:48:27+02:00</time>
      </trkpt>
      <trkpt lat="44.31344" lon="4.83691">
        <ele>120.40039</ele>
        <time>2021-09-28T09:48:33+02:00</time>
      </trkpt>
      <trkpt lat="44.31327" lon="4.83701">
        <ele>119.299805</ele>
        <time>2021-09-28T09:48:38+02:00</time>
      </trkpt>
      <trkpt lat="44.31312" lon="4.83715">
        <ele>118.299805</ele>
        <time>2021-09-28T09:48:43+02:00</time>
      </trkpt>
      <trkpt lat="44.31297" lon="4.83721">
        <ele>116.799805</ele>
        <time>2021-09-28T09:48:48+02:00</time>
      </trkpt>
      <trkpt lat="44.31281" lon="4.83721">
        <ele>116</ele>
        <time>2021-09-28T09:48:54+02:00</time>
      </trkpt>
      <trkpt lat="44.31254" lon="4.83731">
        <ele>114.799805</ele>
        <time>2021-09-28T09:48:59+02:00</time>
      </trkpt>
      <trkpt lat="44.31225" lon="4.83743">
        <ele>114.5</ele>
        <time>2021-09-28T09:49:04+02:00</time>
      </trkpt>
      <trkpt lat="44.31198" lon="4.83754">
        <ele>112.40039</ele>
        <time>2021-09-28T09:49:09+02:00</time>
      </trkpt>
      <trkpt lat="44.3117" lon="4.83763">
        <ele>111.100586</ele>
        <time>2021-09-28T09:49:14+02:00</time>
      </trkpt>
      <trkpt lat="44.31147" lon="4.83767">
        <ele>110.799805</ele>
        <time>2021-09-28T09:49:20+02:00</time>
      </trkpt>
      <trkpt lat="44.31124" lon="4.83772">
        <ele>110.700195</ele>
        <time>2021-09-28T09:49:25+02:00</time>
      </trkpt>
      <trkpt lat="44.31105" lon="4.8378">
        <ele>109.600586</ele>
        <time>2021-09-28T09:49:30+02:00</time>
      </trkpt>
      <trkpt lat="44.31095" lon="4.83788">
        <ele>107.90039</ele>
        <time>2021-09-28T09:49:35+02:00</time>
      </trkpt>
      <trkpt lat="44.3109" lon="4.83795">
        <ele>107.700195</ele>
        <time>2021-09-28T09:49:41+02:00</time>
      </trkpt>
      <trkpt lat="44.3108" lon="4.83806">
        <ele>106.600586</ele>
        <time>2021-09-28T09:49:46+02:00</time>
      </trkpt>
      <trkpt lat="44.31067" lon="4.8382">
        <ele>106.600586</ele>
        <time>2021-09-28T09:49:51+02:00</time>
      </trkpt>
      <trkpt lat="44.31054" lon="4.83836">
        <ele>107.40039</ele>
        <time>2021-09-28T09:49:56+02:00</time>
      </trkpt>
      <trkpt lat="44.31039" lon="4.83857">
        <ele>108.299805</ele>
        <time>2021-09-28T09:50:01+02:00</time>
      </trkpt>
      <trkpt lat="44.31027" lon="4.83872">
        <ele>109.299805</ele>
        <time>2021-09-28T09:50:07+02:00</time>
      </trkpt>
      <trkpt lat="44.31018" lon="4.83882">
        <ele>109.90039</ele>
        <time>2021-09-28T09:50:12+02:00</time>
      </trkpt>
      <trkpt lat="44.3101" lon="4.83894">
        <ele>110.40039</ele>
        <time>2021-09-28T09:50:17+02:00</time>
      </trkpt>
      <trkpt lat="44.31003" lon="4.83905">
        <ele>111</ele>
        <time>2021-09-28T09:50:22+02:00</time>
      </trkpt>
      <trkpt lat="44.30995" lon="4.8391">
        <ele>111.40039</ele>
        <time>2021-09-28T09:50:27+02:00</time>
      </trkpt>
      <trkpt lat="44.30985" lon="4.83912">
        <ele>111.5</ele>
        <time>2021-09-28T09:50:33+02:00</time>
      </trkpt>
      <trkpt lat="44.30975" lon="4.83912">
        <ele>111.90039</ele>
        <time>2021-09-28T09:50:38+02:00</time>
      </trkpt>
      <trkpt lat="44.30962" lon="4.83911">
        <ele>112.5</ele>
        <time>2021-09-28T09:50:43+02:00</time>
      </trkpt>
      <trkpt lat="44.30943" lon="4.83905">
        <ele>113.700195</ele>
        <time>2021-09-28T09:50:48+02:00</time>
      </trkpt>
      <trkpt lat="44.30928" lon="4.83905">
        <ele>115</ele>
        <time>2021-09-28T09:50:54+02:00</time>
      </trkpt>
      <trkpt lat="44.30904" lon="4.83901">
        <ele>115.700195</ele>
        <time>2021-09-28T09:51:00+02:00</time>
      </trkpt>
      <trkpt lat="44.30886" lon="4.83896">
        <ele>115.700195</ele>
        <time>2021-09-28T09:51:05+02:00</time>
      </trkpt>
      <trkpt lat="44.30866" lon="4.83891">
        <ele>114.90039</ele>
        <time>2021-09-28T09:51:10+02:00</time>
      </trkpt>
      <trkpt lat="44.30849" lon="4.83885">
        <ele>114.200195</ele>
        <time>2021-09-28T09:51:15+02:00</time>
      </trkpt>
      <trkpt lat="44.30833" lon="4.83869">
        <ele>113.100586</ele>
        <time>2021-09-28T09:51:21+02:00</time>
      </trkpt>
      <trkpt lat="44.3082" lon="4.83861">
        <ele>112.700195</ele>
        <time>2021-09-28T09:51:26+02:00</time>
      </trkpt>
      <trkpt lat="44.30809" lon="4.83859">
        <ele>113.40039</ele>
        <time>2021-09-28T09:51:31+02:00</time>
      </trkpt>
      <trkpt lat="44.308" lon="4.83863">
        <ele>114.90039</ele>
        <time>2021-09-28T09:51:36+02:00</time>
      </trkpt>
      <trkpt lat="44.30792" lon="4.83868">
        <ele>115.299805</ele>
        <time>2021-09-28T09:51:42+02:00</time>
      </trkpt>
      <trkpt lat="44.30778" lon="4.83871">
        <ele>116.600586</ele>
        <time>2021-09-28T09:51:47+02:00</time>
      </trkpt>
      <trkpt lat="44.30761" lon="4.83874">
        <ele>117.600586</ele>
        <time>2021-09-28T09:51:52+02:00</time>
      </trkpt>
      <trkpt lat="44.30744" lon="4.83871">
        <ele>118.200195</ele>
        <time>2021-09-28T09:51:57+02:00</time>
      </trkpt>
      <trkpt lat="44.30738" lon="4.83856">
        <ele>118.5</ele>
        <time>2021-09-28T09:52:02+02:00</time>
      </trkpt>
      <trkpt lat="44.30743" lon="4.83839">
        <ele>118.299805</ele>
        <time>2021-09-28T09:52:07+02:00</time>
      </trkpt>
      <trkpt lat="44.30751" lon="4.83815">
        <ele>117.40039</ele>
        <time>2021-09-28T09:52:13+02:00</time>
      </trkpt>
      <trkpt lat="44.30756" lon="4.83791">
        <ele>116.100586</ele>
        <time>2021-09-28T09:52:18+02:00</time>
      </trkpt>
      <trkpt lat="44.30758" lon="4.83771">
        <ele>115.40039</ele>
        <time>2021-09-28T09:52:23+02:00</time>
      </trkpt>
      <trkpt lat="44.3076" lon="4.83751">
        <ele>115.200195</ele>
        <time>2021-09-28T09:52:28+02:00</time>
      </trkpt>
      <trkpt lat="44.30761" lon="4.83733">
        <ele>115.100586</ele>
        <time>2021-09-28T09:52:33+02:00</time>
      </trkpt>
      <trkpt lat="44.30759" lon="4.83709">
        <ele>115.100586</ele>
        <time>2021-09-28T09:52:39+02:00</time>
      </trkpt>
      <trkpt lat="44.30755" lon="4.83683">
        <ele>114.700195</ele>
        <time>2021-09-28T09:52:44+02:00</time>
      </trkpt>
      <trkpt lat="44.30752" lon="4.83652">
        <ele>113.90039</ele>
        <time>2021-09-28T09:52:49+02:00</time>
      </trkpt>
      <trkpt lat="44.3075" lon="4.83627">
        <ele>114.700195</ele>
        <time>2021-09-28T09:52:54+02:00</time>
      </trkpt>
      <trkpt lat="44.30745" lon="4.83604">
        <ele>116.40039</ele>
        <time>2021-09-28T09:52:59+02:00</time>
      </trkpt>
      <trkpt lat="44.30733" lon="4.83592">
        <ele>117.5</ele>
        <time>2021-09-28T09:53:05+02:00</time>
      </trkpt>
      <trkpt lat="44.30721" lon="4.83586">
        <ele>119.200195</ele>
        <time>2021-09-28T09:53:10+02:00</time>
      </trkpt>
      <trkpt lat="44.30708" lon="4.83578">
        <ele>121.100586</ele>
        <time>2021-09-28T09:53:15+02:00</time>
      </trkpt>
      <trkpt lat="44.30695" lon="4.83571">
        <ele>121.90039</ele>
        <time>2021-09-28T09:53:21+02:00</time>
      </trkpt>
      <trkpt lat="44.30681" lon="4.8356">
        <ele>122.700195</ele>
        <time>2021-09-28T09:53:26+02:00</time>
      </trkpt>
      <trkpt lat="44.30669" lon="4.8355">
        <ele>123.200195</ele>
        <time>2021-09-28T09:53:31+02:00</time>
      </trkpt>
      <trkpt lat="44.30661" lon="4.83538">
        <ele>123.600586</ele>
        <time>2021-09-28T09:53:36+02:00</time>
      </trkpt>
      <trkpt lat="44.30662" lon="4.83519">
        <ele>123.5</ele>
        <time>2021-09-28T09:53:41+02:00</time>
      </trkpt>
      <trkpt lat="44.30673" lon="4.83494">
        <ele>122.200195</ele>
        <time>2021-09-28T09:53:47+02:00</time>
      </trkpt>
      <trkpt lat="44.30685" lon="4.83468">
        <ele>120.299805</ele>
        <time>2021-09-28T09:53:52+02:00</time>
      </trkpt>
      <trkpt lat="44.30695" lon="4.83447">
        <ele>119.200195</ele>
        <time>2021-09-28T09:53:57+02:00</time>
      </trkpt>
      <trkpt lat="44.30708" lon="4.83423">
        <ele>118.90039</ele>
        <time>2021-09-28T09:54:02+02:00</time>
      </trkpt>
      <trkpt lat="44.30721" lon="4.83405">
        <ele>119.200195</ele>
        <time>2021-09-28T09:54:08+02:00</time>
      </trkpt>
      <trkpt lat="44.30733" lon="4.83389">
        <ele>119.600586</ele>
        <time>2021-09-28T09:54:13+02:00</time>
      </trkpt>
      <trkpt lat="44.30744" lon="4.83375">
        <ele>120</ele>
        <time>2021-09-28T09:54:18+02:00</time>
      </trkpt>
      <trkpt lat="44.30758" lon="4.83364">
        <ele>120.5</ele>
        <time>2021-09-28T09:54:23+02:00</time>
      </trkpt>
      <trkpt lat="44.30769" lon="4.83357">
        <ele>120.5</ele>
        <time>2021-09-28T09:54:28+02:00</time>
      </trkpt>
      <trkpt lat="44.30772" lon="4.83343">
        <ele>120.799805</ele>
        <time>2021-09-28T09:54:34+02:00</time>
      </trkpt>
      <trkpt lat="44.30773" lon="4.8333">
        <ele>120.40039</ele>
        <time>2021-09-28T09:54:39+02:00</time>
      </trkpt>
      <trkpt lat="44.30784" lon="4.83319">
        <ele>120.200195</ele>
        <time>2021-09-28T09:54:44+02:00</time>
      </trkpt>
      <trkpt lat="44.30797" lon="4.83312">
        <ele>120</ele>
        <time>2021-09-28T09:54:49+02:00</time>
      </trkpt>
      <trkpt lat="44.30809" lon="4.83299">
        <ele>119.799805</ele>
        <time>2021-09-28T09:54:54+02:00</time>
      </trkpt>
      <trkpt lat="44.30815" lon="4.83288">
        <ele>119.5</ele>
        <time>2021-09-28T09:55:00+02:00</time>
      </trkpt>
      <trkpt lat="44.30822" lon="4.83285">
        <ele>119.299805</ele>
        <time>2021-09-28T09:55:05+02:00</time>
      </trkpt>
      <trkpt lat="44.30829" lon="4.83289">
        <ele>119.40039</ele>
        <time>2021-09-28T09:55:10+02:00</time>
      </trkpt>
      <trkpt lat="44.30834" lon="4.83293">
        <ele>119.200195</ele>
        <time>2021-09-28T09:55:15+02:00</time>
      </trkpt>
      <trkpt lat="44.30837" lon="4.83293">
        <ele>118.799805</ele>
        <time>2021-09-28T09:55:20+02:00</time>
      </trkpt>
      <trkpt lat="44.30844" lon="4.83295">
        <ele>118.40039</ele>
        <time>2021-09-28T09:55:26+02:00</time>
      </trkpt>
      <trkpt lat="44.30853" lon="4.83296">
        <ele>118</ele>
        <time>2021-09-28T09:55:31+02:00</time>
      </trkpt>
      <trkpt lat="44.30858" lon="4.83296">
        <ele>117.5</ele>
        <time>2021-09-28T09:55:36+02:00</time>
      </trkpt>
      <trkpt lat="44.30868" lon="4.83297">
        <ele>117</ele>
        <time>2021-09-28T09:55:41+02:00</time>
      </trkpt>
      <trkpt lat="44.30887" lon="4.83301">
        <ele>115.5</ele>
        <time>2021-09-28T09:55:46+02:00</time>
      </trkpt>
      <trkpt lat="44.30901" lon="4.83306">
        <ele>115.799805</ele>
        <time>2021-09-28T09:55:51+02:00</time>
      </trkpt>
      <trkpt lat="44.30917" lon="4.83312">
        <ele>115.90039</ele>
        <time>2021-09-28T09:55:56+02:00</time>
      </trkpt>
      <trkpt lat="44.30929" lon="4.83325">
        <ele>116.299805</ele>
        <time>2021-09-28T09:56:02+02:00</time>
      </trkpt>
      <trkpt lat="44.30935" lon="4.83343">
        <ele>116.700195</ele>
        <time>2021-09-28T09:56:07+02:00</time>
      </trkpt>
      <trkpt lat="44.30934" lon="4.83359">
        <ele>117.200195</ele>
        <time>2021-09-28T09:56:12+02:00</time>
      </trkpt>
      <trkpt lat="44.30938" lon="4.83378">
        <ele>117.799805</ele>
        <time>2021-09-28T09:56:17+02:00</time>
      </trkpt>
      <trkpt lat="44.30944" lon="4.83394">
        <ele>118.5</ele>
        <time>2021-09-28T09:56:22+02:00</time>
      </trkpt>
      <trkpt lat="44.30951" lon="4.83406">
        <ele>119</ele>
        <time>2021-09-28T09:56:27+02:00</time>
      </trkpt>
      <trkpt lat="44.30958" lon="4.83422">
        <ele>119.799805</ele>
        <time>2021-09-28T09:56:33+02:00</time>
      </trkpt>
      <trkpt lat="44.30965" lon="4.83435">
        <ele>120.600586</ele>
        <time>2021-09-28T09:56:38+02:00</time>
      </trkpt>
      <trkpt lat="44.3097" lon="4.83446">
        <ele>121.100586</ele>
        <time>2021-09-28T09:56:43+02:00</time>
      </trkpt>
      <trkpt lat="44.30976" lon="4.8346">
        <ele>121.700195</ele>
        <time>2021-09-28T09:56:48+02:00</time>
      </trkpt>
      <trkpt lat="44.30981" lon="4.83471">
        <ele>122.100586</ele>
        <time>2021-09-28T09:56:53+02:00</time>
      </trkpt>
      <trkpt lat="44.3099" lon="4.83488">
        <ele>122.100586</ele>
        <time>2021-09-28T09:56:59+02:00</time>
      </trkpt>
      <trkpt lat="44.30995" lon="4.835">
        <ele>121.90039</ele>
        <time>2021-09-28T09:57:04+02:00</time>
      </trkpt>
      <trkpt lat="44.30999" lon="4.8351">
        <ele>121.40039</ele>
        <time>2021-09-28T09:57:09+02:00</time>
      </trkpt>
      <trkpt lat="44.31006" lon="4.83523">
        <ele>119.799805</ele>
        <time>2021-09-28T09:57:14+02:00</time>
      </trkpt>
      <trkpt lat="44.3101" lon="4.83535">
        <ele>119.200195</ele>
        <time>2021-09-28T09:57:20+02:00</time>
      </trkpt>
      <trkpt lat="44.31016" lon="4.83547">
        <ele>117.700195</ele>
        <time>2021-09-28T09:57:25+02:00</time>
      </trkpt>
      <trkpt lat="44.31021" lon="4.83555">
        <ele>116.799805</ele>
        <time>2021-09-28T09:57:30+02:00</time>
      </trkpt>
      <trkpt lat="44.31028" lon="4.83572">
        <ele>115.700195</ele>
        <time>2021-09-28T09:57:35+02:00</time>
      </trkpt>
      <trkpt lat="44.31034" lon="4.83589">
        <ele>114.600586</ele>
        <time>2021-09-28T09:57:40+02:00</time>
      </trkpt>
      <trkpt lat="44.31042" lon="4.8361">
        <ele>113.799805</ele>
        <time>2021-09-28T09:57:46+02:00</time>
      </trkpt>
      <trkpt lat="44.31047" lon="4.83636">
        <ele>111.200195</ele>
        <time>2021-09-28T09:57:51+02:00</time>
      </trkpt>
      <trkpt lat="44.31052" lon="4.83658">
        <ele>107.5</ele>
        <time>2021-09-28T09:57:56+02:00</time>
      </trkpt>
      <trkpt lat="44.31057" lon="4.83676">
        <ele>105.299805</ele>
        <time>2021-09-28T09:58:01+02:00</time>
      </trkpt>
      <trkpt lat="44.31063" lon="4.83697">
        <ele>104.5</ele>
        <time>2021-09-28T09:58:06+02:00</time>
      </trkpt>
      <trkpt lat="44.31068" lon="4.83715">
        <ele>104.799805</ele>
        <time>2021-09-28T09:58:12+02:00</time>
      </trkpt>
      <trkpt lat="44.31073" lon="4.83732">
        <ele>105.700195</ele>
        <time>2021-09-28T09:58:17+02:00</time>
      </trkpt>
      <trkpt lat="44.3108" lon="4.83749">
        <ele>106.600586</ele>
        <time>2021-09-28T09:58:22+02:00</time>
      </trkpt>
      <trkpt lat="44.31089" lon="4.83762">
        <ele>107.5</ele>
        <time>2021-09-28T09:58:27+02:00</time>
      </trkpt>
      <trkpt lat="44.31099" lon="4.83776">
        <ele>108.90039</ele>
        <time>2021-09-28T09:58:32+02:00</time>
      </trkpt>
      <trkpt lat="44.31101" lon="4.83797">
        <ele>108.40039</ele>
        <time>2021-09-28T09:58:38+02:00</time>
      </trkpt>
      <trkpt lat="44.31103" lon="4.83802">
        <ele>109.100586</ele>
        <time>2021-09-28T09:58:43+02:00</time>
      </trkpt>
      <trkpt lat="44.31103" lon="4.83805">
        <ele>109</ele>
        <time>2021-09-28T09:58:48+02:00</time>
      </trkpt>
      <trkpt lat="44.31107" lon="4.83812">
        <ele>108.90039</ele>
        <time>2021-09-28T09:58:53+02:00</time>
      </trkpt>
      <trkpt lat="44.31115" lon="4.83824">
        <ele>109.799805</ele>
        <time>2021-09-28T09:58:58+02:00</time>
      </trkpt>
      <trkpt lat="44.31123" lon="4.83836">
        <ele>110.700195</ele>
        <time>2021-09-28T09:59:03+02:00</time>
      </trkpt>
      <trkpt lat="44.31131" lon="4.83849">
        <ele>111.5</ele>
        <time>2021-09-28T09:59:08+02:00</time>
      </trkpt>
      <trkpt lat="44.31139" lon="4.83862">
        <ele>112.700195</ele>
        <time>2021-09-28T09:59:13+02:00</time>
      </trkpt>
      <trkpt lat="44.31147" lon="4.83874">
        <ele>113.200195</ele>
        <time>2021-09-28T09:59:18+02:00</time>
      </trkpt>
      <trkpt lat="44.31153" lon="4.83883">
        <ele>113.200195</ele>
        <time>2021-09-28T09:59:23+02:00</time>
      </trkpt>
      <trkpt lat="44.31159" lon="4.83893">
        <ele>113</ele>
        <time>2021-09-28T09:59:28+02:00</time>
      </trkpt>
      <trkpt lat="44.31166" lon="4.83903">
        <ele>112.700195</ele>
        <time>2021-09-28T09:59:33+02:00</time>
      </trkpt>
      <trkpt lat="44.31174" lon="4.83913">
        <ele>112.5</ele>
        <time>2021-09-28T09:59:38+02:00</time>
      </trkpt>
      <trkpt lat="44.31185" lon="4.83916">
        <ele>112.299805</ele>
        <time>2021-09-28T09:59:43+02:00</time>
      </trkpt>
      <trkpt lat="44.31198" lon="4.83916">
        <ele>112.5</ele>
        <time>2021-09-28T09:59:48+02:00</time>
      </trkpt>
      <trkpt lat="44.31211" lon="4.83918">
        <ele>112.700195</ele>
        <time>2021-09-28T09:59:53+02:00</time>
      </trkpt>
      <trkpt lat="44.31224" lon="4.83927">
        <ele>111.90039</ele>
        <time>2021-09-28T09:59:58+02:00</time>
      </trkpt>
      <trkpt lat="44.31237" lon="4.83931">
        <ele>110.299805</ele>
        <time>2021-09-28T10:00:03+02:00</time>
      </trkpt>
      <trkpt lat="44.31249" lon="4.83931">
        <ele>111</ele>
        <time>2021-09-28T10:00:08+02:00</time>
      </trkpt>
      <trkpt lat="44.3126" lon="4.83928">
        <ele>110.5</ele>
        <time>2021-09-28T10:00:13+02:00</time>
      </trkpt>
      <trkpt lat="44.31271" lon="4.83922">
        <ele>110.299805</ele>
        <time>2021-09-28T10:00:18+02:00</time>
      </trkpt>
      <trkpt lat="44.3128" lon="4.83915">
        <ele>109.299805</ele>
        <time>2021-09-28T10:00:23+02:00</time>
      </trkpt>
      <trkpt lat="44.31288" lon="4.83905">
        <ele>111</ele>
        <time>2021-09-28T10:00:28+02:00</time>
      </trkpt>
      <trkpt lat="44.31296" lon="4.83896">
        <ele>111.40039</ele>
        <time>2021-09-28T10:00:33+02:00</time>
      </trkpt>
      <trkpt lat="44.31306" lon="4.83885">
        <ele>110.90039</ele>
        <time>2021-09-28T10:00:38+02:00</time>
      </trkpt>
      <trkpt lat="44.31319" lon="4.83874">
        <ele>110.299805</ele>
        <time>2021-09-28T10:00:43+02:00</time>
      </trkpt>
      <trkpt lat="44.31331" lon="4.83864">
        <ele>109.600586</ele>
        <time>2021-09-28T10:00:48+02:00</time>
      </trkpt>
      <trkpt lat="44.31345" lon="4.83854">
        <ele>109.200195</ele>
        <time>2021-09-28T10:00:53+02:00</time>
      </trkpt>
      <trkpt lat="44.31362" lon="4.83843">
        <ele>109.299805</ele>
        <time>2021-09-28T10:00:58+02:00</time>
      </trkpt>
      <trkpt lat="44.31376" lon="4.83835">
        <ele>109.40039</ele>
        <time>2021-09-28T10:01:03+02:00</time>
      </trkpt>
      <trkpt lat="44.31388" lon="4.83827">
        <ele>110.200195</ele>
        <time>2021-09-28T10:01:08+02:00</time>
      </trkpt>
      <trkpt lat="44.31396" lon="4.83814">
        <ele>111.600586</ele>
        <time>2021-09-28T10:01:13+02:00</time>
      </trkpt>
      <trkpt lat="44.31402" lon="4.838">
        <ele>113.90039</ele>
        <time>2021-09-28T10:01:18+02:00</time>
      </trkpt>
      <trkpt lat="44.31411" lon="4.83783">
        <ele>115.40039</ele>
        <time>2021-09-28T10:01:23+02:00</time>
      </trkpt>
      <trkpt lat="44.31427" lon="4.83778">
        <ele>114.299805</ele>
        <time>2021-09-28T10:01:28+02:00</time>
      </trkpt>
      <trkpt lat="44.31441" lon="4.8377">
        <ele>113.799805</ele>
        <time>2021-09-28T10:01:33+02:00</time>
      </trkpt>
      <trkpt lat="44.31449" lon="4.83773">
        <ele>113.299805</ele>
        <time>2021-09-28T10:01:38+02:00</time>
      </trkpt>
      <trkpt lat="44.31467" lon="4.83763">
        <ele>112.600586</ele>
        <time>2021-09-28T10:01:43+02:00</time>
      </trkpt>
      <trkpt lat="44.31487" lon="4.83766">
        <ele>111.90039</ele>
        <time>2021-09-28T10:01:48+02:00</time>
      </trkpt>
      <trkpt lat="44.31507" lon="4.83772">
        <ele>111.40039</ele>
        <time>2021-09-28T10:01:53+02:00</time>
      </trkpt>
      <trkpt lat="44.31525" lon="4.83774">
        <ele>111.5</ele>
        <time>2021-09-28T10:01:58+02:00</time>
      </trkpt>
      <trkpt lat="44.31543" lon="4.83776">
        <ele>111.799805</ele>
        <time>2021-09-28T10:02:03+02:00</time>
      </trkpt>
      <trkpt lat="44.31558" lon="4.83775">
        <ele>112.700195</ele>
        <time>2021-09-28T10:02:08+02:00</time>
      </trkpt>
      <trkpt lat="44.3157" lon="4.83775">
        <ele>113.799805</ele>
        <time>2021-09-28T10:02:13+02:00</time>
      </trkpt>
      <trkpt lat="44.31582" lon="4.83777">
        <ele>113.299805</ele>
        <time>2021-09-28T10:02:18+02:00</time>
      </trkpt>
      <trkpt lat="44.31594" lon="4.83776">
        <ele>115.799805</ele>
        <time>2021-09-28T10:02:23+02:00</time>
      </trkpt>
      <trkpt lat="44.3161" lon="4.83775">
        <ele>116.200195</ele>
        <time>2021-09-28T10:02:28+02:00</time>
      </trkpt>
      <trkpt lat="44.31627" lon="4.83776">
        <ele>112.90039</ele>
        <time>2021-09-28T10:02:33+02:00</time>
      </trkpt>
      <trkpt lat="44.31645" lon="4.83776">
        <ele>111.200195</ele>
        <time>2021-09-28T10:02:38+02:00</time>
      </trkpt>
      <trkpt lat="44.3166" lon="4.83774">
        <ele>112.799805</ele>
        <time>2021-09-28T10:02:43+02:00</time>
      </trkpt>
      <trkpt lat="44.31677" lon="4.83774">
        <ele>112.299805</ele>
        <time>2021-09-28T10:02:48+02:00</time>
      </trkpt>
      <trkpt lat="44.31695" lon="4.83774">
        <ele>111.90039</ele>
        <time>2021-09-28T10:02:53+02:00</time>
      </trkpt>
      <trkpt lat="44.31711" lon="4.83774">
        <ele>111.90039</ele>
        <time>2021-09-28T10:02:58+02:00</time>
      </trkpt>
      <trkpt lat="44.31727" lon="4.83774">
        <ele>111.700195</ele>
        <time>2021-09-28T10:03:03+02:00</time>
      </trkpt>
      <trkpt lat="44.31744" lon="4.83777">
        <ele>109.200195</ele>
        <time>2021-09-28T10:03:08+02:00</time>
      </trkpt>
      <trkpt lat="44.31762" lon="4.83782">
        <ele>109</ele>
        <time>2021-09-28T10:03:13+02:00</time>
      </trkpt>
      <trkpt lat="44.31779" lon="4.83783">
        <ele>109.200195</ele>
        <time>2021-09-28T10:03:18+02:00</time>
      </trkpt>
      <trkpt lat="44.31796" lon="4.83788">
        <ele>108.799805</ele>
        <time>2021-09-28T10:03:23+02:00</time>
      </trkpt>
      <trkpt lat="44.31813" lon="4.83792">
        <ele>110.100586</ele>
        <time>2021-09-28T10:03:28+02:00</time>
      </trkpt>
      <trkpt lat="44.3183" lon="4.83798">
        <ele>111.600586</ele>
        <time>2021-09-28T10:03:33+02:00</time>
      </trkpt>
      <trkpt lat="44.31849" lon="4.83802">
        <ele>113.100586</ele>
        <time>2021-09-28T10:03:38+02:00</time>
      </trkpt>
      <trkpt lat="44.31868" lon="4.83808">
        <ele>114.799805</ele>
        <time>2021-09-28T10:03:43+02:00</time>
      </trkpt>
      <trkpt lat="44.31889" lon="4.83813">
        <ele>115.90039</ele>
        <time>2021-09-28T10:03:48+02:00</time>
      </trkpt>
      <trkpt lat="44.31907" lon="4.8382">
        <ele>116.40039</ele>
        <time>2021-09-28T10:03:53+02:00</time>
      </trkpt>
      <trkpt lat="44.31923" lon="4.83827">
        <ele>117.100586</ele>
        <time>2021-09-28T10:03:58+02:00</time>
      </trkpt>
      <trkpt lat="44.31937" lon="4.8384">
        <ele>116.799805</ele>
        <time>2021-09-28T10:04:03+02:00</time>
      </trkpt>
      <trkpt lat="44.3195" lon="4.8386">
        <ele>115.700195</ele>
        <time>2021-09-28T10:04:08+02:00</time>
      </trkpt>
      <trkpt lat="44.31965" lon="4.83875">
        <ele>114.299805</ele>
        <time>2021-09-28T10:04:13+02:00</time>
      </trkpt>
      <trkpt lat="44.3198" lon="4.83887">
        <ele>113.600586</ele>
        <time>2021-09-28T10:04:18+02:00</time>
      </trkpt>
      <trkpt lat="44.31997" lon="4.839">
        <ele>112.90039</ele>
        <time>2021-09-28T10:04:23+02:00</time>
      </trkpt>
      <trkpt lat="44.32012" lon="4.8391">
        <ele>112.799805</ele>
        <time>2021-09-28T10:04:28+02:00</time>
      </trkpt>
      <trkpt lat="44.32025" lon="4.83905">
        <ele>113.100586</ele>
        <time>2021-09-28T10:04:33+02:00</time>
      </trkpt>
      <trkpt lat="44.32036" lon="4.83895">
        <ele>113.299805</ele>
        <time>2021-09-28T10:04:38+02:00</time>
      </trkpt>
      <trkpt lat="44.32048" lon="4.83886">
        <ele>113.200195</ele>
        <time>2021-09-28T10:04:43+02:00</time>
      </trkpt>
      <trkpt lat="44.32059" lon="4.83873">
        <ele>113.100586</ele>
        <time>2021-09-28T10:04:48+02:00</time>
      </trkpt>
      <trkpt lat="44.32067" lon="4.83857">
        <ele>112.700195</ele>
        <time>2021-09-28T10:04:53+02:00</time>
      </trkpt>
      <trkpt lat="44.32074" lon="4.83842">
        <ele>112.100586</ele>
        <time>2021-09-28T10:04:58+02:00</time>
      </trkpt>
      <trkpt lat="44.32077" lon="4.83828">
        <ele>111.90039</ele>
        <time>2021-09-28T10:05:03+02:00</time>
      </trkpt>
      <trkpt lat="44.32081" lon="4.83804">
        <ele>111.200195</ele>
        <time>2021-09-28T10:05:08+02:00</time>
      </trkpt>
      <trkpt lat="44.32085" lon="4.83778">
        <ele>110.40039</ele>
        <time>2021-09-28T10:05:13+02:00</time>
      </trkpt>
      <trkpt lat="44.3209" lon="4.83755">
        <ele>109.90039</ele>
        <time>2021-09-28T10:05:18+02:00</time>
      </trkpt>
      <trkpt lat="44.32093" lon="4.83733">
        <ele>109.100586</ele>
        <time>2021-09-28T10:05:23+02:00</time>
      </trkpt>
      <trkpt lat="44.32098" lon="4.83711">
        <ele>108.5</ele>
        <time>2021-09-28T10:05:28+02:00</time>
      </trkpt>
      <trkpt lat="44.32105" lon="4.83692">
        <ele>107.700195</ele>
        <time>2021-09-28T10:05:33+02:00</time>
      </trkpt>
      <trkpt lat="44.32109" lon="4.8367">
        <ele>106.799805</ele>
        <time>2021-09-28T10:05:38+02:00</time>
      </trkpt>
      <trkpt lat="44.32114" lon="4.83647">
        <ele>106.700195</ele>
        <time>2021-09-28T10:05:43+02:00</time>
      </trkpt>
      <trkpt lat="44.32118" lon="4.8362">
        <ele>106.799805</ele>
        <time>2021-09-28T10:05:48+02:00</time>
      </trkpt>
      <trkpt lat="44.32119" lon="4.83589">
        <ele>106.90039</ele>
        <time>2021-09-28T10:05:53+02:00</time>
      </trkpt>
      <trkpt lat="44.3212" lon="4.83554">
        <ele>106.600586</ele>
        <time>2021-09-28T10:05:58+02:00</time>
      </trkpt>
      <trkpt lat="44.32126" lon="4.83522">
        <ele>106</ele>
        <time>2021-09-28T10:06:03+02:00</time>
      </trkpt>
      <trkpt lat="44.32135" lon="4.83513">
        <ele>105.799805</ele>
        <time>2021-09-28T10:06:08+02:00</time>
      </trkpt>
      <trkpt lat="44.32143" lon="4.83522">
        <ele>106.100586</ele>
        <time>2021-09-28T10:06:13+02:00</time>
      </trkpt>
      <trkpt lat="44.32155" lon="4.83527">
        <ele>106.5</ele>
        <time>2021-09-28T10:06:18+02:00</time>
      </trkpt>
      <trkpt lat="44.32168" lon="4.83532">
        <ele>106.700195</ele>
        <time>2021-09-28T10:06:23+02:00</time>
      </trkpt>
      <trkpt lat="44.32178" lon="4.8354">
        <ele>107</ele>
        <time>2021-09-28T10:06:28+02:00</time>
      </trkpt>
      <trkpt lat="44.3219" lon="4.83547">
        <ele>107.299805</ele>
        <time>2021-09-28T10:06:33+02:00</time>
      </trkpt>
      <trkpt lat="44.32202" lon="4.83551">
        <ele>107.700195</ele>
        <time>2021-09-28T10:06:38+02:00</time>
      </trkpt>
      <trkpt lat="44.32216" lon="4.83559">
        <ele>108.100586</ele>
        <time>2021-09-28T10:06:43+02:00</time>
      </trkpt>
      <trkpt lat="44.3223" lon="4.83563">
        <ele>108.40039</ele>
        <time>2021-09-28T10:06:48+02:00</time>
      </trkpt>
      <trkpt lat="44.32244" lon="4.83563">
        <ele>109</ele>
        <time>2021-09-28T10:06:53+02:00</time>
      </trkpt>
      <trkpt lat="44.32254" lon="4.83569">
        <ele>109.200195</ele>
        <time>2021-09-28T10:06:58+02:00</time>
      </trkpt>
      <trkpt lat="44.32256" lon="4.83584">
        <ele>109.5</ele>
        <time>2021-09-28T10:07:03+02:00</time>
      </trkpt>
      <trkpt lat="44.32259" lon="4.83602">
        <ele>109.40039</ele>
        <time>2021-09-28T10:07:08+02:00</time>
      </trkpt>
      <trkpt lat="44.32265" lon="4.83621">
        <ele>109.40039</ele>
        <time>2021-09-28T10:07:13+02:00</time>
      </trkpt>
      <trkpt lat="44.32262" lon="4.83643">
        <ele>108.700195</ele>
        <time>2021-09-28T10:07:18+02:00</time>
      </trkpt>
      <trkpt lat="44.32257" lon="4.83663">
        <ele>108.5</ele>
        <time>2021-09-28T10:07:23+02:00</time>
      </trkpt>
      <trkpt lat="44.32252" lon="4.83682">
        <ele>108.200195</ele>
        <time>2021-09-28T10:07:28+02:00</time>
      </trkpt>
      <trkpt lat="44.32249" lon="4.83699">
        <ele>108.200195</ele>
        <time>2021-09-28T10:07:33+02:00</time>
      </trkpt>
      <trkpt lat="44.32247" lon="4.83716">
        <ele>108.700195</ele>
        <time>2021-09-28T10:07:38+02:00</time>
      </trkpt>
      <trkpt lat="44.32246" lon="4.83732">
        <ele>109</ele>
        <time>2021-09-28T10:07:43+02:00</time>
      </trkpt>
      <trkpt lat="44.32251" lon="4.83743">
        <ele>110.200195</ele>
        <time>2021-09-28T10:07:48+02:00</time>
      </trkpt>
      <trkpt lat="44.32259" lon="4.83754">
        <ele>111.100586</ele>
        <time>2021-09-28T10:07:53+02:00</time>
      </trkpt>
      <trkpt lat="44.32267" lon="4.83766">
        <ele>112.100586</ele>
        <time>2021-09-28T10:07:58+02:00</time>
      </trkpt>
      <trkpt lat="44.32275" lon="4.83779">
        <ele>114.100586</ele>
        <time>2021-09-28T10:08:03+02:00</time>
      </trkpt>
      <trkpt lat="44.32285" lon="4.83788">
        <ele>115.100586</ele>
        <time>2021-09-28T10:08:08+02:00</time>
      </trkpt>
      <trkpt lat="44.32295" lon="4.83797">
        <ele>116.5</ele>
        <time>2021-09-28T10:08:13+02:00</time>
      </trkpt>
      <trkpt lat="44.32304" lon="4.83804">
        <ele>117.299805</ele>
        <time>2021-09-28T10:08:18+02:00</time>
      </trkpt>
      <trkpt lat="44.32313" lon="4.8381">
        <ele>118.40039</ele>
        <time>2021-09-28T10:08:23+02:00</time>
      </trkpt>
      <trkpt lat="44.32323" lon="4.83818">
        <ele>119.100586</ele>
        <time>2021-09-28T10:08:28+02:00</time>
      </trkpt>
      <trkpt lat="44.32333" lon="4.83827">
        <ele>120.299805</ele>
        <time>2021-09-28T10:08:33+02:00</time>
      </trkpt>
      <trkpt lat="44.32342" lon="4.83837">
        <ele>121.299805</ele>
        <time>2021-09-28T10:08:38+02:00</time>
      </trkpt>
      <trkpt lat="44.32346" lon="4.83852">
        <ele>121.40039</ele>
        <time>2021-09-28T10:08:43+02:00</time>
      </trkpt>
      <trkpt lat="44.32344" lon="4.83867">
        <ele>121.5</ele>
        <time>2021-09-28T10:08:48+02:00</time>
      </trkpt>
      <trkpt lat="44.3234" lon="4.83884">
        <ele>121</ele>
        <time>2021-09-28T10:08:53+02:00</time>
      </trkpt>
      <trkpt lat="44.3234" lon="4.83904">
        <ele>120.600586</ele>
        <time>2021-09-28T10:08:58+02:00</time>
      </trkpt>
      <trkpt lat="44.32342" lon="4.83932">
        <ele>120.5</ele>
        <time>2021-09-28T10:09:03+02:00</time>
      </trkpt>
      <trkpt lat="44.32338" lon="4.83966">
        <ele>120.299805</ele>
        <time>2021-09-28T10:09:08+02:00</time>
      </trkpt>
      <trkpt lat="44.32332" lon="4.83992">
        <ele>120.200195</ele>
        <time>2021-09-28T10:09:13+02:00</time>
      </trkpt>
      <trkpt lat="44.32329" lon="4.84011">
        <ele>120.100586</ele>
        <time>2021-09-28T10:09:18+02:00</time>
      </trkpt>
      <trkpt lat="44.32324" lon="4.8403">
        <ele>120.100586</ele>
        <time>2021-09-28T10:09:23+02:00</time>
      </trkpt>
      <trkpt lat="44.32318" lon="4.84051">
        <ele>119.799805</ele>
        <time>2021-09-28T10:09:28+02:00</time>
      </trkpt>
      <trkpt lat="44.3231" lon="4.8407">
        <ele>119.100586</ele>
        <time>2021-09-28T10:09:33+02:00</time>
      </trkpt>
      <trkpt lat="44.32304" lon="4.8409">
        <ele>118.600586</ele>
        <time>2021-09-28T10:09:38+02:00</time>
      </trkpt>
      <trkpt lat="44.32294" lon="4.84104">
        <ele>117.700195</ele>
        <time>2021-09-28T10:09:43+02:00</time>
      </trkpt>
      <trkpt lat="44.32281" lon="4.84115">
        <ele>117</ele>
        <time>2021-09-28T10:09:48+02:00</time>
      </trkpt>
      <trkpt lat="44.32272" lon="4.84138">
        <ele>115.600586</ele>
        <time>2021-09-28T10:09:53+02:00</time>
      </trkpt>
      <trkpt lat="44.32268" lon="4.84169">
        <ele>114.40039</ele>
        <time>2021-09-28T10:09:58+02:00</time>
      </trkpt>
      <trkpt lat="44.32277" lon="4.84199">
        <ele>113.100586</ele>
        <time>2021-09-28T10:10:03+02:00</time>
      </trkpt>
      <trkpt lat="44.32274" lon="4.84231">
        <ele>112</ele>
        <time>2021-09-28T10:10:08+02:00</time>
      </trkpt>
      <trkpt lat="44.32267" lon="4.84266">
        <ele>111.200195</ele>
        <time>2021-09-28T10:10:13+02:00</time>
      </trkpt>
      <trkpt lat="44.32265" lon="4.84296">
        <ele>110.600586</ele>
        <time>2021-09-28T10:10:18+02:00</time>
      </trkpt>
      <trkpt lat="44.32267" lon="4.84313">
        <ele>110.100586</ele>
        <time>2021-09-28T10:10:23+02:00</time>
      </trkpt>
      <trkpt lat="44.32279" lon="4.84319">
        <ele>109.90039</ele>
        <time>2021-09-28T10:10:28+02:00</time>
      </trkpt>
      <trkpt lat="44.32292" lon="4.84325">
        <ele>109.90039</ele>
        <time>2021-09-28T10:10:33+02:00</time>
      </trkpt>
      <trkpt lat="44.32307" lon="4.8433">
        <ele>109.700195</ele>
        <time>2021-09-28T10:10:38+02:00</time>
      </trkpt>
      <trkpt lat="44.32321" lon="4.84336">
        <ele>109.700195</ele>
        <time>2021-09-28T10:10:43+02:00</time>
      </trkpt>
      <trkpt lat="44.32337" lon="4.84343">
        <ele>110.200195</ele>
        <time>2021-09-28T10:10:48+02:00</time>
      </trkpt>
      <trkpt lat="44.32352" lon="4.84348">
        <ele>110.40039</ele>
        <time>2021-09-28T10:10:53+02:00</time>
      </trkpt>
      <trkpt lat="44.32369" lon="4.84356">
        <ele>111</ele>
        <time>2021-09-28T10:10:58+02:00</time>
      </trkpt>
      <trkpt lat="44.32385" lon="4.84363">
        <ele>111.700195</ele>
        <time>2021-09-28T10:11:03+02:00</time>
      </trkpt>
      <trkpt lat="44.32401" lon="4.84371">
        <ele>112</ele>
        <time>2021-09-28T10:11:08+02:00</time>
      </trkpt>
      <trkpt lat="44.32418" lon="4.84378">
        <ele>112.5</ele>
        <time>2021-09-28T10:11:13+02:00</time>
      </trkpt>
      <trkpt lat="44.32434" lon="4.84385">
        <ele>113</ele>
        <time>2021-09-28T10:11:18+02:00</time>
      </trkpt>
      <trkpt lat="44.3245" lon="4.84393">
        <ele>113.200195</ele>
        <time>2021-09-28T10:11:23+02:00</time>
      </trkpt>
      <trkpt lat="44.32465" lon="4.84398">
        <ele>113.5</ele>
        <time>2021-09-28T10:11:28+02:00</time>
      </trkpt>
      <trkpt lat="44.32478" lon="4.84405">
        <ele>113.700195</ele>
        <time>2021-09-28T10:11:33+02:00</time>
      </trkpt>
      <trkpt lat="44.32492" lon="4.84413">
        <ele>113.799805</ele>
        <time>2021-09-28T10:11:38+02:00</time>
      </trkpt>
      <trkpt lat="44.32498" lon="4.84434">
        <ele>113.799805</ele>
        <time>2021-09-28T10:11:43+02:00</time>
      </trkpt>
      <trkpt lat="44.32491" lon="4.8446">
        <ele>113.600586</ele>
        <time>2021-09-28T10:11:48+02:00</time>
      </trkpt>
      <trkpt lat="44.32499" lon="4.84486">
        <ele>113.600586</ele>
        <time>2021-09-28T10:11:53+02:00</time>
      </trkpt>
      <trkpt lat="44.32516" lon="4.84497">
        <ele>113.700195</ele>
        <time>2021-09-28T10:11:58+02:00</time>
      </trkpt>
      <trkpt lat="44.32533" lon="4.84501">
        <ele>113.90039</ele>
        <time>2021-09-28T10:12:03+02:00</time>
      </trkpt>
      <trkpt lat="44.32551" lon="4.84508">
        <ele>114.100586</ele>
        <time>2021-09-28T10:12:08+02:00</time>
      </trkpt>
      <trkpt lat="44.32566" lon="4.84512">
        <ele>114.40039</ele>
        <time>2021-09-28T10:12:13+02:00</time>
      </trkpt>
      <trkpt lat="44.32583" lon="4.84517">
        <ele>114.700195</ele>
        <time>2021-09-28T10:12:18+02:00</time>
      </trkpt>
      <trkpt lat="44.326" lon="4.84522">
        <ele>115</ele>
        <time>2021-09-28T10:12:23+02:00</time>
      </trkpt>
      <trkpt lat="44.32617" lon="4.84526">
        <ele>115.100586</ele>
        <time>2021-09-28T10:12:28+02:00</time>
      </trkpt>
      <trkpt lat="44.32634" lon="4.84527">
        <ele>115</ele>
        <time>2021-09-28T10:12:33+02:00</time>
      </trkpt>
      <trkpt lat="44.32645" lon="4.84539">
        <ele>114.5</ele>
        <time>2021-09-28T10:12:38+02:00</time>
      </trkpt>
      <trkpt lat="44.3266" lon="4.84547">
        <ele>113.600586</ele>
        <time>2021-09-28T10:12:43+02:00</time>
      </trkpt>
      <trkpt lat="44.32679" lon="4.84535">
        <ele>112.90039</ele>
        <time>2021-09-28T10:12:48+02:00</time>
      </trkpt>
      <trkpt lat="44.32698" lon="4.84524">
        <ele>112</ele>
        <time>2021-09-28T10:12:53+02:00</time>
      </trkpt>
      <trkpt lat="44.32719" lon="4.84512">
        <ele>112.100586</ele>
        <time>2021-09-28T10:12:58+02:00</time>
      </trkpt>
      <trkpt lat="44.32737" lon="4.84498">
        <ele>111.799805</ele>
        <time>2021-09-28T10:13:03+02:00</time>
      </trkpt>
      <trkpt lat="44.32758" lon="4.84497">
        <ele>111.5</ele>
        <time>2021-09-28T10:13:08+02:00</time>
      </trkpt>
      <trkpt lat="44.32773" lon="4.84491">
        <ele>111.299805</ele>
        <time>2021-09-28T10:13:13+02:00</time>
      </trkpt>
      <trkpt lat="44.32788" lon="4.84488">
        <ele>111.700195</ele>
        <time>2021-09-28T10:13:18+02:00</time>
      </trkpt>
      <trkpt lat="44.32806" lon="4.84486">
        <ele>111.90039</ele>
        <time>2021-09-28T10:13:23+02:00</time>
      </trkpt>
      <trkpt lat="44.32823" lon="4.84479">
        <ele>112.299805</ele>
        <time>2021-09-28T10:13:28+02:00</time>
      </trkpt>
      <trkpt lat="44.32838" lon="4.84468">
        <ele>112.5</ele>
        <time>2021-09-28T10:13:33+02:00</time>
      </trkpt>
      <trkpt lat="44.32841" lon="4.84449">
        <ele>112.799805</ele>
        <time>2021-09-28T10:13:38+02:00</time>
      </trkpt>
      <trkpt lat="44.32844" lon="4.8443">
        <ele>113</ele>
        <time>2021-09-28T10:13:43+02:00</time>
      </trkpt>
      <trkpt lat="44.32854" lon="4.84416">
        <ele>113</ele>
        <time>2021-09-28T10:13:48+02:00</time>
      </trkpt>
      <trkpt lat="44.32866" lon="4.84403">
        <ele>112.90039</ele>
        <time>2021-09-28T10:13:53+02:00</time>
      </trkpt>
      <trkpt lat="44.32883" lon="4.84392">
        <ele>112.799805</ele>
        <time>2021-09-28T10:13:58+02:00</time>
      </trkpt>
      <trkpt lat="44.32901" lon="4.84381">
        <ele>112.799805</ele>
        <time>2021-09-28T10:14:03+02:00</time>
      </trkpt>
      <trkpt lat="44.32918" lon="4.84369">
        <ele>112.90039</ele>
        <time>2021-09-28T10:14:08+02:00</time>
      </trkpt>
      <trkpt lat="44.32931" lon="4.84355">
        <ele>113.200195</ele>
        <time>2021-09-28T10:14:13+02:00</time>
      </trkpt>
      <trkpt lat="44.32944" lon="4.84342">
        <ele>113.600586</ele>
        <time>2021-09-28T10:14:18+02:00</time>
      </trkpt>
      <trkpt lat="44.32958" lon="4.84329">
        <ele>113.799805</ele>
        <time>2021-09-28T10:14:23+02:00</time>
      </trkpt>
      <trkpt lat="44.32971" lon="4.84321">
        <ele>114</ele>
        <time>2021-09-28T10:14:28+02:00</time>
      </trkpt>
      <trkpt lat="44.32983" lon="4.84315">
        <ele>114.299805</ele>
        <time>2021-09-28T10:14:33+02:00</time>
      </trkpt>
      <trkpt lat="44.32994" lon="4.84321">
        <ele>114.5</ele>
        <time>2021-09-28T10:14:38+02:00</time>
      </trkpt>
      <trkpt lat="44.33006" lon="4.84324">
        <ele>114.799805</ele>
        <time>2021-09-28T10:14:43+02:00</time>
      </trkpt>
      <trkpt lat="44.33017" lon="4.84323">
        <ele>115.200195</ele>
        <time>2021-09-28T10:14:48+02:00</time>
      </trkpt>
      <trkpt lat="44.33029" lon="4.84322">
        <ele>115.5</ele>
        <time>2021-09-28T10:14:53+02:00</time>
      </trkpt>
      <trkpt lat="44.33039" lon="4.84325">
        <ele>115.799805</ele>
        <time>2021-09-28T10:14:58+02:00</time>
      </trkpt>
      <trkpt lat="44.33048" lon="4.84328">
        <ele>116</ele>
        <time>2021-09-28T10:15:03+02:00</time>
      </trkpt>
      <trkpt lat="44.3306" lon="4.84328">
        <ele>116.299805</ele>
        <time>2021-09-28T10:15:08+02:00</time>
      </trkpt>
      <trkpt lat="44.33074" lon="4.84328">
        <ele>116.600586</ele>
        <time>2021-09-28T10:15:13+02:00</time>
      </trkpt>
      <trkpt lat="44.33086" lon="4.84328">
        <ele>116.90039</ele>
        <time>2021-09-28T10:15:18+02:00</time>
      </trkpt>
      <trkpt lat="44.33099" lon="4.84326">
        <ele>117.299805</ele>
        <time>2021-09-28T10:15:23+02:00</time>
      </trkpt>
      <trkpt lat="44.33113" lon="4.84321">
        <ele>117.5</ele>
        <time>2021-09-28T10:15:28+02:00</time>
      </trkpt>
      <trkpt lat="44.33126" lon="4.84319">
        <ele>117.90039</ele>
        <time>2021-09-28T10:15:33+02:00</time>
      </trkpt>
      <trkpt lat="44.3314" lon="4.84317">
        <ele>118.40039</ele>
        <time>2021-09-28T10:15:38+02:00</time>
      </trkpt>
      <trkpt lat="44.33153" lon="4.84314">
        <ele>119.299805</ele>
        <time>2021-09-28T10:15:43+02:00</time>
      </trkpt>
      <trkpt lat="44.33167" lon="4.84311">
        <ele>120</ele>
        <time>2021-09-28T10:15:48+02:00</time>
      </trkpt>
      <trkpt lat="44.33181" lon="4.84308">
        <ele>120.90039</ele>
        <time>2021-09-28T10:15:53+02:00</time>
      </trkpt>
      <trkpt lat="44.33195" lon="4.84303">
        <ele>121.700195</ele>
        <time>2021-09-28T10:15:58+02:00</time>
      </trkpt>
      <trkpt lat="44.33209" lon="4.84296">
        <ele>122.90039</ele>
        <time>2021-09-28T10:16:03+02:00</time>
      </trkpt>
      <trkpt lat="44.33223" lon="4.84293">
        <ele>123.5</ele>
        <time>2021-09-28T10:16:08+02:00</time>
      </trkpt>
      <trkpt lat="44.33238" lon="4.8429">
        <ele>124.100586</ele>
        <time>2021-09-28T10:16:13+02:00</time>
      </trkpt>
      <trkpt lat="44.33252" lon="4.84288">
        <ele>125.100586</ele>
        <time>2021-09-28T10:16:18+02:00</time>
      </trkpt>
      <trkpt lat="44.33266" lon="4.84285">
        <ele>125.90039</ele>
        <time>2021-09-28T10:16:23+02:00</time>
      </trkpt>
      <trkpt lat="44.33278" lon="4.84284">
        <ele>126.90039</ele>
        <time>2021-09-28T10:16:28+02:00</time>
      </trkpt>
      <trkpt lat="44.33289" lon="4.84284">
        <ele>127.90039</ele>
        <time>2021-09-28T10:16:33+02:00</time>
      </trkpt>
      <trkpt lat="44.33298" lon="4.8429">
        <ele>128.40039</ele>
        <time>2021-09-28T10:16:38+02:00</time>
      </trkpt>
      <trkpt lat="44.3331" lon="4.84299">
        <ele>129.5</ele>
        <time>2021-09-28T10:16:43+02:00</time>
      </trkpt>
      <trkpt lat="44.33323" lon="4.84306">
        <ele>130.2002</ele>
        <time>2021-09-28T10:16:48+02:00</time>
      </trkpt>
      <trkpt lat="44.33335" lon="4.84309">
        <ele>130.60059</ele>
        <time>2021-09-28T10:16:53+02:00</time>
      </trkpt>
      <trkpt lat="44.33348" lon="4.84314">
        <ele>131</ele>
        <time>2021-09-28T10:16:58+02:00</time>
      </trkpt>
      <trkpt lat="44.33361" lon="4.84321">
        <ele>131.40039</ele>
        <time>2021-09-28T10:17:03+02:00</time>
      </trkpt>
      <trkpt lat="44.33364" lon="4.8434">
        <ele>131.90039</ele>
        <time>2021-09-28T10:17:08+02:00</time>
      </trkpt>
      <trkpt lat="44.33363" lon="4.84362">
        <ele>132.2998</ele>
        <time>2021-09-28T10:17:13+02:00</time>
      </trkpt>
      <trkpt lat="44.33361" lon="4.84384">
        <ele>132.40039</ele>
        <time>2021-09-28T10:17:18+02:00</time>
      </trkpt>
      <trkpt lat="44.33363" lon="4.84405">
        <ele>133.2002</ele>
        <time>2021-09-28T10:17:23+02:00</time>
      </trkpt>
      <trkpt lat="44.33367" lon="4.84423">
        <ele>133.7002</ele>
        <time>2021-09-28T10:17:28+02:00</time>
      </trkpt>
      <trkpt lat="44.33377" lon="4.84439">
        <ele>134.2998</ele>
        <time>2021-09-28T10:17:33+02:00</time>
      </trkpt>
      <trkpt lat="44.33385" lon="4.84453">
        <ele>134.7998</ele>
        <time>2021-09-28T10:17:38+02:00</time>
      </trkpt>
      <trkpt lat="44.33393" lon="4.84461">
        <ele>135.7002</ele>
        <time>2021-09-28T10:17:43+02:00</time>
      </trkpt>
      <trkpt lat="44.33402" lon="4.84468">
        <ele>136.2998</ele>
        <time>2021-09-28T10:17:48+02:00</time>
      </trkpt>
      <trkpt lat="44.33412" lon="4.84474">
        <ele>137.10059</ele>
        <time>2021-09-28T10:17:53+02:00</time>
      </trkpt>
      <trkpt lat="44.33422" lon="4.84479">
        <ele>137.40039</ele>
        <time>2021-09-28T10:17:58+02:00</time>
      </trkpt>
      <trkpt lat="44.33432" lon="4.84486">
        <ele>138.10059</ele>
        <time>2021-09-28T10:18:03+02:00</time>
      </trkpt>
      <trkpt lat="44.33441" lon="4.84493">
        <ele>138.7998</ele>
        <time>2021-09-28T10:18:08+02:00</time>
      </trkpt>
      <trkpt lat="44.3345" lon="4.84494">
        <ele>139.2002</ele>
        <time>2021-09-28T10:18:13+02:00</time>
      </trkpt>
      <trkpt lat="44.33459" lon="4.84487">
        <ele>139.5</ele>
        <time>2021-09-28T10:18:18+02:00</time>
      </trkpt>
      <trkpt lat="44.33471" lon="4.84482">
        <ele>140.2002</ele>
        <time>2021-09-28T10:18:23+02:00</time>
      </trkpt>
      <trkpt lat="44.33481" lon="4.84479">
        <ele>140.90039</ele>
        <time>2021-09-28T10:18:28+02:00</time>
      </trkpt>
      <trkpt lat="44.33486" lon="4.84476">
        <ele>141.2998</ele>
        <time>2021-09-28T10:18:33+02:00</time>
      </trkpt>
      <trkpt lat="44.33484" lon="4.84465">
        <ele>141.2998</ele>
        <time>2021-09-28T10:18:38+02:00</time>
      </trkpt>
      <trkpt lat="44.33482" lon="4.84448">
        <ele>140.90039</ele>
        <time>2021-09-28T10:18:43+02:00</time>
      </trkpt>
      <trkpt lat="44.33478" lon="4.84429">
        <ele>140.7998</ele>
        <time>2021-09-28T10:18:48+02:00</time>
      </trkpt>
      <trkpt lat="44.33473" lon="4.8441">
        <ele>139.90039</ele>
        <time>2021-09-28T10:18:53+02:00</time>
      </trkpt>
      <trkpt lat="44.33469" lon="4.84391">
        <ele>139</ele>
        <time>2021-09-28T10:18:58+02:00</time>
      </trkpt>
      <trkpt lat="44.33472" lon="4.84368">
        <ele>139.2002</ele>
        <time>2021-09-28T10:19:03+02:00</time>
      </trkpt>
      <trkpt lat="44.33474" lon="4.84341">
        <ele>138.7002</ele>
        <time>2021-09-28T10:19:08+02:00</time>
      </trkpt>
      <trkpt lat="44.33474" lon="4.84315">
        <ele>138</ele>
        <time>2021-09-28T10:19:13+02:00</time>
      </trkpt>
      <trkpt lat="44.33477" lon="4.84293">
        <ele>137.40039</ele>
        <time>2021-09-28T10:19:18+02:00</time>
      </trkpt>
      <trkpt lat="44.33481" lon="4.84274">
        <ele>137.2998</ele>
        <time>2021-09-28T10:19:23+02:00</time>
      </trkpt>
      <trkpt lat="44.33481" lon="4.84255">
        <ele>136.90039</ele>
        <time>2021-09-28T10:19:28+02:00</time>
      </trkpt>
      <trkpt lat="44.33482" lon="4.84242">
        <ele>136.7998</ele>
        <time>2021-09-28T10:19:33+02:00</time>
      </trkpt>
      <trkpt lat="44.33477" lon="4.84224">
        <ele>136</ele>
        <time>2021-09-28T10:19:38+02:00</time>
      </trkpt>
      <trkpt lat="44.33469" lon="4.84213">
        <ele>135.60059</ele>
        <time>2021-09-28T10:19:43+02:00</time>
      </trkpt>
      <trkpt lat="44.33458" lon="4.84197">
        <ele>134.7998</ele>
        <time>2021-09-28T10:19:48+02:00</time>
      </trkpt>
      <trkpt lat="44.33443" lon="4.84175">
        <ele>135.2002</ele>
        <time>2021-09-28T10:19:53+02:00</time>
      </trkpt>
      <trkpt lat="44.33431" lon="4.84151">
        <ele>136.2002</ele>
        <time>2021-09-28T10:19:58+02:00</time>
      </trkpt>
      <trkpt lat="44.33421" lon="4.84128">
        <ele>137.10059</ele>
        <time>2021-09-28T10:20:03+02:00</time>
      </trkpt>
      <trkpt lat="44.33411" lon="4.84105">
        <ele>137.2998</ele>
        <time>2021-09-28T10:20:08+02:00</time>
      </trkpt>
      <trkpt lat="44.33397" lon="4.8409">
        <ele>136.40039</ele>
        <time>2021-09-28T10:20:13+02:00</time>
      </trkpt>
      <trkpt lat="44.3338" lon="4.84088">
        <ele>135.5</ele>
        <time>2021-09-28T10:20:18+02:00</time>
      </trkpt>
      <trkpt lat="44.3336" lon="4.84083">
        <ele>134.10059</ele>
        <time>2021-09-28T10:20:23+02:00</time>
      </trkpt>
      <trkpt lat="44.33342" lon="4.84079">
        <ele>132.7998</ele>
        <time>2021-09-28T10:20:28+02:00</time>
      </trkpt>
      <trkpt lat="44.33339" lon="4.84061">
        <ele>133.2998</ele>
        <time>2021-09-28T10:20:33+02:00</time>
      </trkpt>
      <trkpt lat="44.33343" lon="4.8404">
        <ele>133.7002</ele>
        <time>2021-09-28T10:20:38+02:00</time>
      </trkpt>
      <trkpt lat="44.33346" lon="4.84018">
        <ele>134.10059</ele>
        <time>2021-09-28T10:20:43+02:00</time>
      </trkpt>
      <trkpt lat="44.33353" lon="4.83998">
        <ele>134.60059</ele>
        <time>2021-09-28T10:20:48+02:00</time>
      </trkpt>
      <trkpt lat="44.33363" lon="4.83981">
        <ele>135.5</ele>
        <time>2021-09-28T10:20:53+02:00</time>
      </trkpt>
      <trkpt lat="44.33373" lon="4.83964">
        <ele>136.2002</ele>
        <time>2021-09-28T10:20:58+02:00</time>
      </trkpt>
      <trkpt lat="44.33381" lon="4.83946">
        <ele>137.5</ele>
        <time>2021-09-28T10:21:03+02:00</time>
      </trkpt>
      <trkpt lat="44.33387" lon="4.83926">
        <ele>138.2002</ele>
        <time>2021-09-28T10:21:08+02:00</time>
      </trkpt>
      <trkpt lat="44.33393" lon="4.83904">
        <ele>138.90039</ele>
        <time>2021-09-28T10:21:13+02:00</time>
      </trkpt>
      <trkpt lat="44.33403" lon="4.83883">
        <ele>139.2998</ele>
        <time>2021-09-28T10:21:18+02:00</time>
      </trkpt>
      <trkpt lat="44.33406" lon="4.83862">
        <ele>139.5</ele>
        <time>2021-09-28T10:21:23+02:00</time>
      </trkpt>
      <trkpt lat="44.33406" lon="4.83839">
        <ele>139.5</ele>
        <time>2021-09-28T10:21:28+02:00</time>
      </trkpt>
      <trkpt lat="44.3341" lon="4.83819">
        <ele>139.5</ele>
        <time>2021-09-28T10:21:33+02:00</time>
      </trkpt>
      <trkpt lat="44.33415" lon="4.83804">
        <ele>139.7002</ele>
        <time>2021-09-28T10:21:38+02:00</time>
      </trkpt>
      <trkpt lat="44.33428" lon="4.838">
        <ele>139.7998</ele>
        <time>2021-09-28T10:21:43+02:00</time>
      </trkpt>
      <trkpt lat="44.33443" lon="4.83799">
        <ele>140</ele>
        <time>2021-09-28T10:21:48+02:00</time>
      </trkpt>
      <trkpt lat="44.33459" lon="4.83796">
        <ele>140.10059</ele>
        <time>2021-09-28T10:21:53+02:00</time>
      </trkpt>
      <trkpt lat="44.33476" lon="4.83794">
        <ele>140.2002</ele>
        <time>2021-09-28T10:21:58+02:00</time>
      </trkpt>
      <trkpt lat="44.33492" lon="4.8379">
        <ele>139.7998</ele>
        <time>2021-09-28T10:22:03+02:00</time>
      </trkpt>
      <trkpt lat="44.3351" lon="4.83786">
        <ele>138.5</ele>
        <time>2021-09-28T10:22:08+02:00</time>
      </trkpt>
      <trkpt lat="44.33532" lon="4.83783">
        <ele>136.40039</ele>
        <time>2021-09-28T10:22:13+02:00</time>
      </trkpt>
      <trkpt lat="44.33553" lon="4.83776">
        <ele>134.10059</ele>
        <time>2021-09-28T10:22:18+02:00</time>
      </trkpt>
      <trkpt lat="44.33573" lon="4.83768">
        <ele>131.7002</ele>
        <time>2021-09-28T10:22:23+02:00</time>
      </trkpt>
      <trkpt lat="44.33591" lon="4.83758">
        <ele>129.7998</ele>
        <time>2021-09-28T10:22:28+02:00</time>
      </trkpt>
      <trkpt lat="44.33612" lon="4.83744">
        <ele>128.40039</ele>
        <time>2021-09-28T10:22:33+02:00</time>
      </trkpt>
      <trkpt lat="44.33629" lon="4.83735">
        <ele>127.600586</ele>
        <time>2021-09-28T10:22:38+02:00</time>
      </trkpt>
      <trkpt lat="44.3364" lon="4.83727">
        <ele>127.40039</ele>
        <time>2021-09-28T10:22:43+02:00</time>
      </trkpt>
      <trkpt lat="44.33655" lon="4.83729">
        <ele>127.5</ele>
        <time>2021-09-28T10:22:48+02:00</time>
      </trkpt>
      <trkpt lat="44.33677" lon="4.83725">
        <ele>127.5</ele>
        <time>2021-09-28T10:22:53+02:00</time>
      </trkpt>
      <trkpt lat="44.337" lon="4.83718">
        <ele>127.5</ele>
        <time>2021-09-28T10:22:58+02:00</time>
      </trkpt>
      <trkpt lat="44.33721" lon="4.83712">
        <ele>127.299805</ele>
        <time>2021-09-28T10:23:03+02:00</time>
      </trkpt>
      <trkpt lat="44.33739" lon="4.83707">
        <ele>127.100586</ele>
        <time>2021-09-28T10:23:08+02:00</time>
      </trkpt>
      <trkpt lat="44.33756" lon="4.83701">
        <ele>127.299805</ele>
        <time>2021-09-28T10:23:13+02:00</time>
      </trkpt>
      <trkpt lat="44.33774" lon="4.83694">
        <ele>128.10059</ele>
        <time>2021-09-28T10:23:18+02:00</time>
      </trkpt>
      <trkpt lat="44.33794" lon="4.83689">
        <ele>129.2002</ele>
        <time>2021-09-28T10:23:23+02:00</time>
      </trkpt>
      <trkpt lat="44.33815" lon="4.83686">
        <ele>130.7002</ele>
        <time>2021-09-28T10:23:28+02:00</time>
      </trkpt>
      <trkpt lat="44.33838" lon="4.83683">
        <ele>132.5</ele>
        <time>2021-09-28T10:23:33+02:00</time>
      </trkpt>
      <trkpt lat="44.3386" lon="4.8368">
        <ele>132.7002</ele>
        <time>2021-09-28T10:23:38+02:00</time>
      </trkpt>
      <trkpt lat="44.3388" lon="4.8368">
        <ele>132.7998</ele>
        <time>2021-09-28T10:23:43+02:00</time>
      </trkpt>
      <trkpt lat="44.33902" lon="4.8368">
        <ele>131.7002</ele>
        <time>2021-09-28T10:23:48+02:00</time>
      </trkpt>
      <trkpt lat="44.33923" lon="4.83682">
        <ele>129.5</ele>
        <time>2021-09-28T10:23:53+02:00</time>
      </trkpt>
      <trkpt lat="44.33946" lon="4.83679">
        <ele>126.200195</ele>
        <time>2021-09-28T10:23:58+02:00</time>
      </trkpt>
      <trkpt lat="44.33967" lon="4.83677">
        <ele>124.100586</ele>
        <time>2021-09-28T10:24:03+02:00</time>
      </trkpt>
      <trkpt lat="44.33985" lon="4.83675">
        <ele>123.100586</ele>
        <time>2021-09-28T10:24:08+02:00</time>
      </trkpt>
      <trkpt lat="44.34002" lon="4.83674">
        <ele>122.600586</ele>
        <time>2021-09-28T10:24:13+02:00</time>
      </trkpt>
      <trkpt lat="44.34015" lon="4.83674">
        <ele>122.200195</ele>
        <time>2021-09-28T10:24:18+02:00</time>
      </trkpt>
      <trkpt lat="44.34026" lon="4.83672">
        <ele>121.799805</ele>
        <time>2021-09-28T10:24:23+02:00</time>
      </trkpt>
      <trkpt lat="44.3404" lon="4.83674">
        <ele>121.600586</ele>
        <time>2021-09-28T10:24:28+02:00</time>
      </trkpt>
      <trkpt lat="44.34058" lon="4.83674">
        <ele>121.299805</ele>
        <time>2021-09-28T10:24:33+02:00</time>
      </trkpt>
      <trkpt lat="44.34077" lon="4.83674">
        <ele>121.200195</ele>
        <time>2021-09-28T10:24:38+02:00</time>
      </trkpt>
      <trkpt lat="44.34094" lon="4.83675">
        <ele>121.799805</ele>
        <time>2021-09-28T10:24:43+02:00</time>
      </trkpt>
      <trkpt lat="44.34109" lon="4.83677">
        <ele>122.299805</ele>
        <time>2021-09-28T10:24:48+02:00</time>
      </trkpt>
      <trkpt lat="44.34115" lon="4.83679">
        <ele>122.600586</ele>
        <time>2021-09-28T10:24:53+02:00</time>
      </trkpt>
      <trkpt lat="44.34115" lon="4.83679">
        <ele>122.600586</ele>
        <time>2021-09-28T10:24:58+02:00</time>
      </trkpt>
      <trkpt lat="44.34126" lon="4.83679">
        <ele>123</ele>
        <time>2021-09-28T10:25:03+02:00</time>
      </trkpt>
      <trkpt lat="44.34142" lon="4.83679">
        <ele>123.799805</ele>
        <time>2021-09-28T10:25:08+02:00</time>
      </trkpt>
      <trkpt lat="44.34158" lon="4.83682">
        <ele>124.299805</ele>
        <time>2021-09-28T10:25:13+02:00</time>
      </trkpt>
      <trkpt lat="44.34175" lon="4.83683">
        <ele>124.90039</ele>
        <time>2021-09-28T10:25:18+02:00</time>
      </trkpt>
      <trkpt lat="44.34191" lon="4.83684">
        <ele>125.200195</ele>
        <time>2021-09-28T10:25:23+02:00</time>
      </trkpt>
      <trkpt lat="44.34207" lon="4.83685">
        <ele>125.299805</ele>
        <time>2021-09-28T10:25:28+02:00</time>
      </trkpt>
      <trkpt lat="44.34223" lon="4.83687">
        <ele>125.299805</ele>
        <time>2021-09-28T10:25:33+02:00</time>
      </trkpt>
      <trkpt lat="44.34236" lon="4.83693">
        <ele>125.200195</ele>
        <time>2021-09-28T10:25:38+02:00</time>
      </trkpt>
      <trkpt lat="44.34248" lon="4.83696">
        <ele>125.100586</ele>
        <time>2021-09-28T10:25:43+02:00</time>
      </trkpt>
      <trkpt lat="44.34261" lon="4.83697">
        <ele>124.700195</ele>
        <time>2021-09-28T10:25:48+02:00</time>
      </trkpt>
      <trkpt lat="44.34275" lon="4.83703">
        <ele>124.299805</ele>
        <time>2021-09-28T10:25:53+02:00</time>
      </trkpt>
      <trkpt lat="44.34278" lon="4.83727">
        <ele>124.299805</ele>
        <time>2021-09-28T10:25:58+02:00</time>
      </trkpt>
      <trkpt lat="44.34281" lon="4.83752">
        <ele>124.600586</ele>
        <time>2021-09-28T10:26:03+02:00</time>
      </trkpt>
      <trkpt lat="44.34283" lon="4.83777">
        <ele>124.799805</ele>
        <time>2021-09-28T10:26:08+02:00</time>
      </trkpt>
      <trkpt lat="44.34274" lon="4.83797">
        <ele>125.100586</ele>
        <time>2021-09-28T10:26:13+02:00</time>
      </trkpt>
      <trkpt lat="44.34269" lon="4.83816">
        <ele>125.200195</ele>
        <time>2021-09-28T10:26:18+02:00</time>
      </trkpt>
      <trkpt lat="44.34281" lon="4.83828">
        <ele>125.100586</ele>
        <time>2021-09-28T10:26:23+02:00</time>
      </trkpt>
      <trkpt lat="44.34294" lon="4.83844">
        <ele>125</ele>
        <time>2021-09-28T10:26:28+02:00</time>
      </trkpt>
      <trkpt lat="44.34308" lon="4.83861">
        <ele>124.90039</ele>
        <time>2021-09-28T10:26:33+02:00</time>
      </trkpt>
      <trkpt lat="44.34316" lon="4.83876">
        <ele>124.600586</ele>
        <time>2021-09-28T10:26:38+02:00</time>
      </trkpt>
      <trkpt lat="44.34331" lon="4.83883">
        <ele>124.700195</ele>
        <time>2021-09-28T10:26:43+02:00</time>
      </trkpt>
      <trkpt lat="44.3435" lon="4.83886">
        <ele>124.90039</ele>
        <time>2021-09-28T10:26:48+02:00</time>
      </trkpt>
      <trkpt lat="44.34367" lon="4.83889">
        <ele>125</ele>
        <time>2021-09-28T10:26:53+02:00</time>
      </trkpt>
      <trkpt lat="44.34386" lon="4.83892">
        <ele>125.100586</ele>
        <time>2021-09-28T10:26:58+02:00</time>
      </trkpt>
      <trkpt lat="44.34404" lon="4.83895">
        <ele>125.200195</ele>
        <time>2021-09-28T10:27:03+02:00</time>
      </trkpt>
      <trkpt lat="44.34423" lon="4.83898">
        <ele>125</ele>
        <time>2021-09-28T10:27:08+02:00</time>
      </trkpt>
      <trkpt lat="44.34442" lon="4.83902">
        <ele>124.700195</ele>
        <time>2021-09-28T10:27:13+02:00</time>
      </trkpt>
      <trkpt lat="44.3446" lon="4.83906">
        <ele>124.700195</ele>
        <time>2021-09-28T10:27:18+02:00</time>
      </trkpt>
      <trkpt lat="44.34478" lon="4.8391">
        <ele>124.700195</ele>
        <time>2021-09-28T10:27:23+02:00</time>
      </trkpt>
      <trkpt lat="44.34496" lon="4.83915">
        <ele>125.100586</ele>
        <time>2021-09-28T10:27:28+02:00</time>
      </trkpt>
      <trkpt lat="44.34514" lon="4.83923">
        <ele>125.5</ele>
        <time>2021-09-28T10:27:33+02:00</time>
      </trkpt>
      <trkpt lat="44.34528" lon="4.83934">
        <ele>125.700195</ele>
        <time>2021-09-28T10:27:38+02:00</time>
      </trkpt>
      <trkpt lat="44.34543" lon="4.8395">
        <ele>125.5</ele>
        <time>2021-09-28T10:27:43+02:00</time>
      </trkpt>
      <trkpt lat="44.34556" lon="4.83969">
        <ele>125.5</ele>
        <time>2021-09-28T10:27:48+02:00</time>
      </trkpt>
      <trkpt lat="44.34571" lon="4.83982">
        <ele>125.700195</ele>
        <time>2021-09-28T10:27:53+02:00</time>
      </trkpt>
      <trkpt lat="44.34582" lon="4.83994">
        <ele>126.100586</ele>
        <time>2021-09-28T10:27:58+02:00</time>
      </trkpt>
      <trkpt lat="44.34597" lon="4.84005">
        <ele>126.200195</ele>
        <time>2021-09-28T10:28:03+02:00</time>
      </trkpt>
      <trkpt lat="44.34608" lon="4.84016">
        <ele>126.200195</ele>
        <time>2021-09-28T10:28:08+02:00</time>
      </trkpt>
      <trkpt lat="44.34617" lon="4.84022">
        <ele>126.5</ele>
        <time>2021-09-28T10:28:13+02:00</time>
      </trkpt>
      <trkpt lat="44.34633" lon="4.84003">
        <ele>125.100586</ele>
        <time>2021-09-28T10:28:18+02:00</time>
      </trkpt>
      <trkpt lat="44.34655" lon="4.83971">
        <ele>122.200195</ele>
        <time>2021-09-28T10:28:23+02:00</time>
      </trkpt>
      <trkpt lat="44.34679" lon="4.83933">
        <ele>118.799805</ele>
        <time>2021-09-28T10:28:28+02:00</time>
      </trkpt>
      <trkpt lat="44.347" lon="4.83897">
        <ele>116.90039</ele>
        <time>2021-09-28T10:28:33+02:00</time>
      </trkpt>
      <trkpt lat="44.3472" lon="4.83864">
        <ele>116.90039</ele>
        <time>2021-09-28T10:28:38+02:00</time>
      </trkpt>
      <trkpt lat="44.3474" lon="4.83845">
        <ele>117.100586</ele>
        <time>2021-09-28T10:28:43+02:00</time>
      </trkpt>
      <trkpt lat="44.34754" lon="4.83834">
        <ele>117.200195</ele>
        <time>2021-09-28T10:28:48+02:00</time>
      </trkpt>
      <trkpt lat="44.34767" lon="4.83823">
        <ele>117.299805</ele>
        <time>2021-09-28T10:28:53+02:00</time>
      </trkpt>
      <trkpt lat="44.3478" lon="4.8381">
        <ele>117.299805</ele>
        <time>2021-09-28T10:28:58+02:00</time>
      </trkpt>
      <trkpt lat="44.34798" lon="4.83795">
        <ele>117.40039</ele>
        <time>2021-09-28T10:29:03+02:00</time>
      </trkpt>
      <trkpt lat="44.34815" lon="4.83777">
        <ele>117.299805</ele>
        <time>2021-09-28T10:29:08+02:00</time>
      </trkpt>
      <trkpt lat="44.34834" lon="4.83767">
        <ele>117.299805</ele>
        <time>2021-09-28T10:29:13+02:00</time>
      </trkpt>
      <trkpt lat="44.34854" lon="4.83762">
        <ele>117.5</ele>
        <time>2021-09-28T10:29:18+02:00</time>
      </trkpt>
      <trkpt lat="44.34873" lon="4.83758">
        <ele>117.799805</ele>
        <time>2021-09-28T10:29:23+02:00</time>
      </trkpt>
      <trkpt lat="44.34891" lon="4.83755">
        <ele>118.40039</ele>
        <time>2021-09-28T10:29:28+02:00</time>
      </trkpt>
      <trkpt lat="44.3491" lon="4.83759">
        <ele>119.299805</ele>
        <time>2021-09-28T10:29:33+02:00</time>
      </trkpt>
      <trkpt lat="44.34931" lon="4.83766">
        <ele>120.100586</ele>
        <time>2021-09-28T10:29:38+02:00</time>
      </trkpt>
      <trkpt lat="44.34948" lon="4.83775">
        <ele>120.90039</ele>
        <time>2021-09-28T10:29:43+02:00</time>
      </trkpt>
      <trkpt lat="44.34963" lon="4.83781">
        <ele>121.600586</ele>
        <time>2021-09-28T10:29:48+02:00</time>
      </trkpt>
      <trkpt lat="44.34981" lon="4.83785">
        <ele>122.100586</ele>
        <time>2021-09-28T10:29:53+02:00</time>
      </trkpt>
      <trkpt lat="44.34998" lon="4.83788">
        <ele>122.700195</ele>
        <time>2021-09-28T10:29:58+02:00</time>
      </trkpt>
      <trkpt lat="44.35015" lon="4.83791">
        <ele>123.200195</ele>
        <time>2021-09-28T10:30:03+02:00</time>
      </trkpt>
      <trkpt lat="44.35033" lon="4.83791">
        <ele>124</ele>
        <time>2021-09-28T10:30:08+02:00</time>
      </trkpt>
      <trkpt lat="44.35051" lon="4.83792">
        <ele>124.90039</ele>
        <time>2021-09-28T10:30:13+02:00</time>
      </trkpt>
      <trkpt lat="44.35068" lon="4.83793">
        <ele>125.40039</ele>
        <time>2021-09-28T10:30:18+02:00</time>
      </trkpt>
      <trkpt lat="44.35084" lon="4.83795">
        <ele>125.299805</ele>
        <time>2021-09-28T10:30:23+02:00</time>
      </trkpt>
      <trkpt lat="44.351" lon="4.83795">
        <ele>125.100586</ele>
        <time>2021-09-28T10:30:28+02:00</time>
      </trkpt>
      <trkpt lat="44.35117" lon="4.83796">
        <ele>124.799805</ele>
        <time>2021-09-28T10:30:33+02:00</time>
      </trkpt>
      <trkpt lat="44.35133" lon="4.83795">
        <ele>124.200195</ele>
        <time>2021-09-28T10:30:38+02:00</time>
      </trkpt>
      <trkpt lat="44.3515" lon="4.83794">
        <ele>123.90039</ele>
        <time>2021-09-28T10:30:43+02:00</time>
      </trkpt>
      <trkpt lat="44.35166" lon="4.83794">
        <ele>123.799805</ele>
        <time>2021-09-28T10:30:48+02:00</time>
      </trkpt>
      <trkpt lat="44.35182" lon="4.83792">
        <ele>124</ele>
        <time>2021-09-28T10:30:53+02:00</time>
      </trkpt>
      <trkpt lat="44.35199" lon="4.8379">
        <ele>124.200195</ele>
        <time>2021-09-28T10:30:58+02:00</time>
      </trkpt>
      <trkpt lat="44.35214" lon="4.83786">
        <ele>124.40039</ele>
        <time>2021-09-28T10:31:03+02:00</time>
      </trkpt>
      <trkpt lat="44.35228" lon="4.83785">
        <ele>124.799805</ele>
        <time>2021-09-28T10:31:08+02:00</time>
      </trkpt>
      <trkpt lat="44.35242" lon="4.83787">
        <ele>125.299805</ele>
        <time>2021-09-28T10:31:13+02:00</time>
      </trkpt>
      <trkpt lat="44.35258" lon="4.83787">
        <ele>126</ele>
        <time>2021-09-28T10:31:18+02:00</time>
      </trkpt>
      <trkpt lat="44.35273" lon="4.8379">
        <ele>126.40039</ele>
        <time>2021-09-28T10:31:23+02:00</time>
      </trkpt>
      <trkpt lat="44.35289" lon="4.83792">
        <ele>127</ele>
        <time>2021-09-28T10:31:28+02:00</time>
      </trkpt>
      <trkpt lat="44.35306" lon="4.83792">
        <ele>127.40039</ele>
        <time>2021-09-28T10:31:33+02:00</time>
      </trkpt>
      <trkpt lat="44.35322" lon="4.83788">
        <ele>128</ele>
        <time>2021-09-28T10:31:38+02:00</time>
      </trkpt>
      <trkpt lat="44.35337" lon="4.83782">
        <ele>128.2002</ele>
        <time>2021-09-28T10:31:43+02:00</time>
      </trkpt>
      <trkpt lat="44.35353" lon="4.83777">
        <ele>128.60059</ele>
        <time>2021-09-28T10:31:48+02:00</time>
      </trkpt>
      <trkpt lat="44.35368" lon="4.83774">
        <ele>128.60059</ele>
        <time>2021-09-28T10:31:53+02:00</time>
      </trkpt>
      <trkpt lat="44.35385" lon="4.83772">
        <ele>128.7998</ele>
        <time>2021-09-28T10:31:58+02:00</time>
      </trkpt>
      <trkpt lat="44.35399" lon="4.83771">
        <ele>129</ele>
        <time>2021-09-28T10:32:03+02:00</time>
      </trkpt>
      <trkpt lat="44.35411" lon="4.83769">
        <ele>129.2998</ele>
        <time>2021-09-28T10:32:08+02:00</time>
      </trkpt>
      <trkpt lat="44.35421" lon="4.83769">
        <ele>129.7002</ele>
        <time>2021-09-28T10:32:13+02:00</time>
      </trkpt>
      <trkpt lat="44.3543" lon="4.83769">
        <ele>130.2002</ele>
        <time>2021-09-28T10:32:18+02:00</time>
      </trkpt>
      <trkpt lat="44.35442" lon="4.83769">
        <ele>130.7998</ele>
        <time>2021-09-28T10:32:23+02:00</time>
      </trkpt>
      <trkpt lat="44.35456" lon="4.83768">
        <ele>131.5</ele>
        <time>2021-09-28T10:32:28+02:00</time>
      </trkpt>
      <trkpt lat="44.35471" lon="4.83766">
        <ele>132.2998</ele>
        <time>2021-09-28T10:32:33+02:00</time>
      </trkpt>
      <trkpt lat="44.35485" lon="4.83768">
        <ele>133.2002</ele>
        <time>2021-09-28T10:32:38+02:00</time>
      </trkpt>
      <trkpt lat="44.35501" lon="4.83775">
        <ele>134.2002</ele>
        <time>2021-09-28T10:32:43+02:00</time>
      </trkpt>
      <trkpt lat="44.35516" lon="4.83787">
        <ele>134.90039</ele>
        <time>2021-09-28T10:32:48+02:00</time>
      </trkpt>
      <trkpt lat="44.35528" lon="4.83798">
        <ele>135</ele>
        <time>2021-09-28T10:32:53+02:00</time>
      </trkpt>
      <trkpt lat="44.35539" lon="4.83803">
        <ele>135.10059</ele>
        <time>2021-09-28T10:32:58+02:00</time>
      </trkpt>
      <trkpt lat="44.35547" lon="4.83802">
        <ele>135.2002</ele>
        <time>2021-09-28T10:33:03+02:00</time>
      </trkpt>
      <trkpt lat="44.35555" lon="4.83796">
        <ele>135.7002</ele>
        <time>2021-09-28T10:33:08+02:00</time>
      </trkpt>
      <trkpt lat="44.35554" lon="4.83786">
        <ele>136</ele>
        <time>2021-09-28T10:33:13+02:00</time>
      </trkpt>
      <trkpt lat="44.35546" lon="4.83775">
        <ele>136.10059</ele>
        <time>2021-09-28T10:33:18+02:00</time>
      </trkpt>
      <trkpt lat="44.35539" lon="4.83762">
        <ele>135.60059</ele>
        <time>2021-09-28T10:33:23+02:00</time>
      </trkpt>
      <trkpt lat="44.3553" lon="4.83749">
        <ele>135.5</ele>
        <time>2021-09-28T10:33:28+02:00</time>
      </trkpt>
      <trkpt lat="44.35521" lon="4.83736">
        <ele>135</ele>
        <time>2021-09-28T10:33:33+02:00</time>
      </trkpt>
      <trkpt lat="44.35514" lon="4.83724">
        <ele>134.90039</ele>
        <time>2021-09-28T10:33:38+02:00</time>
      </trkpt>
      <trkpt lat="44.3552" lon="4.83718">
        <ele>135.2002</ele>
        <time>2021-09-28T10:33:43+02:00</time>
      </trkpt>
      <trkpt lat="44.35525" lon="4.8371">
        <ele>135.90039</ele>
        <time>2021-09-28T10:33:48+02:00</time>
      </trkpt>
      <trkpt lat="44.35523" lon="4.83704">
        <ele>136.2998</ele>
        <time>2021-09-28T10:33:53+02:00</time>
      </trkpt>
      <trkpt lat="44.35517" lon="4.83706">
        <ele>135.90039</ele>
        <time>2021-09-28T10:33:58+02:00</time>
      </trkpt>
      <trkpt lat="44.35507" lon="4.83699">
        <ele>135.10059</ele>
        <time>2021-09-28T10:34:03+02:00</time>
      </trkpt>
      <trkpt lat="44.35498" lon="4.83687">
        <ele>135.7002</ele>
        <time>2021-09-28T10:34:08+02:00</time>
      </trkpt>
      <trkpt lat="44.35487" lon="4.83671">
        <ele>136</ele>
        <time>2021-09-28T10:34:13+02:00</time>
      </trkpt>
      <trkpt lat="44.35479" lon="4.8365">
        <ele>136</ele>
        <time>2021-09-28T10:34:18+02:00</time>
      </trkpt>
      <trkpt lat="44.35469" lon="4.83625">
        <ele>136.60059</ele>
        <time>2021-09-28T10:34:23+02:00</time>
      </trkpt>
      <trkpt lat="44.3546" lon="4.836">
        <ele>135.7998</ele>
        <time>2021-09-28T10:34:28+02:00</time>
      </trkpt>
      <trkpt lat="44.35452" lon="4.83576">
        <ele>135.2002</ele>
        <time>2021-09-28T10:34:33+02:00</time>
      </trkpt>
      <trkpt lat="44.35443" lon="4.83549">
        <ele>134.5</ele>
        <time>2021-09-28T10:34:38+02:00</time>
      </trkpt>
      <trkpt lat="44.35433" lon="4.83524">
        <ele>133.7998</ele>
        <time>2021-09-28T10:34:43+02:00</time>
      </trkpt>
      <trkpt lat="44.35422" lon="4.835">
        <ele>133.40039</ele>
        <time>2021-09-28T10:34:48+02:00</time>
      </trkpt>
      <trkpt lat="44.35411" lon="4.83478">
        <ele>133.2002</ele>
        <time>2021-09-28T10:34:53+02:00</time>
      </trkpt>
      <trkpt lat="44.35402" lon="4.83457">
        <ele>132.7998</ele>
        <time>2021-09-28T10:34:58+02:00</time>
      </trkpt>
      <trkpt lat="44.35393" lon="4.83432">
        <ele>133.60059</ele>
        <time>2021-09-28T10:35:03+02:00</time>
      </trkpt>
      <trkpt lat="44.35385" lon="4.83409">
        <ele>134.2002</ele>
        <time>2021-09-28T10:35:08+02:00</time>
      </trkpt>
      <trkpt lat="44.35375" lon="4.83388">
        <ele>135.2002</ele>
        <time>2021-09-28T10:35:13+02:00</time>
      </trkpt>
      <trkpt lat="44.35361" lon="4.83368">
        <ele>134.90039</ele>
        <time>2021-09-28T10:35:18+02:00</time>
      </trkpt>
      <trkpt lat="44.3535" lon="4.8335">
        <ele>134.90039</ele>
        <time>2021-09-28T10:35:23+02:00</time>
      </trkpt>
      <trkpt lat="44.3534" lon="4.83332">
        <ele>135.2002</ele>
        <time>2021-09-28T10:35:28+02:00</time>
      </trkpt>
      <trkpt lat="44.35332" lon="4.83313">
        <ele>135.5</ele>
        <time>2021-09-28T10:35:33+02:00</time>
      </trkpt>
      <trkpt lat="44.35323" lon="4.83295">
        <ele>135.5</ele>
        <time>2021-09-28T10:35:38+02:00</time>
      </trkpt>
      <trkpt lat="44.35314" lon="4.83276">
        <ele>135</ele>
        <time>2021-09-28T10:35:43+02:00</time>
      </trkpt>
      <trkpt lat="44.35305" lon="4.83255">
        <ele>133.7002</ele>
        <time>2021-09-28T10:35:48+02:00</time>
      </trkpt>
      <trkpt lat="44.35297" lon="4.83236">
        <ele>132.7998</ele>
        <time>2021-09-28T10:35:53+02:00</time>
      </trkpt>
      <trkpt lat="44.35291" lon="4.83219">
        <ele>132.2998</ele>
        <time>2021-09-28T10:35:58+02:00</time>
      </trkpt>
      <trkpt lat="44.35284" lon="4.83203">
        <ele>132.2002</ele>
        <time>2021-09-28T10:36:03+02:00</time>
      </trkpt>
      <trkpt lat="44.35274" lon="4.83185">
        <ele>132.10059</ele>
        <time>2021-09-28T10:36:08+02:00</time>
      </trkpt>
      <trkpt lat="44.35264" lon="4.83167">
        <ele>132.5</ele>
        <time>2021-09-28T10:36:13+02:00</time>
      </trkpt>
      <trkpt lat="44.35255" lon="4.83151">
        <ele>132.40039</ele>
        <time>2021-09-28T10:36:18+02:00</time>
      </trkpt>
      <trkpt lat="44.35245" lon="4.83133">
        <ele>132.40039</ele>
        <time>2021-09-28T10:36:23+02:00</time>
      </trkpt>
      <trkpt lat="44.35233" lon="4.83114">
        <ele>133.10059</ele>
        <time>2021-09-28T10:36:28+02:00</time>
      </trkpt>
      <trkpt lat="44.35222" lon="4.83096">
        <ele>133.5</ele>
        <time>2021-09-28T10:36:33+02:00</time>
      </trkpt>
      <trkpt lat="44.35213" lon="4.83076">
        <ele>133.40039</ele>
        <time>2021-09-28T10:36:38+02:00</time>
      </trkpt>
      <trkpt lat="44.35202" lon="4.83049">
        <ele>133</ele>
        <time>2021-09-28T10:36:43+02:00</time>
      </trkpt>
      <trkpt lat="44.35192" lon="4.8303">
        <ele>132.7998</ele>
        <time>2021-09-28T10:36:48+02:00</time>
      </trkpt>
      <trkpt lat="44.35184" lon="4.83019">
        <ele>132.5</ele>
        <time>2021-09-28T10:36:53+02:00</time>
      </trkpt>
      <trkpt lat="44.35186" lon="4.83015">
        <ele>132.5</ele>
        <time>2021-09-28T10:36:58+02:00</time>
      </trkpt>
      <trkpt lat="44.35196" lon="4.8301">
        <ele>132.7998</ele>
        <time>2021-09-28T10:37:03+02:00</time>
      </trkpt>
      <trkpt lat="44.35207" lon="4.83009">
        <ele>133.5</ele>
        <time>2021-09-28T10:37:08+02:00</time>
      </trkpt>
      <trkpt lat="44.35215" lon="4.83013">
        <ele>133.7998</ele>
        <time>2021-09-28T10:37:13+02:00</time>
      </trkpt>
      <trkpt lat="44.35223" lon="4.83017">
        <ele>134.5</ele>
        <time>2021-09-28T10:37:18+02:00</time>
      </trkpt>
      <trkpt lat="44.3523" lon="4.83022">
        <ele>134.7002</ele>
        <time>2021-09-28T10:37:23+02:00</time>
      </trkpt>
      <trkpt lat="44.3524" lon="4.83028">
        <ele>135.2998</ele>
        <time>2021-09-28T10:37:28+02:00</time>
      </trkpt>
      <trkpt lat="44.35249" lon="4.83035">
        <ele>135.60059</ele>
        <time>2021-09-28T10:37:33+02:00</time>
      </trkpt>
      <trkpt lat="44.35259" lon="4.8304">
        <ele>136.2002</ele>
        <time>2021-09-28T10:37:38+02:00</time>
      </trkpt>
      <trkpt lat="44.3527" lon="4.83043">
        <ele>136.90039</ele>
        <time>2021-09-28T10:37:43+02:00</time>
      </trkpt>
      <trkpt lat="44.35283" lon="4.83045">
        <ele>137.40039</ele>
        <time>2021-09-28T10:37:48+02:00</time>
      </trkpt>
      <trkpt lat="44.35294" lon="4.83048">
        <ele>137.60059</ele>
        <time>2021-09-28T10:37:53+02:00</time>
      </trkpt>
      <trkpt lat="44.35307" lon="4.83048">
        <ele>138.2998</ele>
        <time>2021-09-28T10:37:58+02:00</time>
      </trkpt>
      <trkpt lat="44.3532" lon="4.8305">
        <ele>139.7998</ele>
        <time>2021-09-28T10:38:03+02:00</time>
      </trkpt>
      <trkpt lat="44.35332" lon="4.83052">
        <ele>140.90039</ele>
        <time>2021-09-28T10:38:08+02:00</time>
      </trkpt>
      <trkpt lat="44.35343" lon="4.83056">
        <ele>141.5</ele>
        <time>2021-09-28T10:38:13+02:00</time>
      </trkpt>
      <trkpt lat="44.35354" lon="4.8306">
        <ele>142.90039</ele>
        <time>2021-09-28T10:38:18+02:00</time>
      </trkpt>
      <trkpt lat="44.35366" lon="4.83054">
        <ele>144.40039</ele>
        <time>2021-09-28T10:38:23+02:00</time>
      </trkpt>
      <trkpt lat="44.35377" lon="4.83055">
        <ele>146</ele>
        <time>2021-09-28T10:38:28+02:00</time>
      </trkpt>
      <trkpt lat="44.35389" lon="4.83059">
        <ele>147.7998</ele>
        <time>2021-09-28T10:38:33+02:00</time>
      </trkpt>
      <trkpt lat="44.35401" lon="4.83062">
        <ele>149.2002</ele>
        <time>2021-09-28T10:38:38+02:00</time>
      </trkpt>
      <trkpt lat="44.35415" lon="4.83061">
        <ele>150.2998</ele>
        <time>2021-09-28T10:38:43+02:00</time>
      </trkpt>
      <trkpt lat="44.35426" lon="4.83061">
        <ele>151.2002</ele>
        <time>2021-09-28T10:38:48+02:00</time>
      </trkpt>
      <trkpt lat="44.35438" lon="4.83057">
        <ele>152.10059</ele>
        <time>2021-09-28T10:38:53+02:00</time>
      </trkpt>
      <trkpt lat="44.3545" lon="4.83054">
        <ele>153.40039</ele>
        <time>2021-09-28T10:38:58+02:00</time>
      </trkpt>
      <trkpt lat="44.35462" lon="4.83049">
        <ele>154.7002</ele>
        <time>2021-09-28T10:39:03+02:00</time>
      </trkpt>
      <trkpt lat="44.35472" lon="4.8305">
        <ele>155.5</ele>
        <time>2021-09-28T10:39:08+02:00</time>
      </trkpt>
      <trkpt lat="44.35481" lon="4.83049">
        <ele>157.40039</ele>
        <time>2021-09-28T10:39:13+02:00</time>
      </trkpt>
      <trkpt lat="44.35491" lon="4.83048">
        <ele>158.5</ele>
        <time>2021-09-28T10:39:18+02:00</time>
      </trkpt>
      <trkpt lat="44.35501" lon="4.83047">
        <ele>160.7998</ele>
        <time>2021-09-28T10:39:23+02:00</time>
      </trkpt>
      <trkpt lat="44.35512" lon="4.83055">
        <ele>163.2998</ele>
        <time>2021-09-28T10:39:28+02:00</time>
      </trkpt>
      <trkpt lat="44.3552" lon="4.83064">
        <ele>164.10059</ele>
        <time>2021-09-28T10:39:33+02:00</time>
      </trkpt>
      <trkpt lat="44.35531" lon="4.83066">
        <ele>166.7002</ele>
        <time>2021-09-28T10:39:38+02:00</time>
      </trkpt>
      <trkpt lat="44.35541" lon="4.83069">
        <ele>169.10059</ele>
        <time>2021-09-28T10:39:43+02:00</time>
      </trkpt>
      <trkpt lat="44.35548" lon="4.83074">
        <ele>170.2002</ele>
        <time>2021-09-28T10:39:48+02:00</time>
      </trkpt>
      <trkpt lat="44.35559" lon="4.83082">
        <ele>171.7998</ele>
        <time>2021-09-28T10:39:53+02:00</time>
      </trkpt>
      <trkpt lat="44.35568" lon="4.83089">
        <ele>172.40039</ele>
        <time>2021-09-28T10:39:58+02:00</time>
      </trkpt>
      <trkpt lat="44.35577" lon="4.83094">
        <ele>173.7998</ele>
        <time>2021-09-28T10:40:03+02:00</time>
      </trkpt>
      <trkpt lat="44.35587" lon="4.831">
        <ele>174.7002</ele>
        <time>2021-09-28T10:40:08+02:00</time>
      </trkpt>
      <trkpt lat="44.35597" lon="4.83107">
        <ele>175.60059</ele>
        <time>2021-09-28T10:40:13+02:00</time>
      </trkpt>
      <trkpt lat="44.35604" lon="4.83116">
        <ele>177.10059</ele>
        <time>2021-09-28T10:40:18+02:00</time>
      </trkpt>
      <trkpt lat="44.35613" lon="4.83125">
        <ele>178.2002</ele>
        <time>2021-09-28T10:40:23+02:00</time>
      </trkpt>
      <trkpt lat="44.35623" lon="4.83132">
        <ele>179.5</ele>
        <time>2021-09-28T10:40:28+02:00</time>
      </trkpt>
      <trkpt lat="44.35631" lon="4.83142">
        <ele>181.5</ele>
        <time>2021-09-28T10:40:33+02:00</time>
      </trkpt>
      <trkpt lat="44.35638" lon="4.83149">
        <ele>182.7998</ele>
        <time>2021-09-28T10:40:38+02:00</time>
      </trkpt>
      <trkpt lat="44.35646" lon="4.83154">
        <ele>183.7998</ele>
        <time>2021-09-28T10:40:43+02:00</time>
      </trkpt>
      <trkpt lat="44.35654" lon="4.83153">
        <ele>184.40039</ele>
        <time>2021-09-28T10:40:48+02:00</time>
      </trkpt>
      <trkpt lat="44.35664" lon="4.83156">
        <ele>185.5</ele>
        <time>2021-09-28T10:40:53+02:00</time>
      </trkpt>
      <trkpt lat="44.35674" lon="4.8316">
        <ele>186.2998</ele>
        <time>2021-09-28T10:40:58+02:00</time>
      </trkpt>
      <trkpt lat="44.35683" lon="4.83163">
        <ele>187.2998</ele>
        <time>2021-09-28T10:41:03+02:00</time>
      </trkpt>
      <trkpt lat="44.35693" lon="4.83169">
        <ele>188</ele>
        <time>2021-09-28T10:41:08+02:00</time>
      </trkpt>
      <trkpt lat="44.35703" lon="4.83176">
        <ele>189.7002</ele>
        <time>2021-09-28T10:41:13+02:00</time>
      </trkpt>
      <trkpt lat="44.35711" lon="4.83182">
        <ele>190.40039</ele>
        <time>2021-09-28T10:41:18+02:00</time>
      </trkpt>
      <trkpt lat="44.3572" lon="4.83188">
        <ele>192.2002</ele>
        <time>2021-09-28T10:41:23+02:00</time>
      </trkpt>
      <trkpt lat="44.3573" lon="4.83196">
        <ele>193.5</ele>
        <time>2021-09-28T10:41:28+02:00</time>
      </trkpt>
      <trkpt lat="44.35739" lon="4.8321">
        <ele>195.2002</ele>
        <time>2021-09-28T10:41:33+02:00</time>
      </trkpt>
      <trkpt lat="44.3575" lon="4.83224">
        <ele>195.90039</ele>
        <time>2021-09-28T10:41:38+02:00</time>
      </trkpt>
      <trkpt lat="44.35761" lon="4.83232">
        <ele>196.2002</ele>
        <time>2021-09-28T10:41:43+02:00</time>
      </trkpt>
      <trkpt lat="44.35772" lon="4.83242">
        <ele>197</ele>
        <time>2021-09-28T10:41:48+02:00</time>
      </trkpt>
      <trkpt lat="44.35782" lon="4.8325">
        <ele>197.60059</ele>
        <time>2021-09-28T10:41:53+02:00</time>
      </trkpt>
      <trkpt lat="44.35793" lon="4.83261">
        <ele>197.7998</ele>
        <time>2021-09-28T10:41:58+02:00</time>
      </trkpt>
      <trkpt lat="44.35803" lon="4.83271">
        <ele>197.5</ele>
        <time>2021-09-28T10:42:03+02:00</time>
      </trkpt>
      <trkpt lat="44.35815" lon="4.83278">
        <ele>198.7002</ele>
        <time>2021-09-28T10:42:08+02:00</time>
      </trkpt>
      <trkpt lat="44.35825" lon="4.83285">
        <ele>199.5</ele>
        <time>2021-09-28T10:42:13+02:00</time>
      </trkpt>
      <trkpt lat="44.35834" lon="4.83292">
        <ele>199.7002</ele>
        <time>2021-09-28T10:42:18+02:00</time>
      </trkpt>
      <trkpt lat="44.35842" lon="4.83303">
        <ele>200.2998</ele>
        <time>2021-09-28T10:42:23+02:00</time>
      </trkpt>
      <trkpt lat="44.35851" lon="4.83308">
        <ele>200.2998</ele>
        <time>2021-09-28T10:42:28+02:00</time>
      </trkpt>
      <trkpt lat="44.35861" lon="4.83317">
        <ele>200.60059</ele>
        <time>2021-09-28T10:42:33+02:00</time>
      </trkpt>
      <trkpt lat="44.35871" lon="4.83324">
        <ele>200.60059</ele>
        <time>2021-09-28T10:42:38+02:00</time>
      </trkpt>
      <trkpt lat="44.35881" lon="4.83329">
        <ele>201.10059</ele>
        <time>2021-09-28T10:42:43+02:00</time>
      </trkpt>
      <trkpt lat="44.35891" lon="4.83334">
        <ele>201.40039</ele>
        <time>2021-09-28T10:42:48+02:00</time>
      </trkpt>
      <trkpt lat="44.35901" lon="4.83335">
        <ele>201.60059</ele>
        <time>2021-09-28T10:42:53+02:00</time>
      </trkpt>
      <trkpt lat="44.35912" lon="4.83337">
        <ele>202.2002</ele>
        <time>2021-09-28T10:42:58+02:00</time>
      </trkpt>
      <trkpt lat="44.35922" lon="4.83338">
        <ele>202.7998</ele>
        <time>2021-09-28T10:43:03+02:00</time>
      </trkpt>
      <trkpt lat="44.35931" lon="4.83344">
        <ele>203.2002</ele>
        <time>2021-09-28T10:43:08+02:00</time>
      </trkpt>
      <trkpt lat="44.35941" lon="4.83352">
        <ele>204</ele>
        <time>2021-09-28T10:43:13+02:00</time>
      </trkpt>
      <trkpt lat="44.35952" lon="4.8336">
        <ele>204.7002</ele>
        <time>2021-09-28T10:43:18+02:00</time>
      </trkpt>
      <trkpt lat="44.35963" lon="4.83369">
        <ele>205</ele>
        <time>2021-09-28T10:43:23+02:00</time>
      </trkpt>
      <trkpt lat="44.35973" lon="4.83374">
        <ele>205.5</ele>
        <time>2021-09-28T10:43:28+02:00</time>
      </trkpt>
      <trkpt lat="44.35982" lon="4.83373">
        <ele>205.7002</ele>
        <time>2021-09-28T10:43:33+02:00</time>
      </trkpt>
      <trkpt lat="44.35993" lon="4.83371">
        <ele>205.5</ele>
        <time>2021-09-28T10:43:38+02:00</time>
      </trkpt>
      <trkpt lat="44.36004" lon="4.83373">
        <ele>206.2998</ele>
        <time>2021-09-28T10:43:43+02:00</time>
      </trkpt>
      <trkpt lat="44.36013" lon="4.83377">
        <ele>206.7002</ele>
        <time>2021-09-28T10:43:48+02:00</time>
      </trkpt>
      <trkpt lat="44.36022" lon="4.83383">
        <ele>207.7998</ele>
        <time>2021-09-28T10:43:53+02:00</time>
      </trkpt>
      <trkpt lat="44.36031" lon="4.8339">
        <ele>208.40039</ele>
        <time>2021-09-28T10:43:58+02:00</time>
      </trkpt>
      <trkpt lat="44.36039" lon="4.83397">
        <ele>210.10059</ele>
        <time>2021-09-28T10:44:03+02:00</time>
      </trkpt>
      <trkpt lat="44.36047" lon="4.83403">
        <ele>211.2998</ele>
        <time>2021-09-28T10:44:08+02:00</time>
      </trkpt>
      <trkpt lat="44.36055" lon="4.8341">
        <ele>212.5</ele>
        <time>2021-09-28T10:44:13+02:00</time>
      </trkpt>
      <trkpt lat="44.36063" lon="4.83418">
        <ele>214.7002</ele>
        <time>2021-09-28T10:44:18+02:00</time>
      </trkpt>
      <trkpt lat="44.36072" lon="4.83426">
        <ele>215.7998</ele>
        <time>2021-09-28T10:44:23+02:00</time>
      </trkpt>
      <trkpt lat="44.36079" lon="4.83436">
        <ele>216.7998</ele>
        <time>2021-09-28T10:44:28+02:00</time>
      </trkpt>
      <trkpt lat="44.36088" lon="4.83446">
        <ele>218.10059</ele>
        <time>2021-09-28T10:44:33+02:00</time>
      </trkpt>
      <trkpt lat="44.36097" lon="4.83454">
        <ele>218.2998</ele>
        <time>2021-09-28T10:44:38+02:00</time>
      </trkpt>
      <trkpt lat="44.36106" lon="4.83456">
        <ele>218.90039</ele>
        <time>2021-09-28T10:44:43+02:00</time>
      </trkpt>
      <trkpt lat="44.36119" lon="4.8346">
        <ele>218.7002</ele>
        <time>2021-09-28T10:44:48+02:00</time>
      </trkpt>
      <trkpt lat="44.36129" lon="4.83469">
        <ele>218.40039</ele>
        <time>2021-09-28T10:44:53+02:00</time>
      </trkpt>
      <trkpt lat="44.3614" lon="4.83475">
        <ele>218.2998</ele>
        <time>2021-09-28T10:44:58+02:00</time>
      </trkpt>
      <trkpt lat="44.36156" lon="4.83474">
        <ele>218.10059</ele>
        <time>2021-09-28T10:45:03+02:00</time>
      </trkpt>
      <trkpt lat="44.36168" lon="4.83468">
        <ele>217.7998</ele>
        <time>2021-09-28T10:45:08+02:00</time>
      </trkpt>
      <trkpt lat="44.36176" lon="4.8346">
        <ele>217.7998</ele>
        <time>2021-09-28T10:45:13+02:00</time>
      </trkpt>
      <trkpt lat="44.36181" lon="4.83445">
        <ele>217.7998</ele>
        <time>2021-09-28T10:45:18+02:00</time>
      </trkpt>
      <trkpt lat="44.36188" lon="4.8343">
        <ele>217.60059</ele>
        <time>2021-09-28T10:45:23+02:00</time>
      </trkpt>
      <trkpt lat="44.36195" lon="4.83413">
        <ele>217.2002</ele>
        <time>2021-09-28T10:45:28+02:00</time>
      </trkpt>
      <trkpt lat="44.36205" lon="4.83401">
        <ele>216.7998</ele>
        <time>2021-09-28T10:45:33+02:00</time>
      </trkpt>
      <trkpt lat="44.36217" lon="4.83398">
        <ele>216.60059</ele>
        <time>2021-09-28T10:45:38+02:00</time>
      </trkpt>
      <trkpt lat="44.36228" lon="4.83396">
        <ele>216.60059</ele>
        <time>2021-09-28T10:45:43+02:00</time>
      </trkpt>
      <trkpt lat="44.3624" lon="4.83395">
        <ele>216.60059</ele>
        <time>2021-09-28T10:45:48+02:00</time>
      </trkpt>
      <trkpt lat="44.36251" lon="4.83394">
        <ele>216.60059</ele>
        <time>2021-09-28T10:45:53+02:00</time>
      </trkpt>
      <trkpt lat="44.36263" lon="4.83394">
        <ele>216.60059</ele>
        <time>2021-09-28T10:45:58+02:00</time>
      </trkpt>
      <trkpt lat="44.36273" lon="4.83395">
        <ele>216.7002</ele>
        <time>2021-09-28T10:46:03+02:00</time>
      </trkpt>
      <trkpt lat="44.36283" lon="4.83389">
        <ele>216.90039</ele>
        <time>2021-09-28T10:46:08+02:00</time>
      </trkpt>
      <trkpt lat="44.36296" lon="4.83384">
        <ele>217.2998</ele>
        <time>2021-09-28T10:46:13+02:00</time>
      </trkpt>
      <trkpt lat="44.36308" lon="4.83387">
        <ele>217.7998</ele>
        <time>2021-09-28T10:46:18+02:00</time>
      </trkpt>
      <trkpt lat="44.36323" lon="4.83387">
        <ele>218.5</ele>
        <time>2021-09-28T10:46:23+02:00</time>
      </trkpt>
      <trkpt lat="44.36336" lon="4.83387">
        <ele>219.5</ele>
        <time>2021-09-28T10:46:28+02:00</time>
      </trkpt>
      <trkpt lat="44.3635" lon="4.83384">
        <ele>220.5</ele>
        <time>2021-09-28T10:46:33+02:00</time>
      </trkpt>
      <trkpt lat="44.3636" lon="4.83382">
        <ele>221.5</ele>
        <time>2021-09-28T10:46:38+02:00</time>
      </trkpt>
      <trkpt lat="44.3637" lon="4.83372">
        <ele>224.10059</ele>
        <time>2021-09-28T10:46:43+02:00</time>
      </trkpt>
      <trkpt lat="44.3638" lon="4.83363">
        <ele>225.10059</ele>
        <time>2021-09-28T10:46:48+02:00</time>
      </trkpt>
      <trkpt lat="44.36385" lon="4.83347">
        <ele>226</ele>
        <time>2021-09-28T10:46:53+02:00</time>
      </trkpt>
      <trkpt lat="44.36391" lon="4.83329">
        <ele>227.2998</ele>
        <time>2021-09-28T10:46:58+02:00</time>
      </trkpt>
      <trkpt lat="44.36394" lon="4.83312">
        <ele>228</ele>
        <time>2021-09-28T10:47:03+02:00</time>
      </trkpt>
      <trkpt lat="44.36398" lon="4.83288">
        <ele>228.2998</ele>
        <time>2021-09-28T10:47:08+02:00</time>
      </trkpt>
      <trkpt lat="44.36397" lon="4.83268">
        <ele>228.10059</ele>
        <time>2021-09-28T10:47:13+02:00</time>
      </trkpt>
      <trkpt lat="44.36393" lon="4.83249">
        <ele>228.10059</ele>
        <time>2021-09-28T10:47:18+02:00</time>
      </trkpt>
      <trkpt lat="44.36387" lon="4.83233">
        <ele>227.40039</ele>
        <time>2021-09-28T10:47:23+02:00</time>
      </trkpt>
      <trkpt lat="44.36382" lon="4.83218">
        <ele>226.7998</ele>
        <time>2021-09-28T10:47:28+02:00</time>
      </trkpt>
      <trkpt lat="44.36381" lon="4.83201">
        <ele>226.10059</ele>
        <time>2021-09-28T10:47:33+02:00</time>
      </trkpt>
      <trkpt lat="44.36379" lon="4.83185">
        <ele>226.10059</ele>
        <time>2021-09-28T10:47:38+02:00</time>
      </trkpt>
      <trkpt lat="44.36376" lon="4.8317">
        <ele>226.2002</ele>
        <time>2021-09-28T10:47:43+02:00</time>
      </trkpt>
      <trkpt lat="44.36372" lon="4.83154">
        <ele>225.7002</ele>
        <time>2021-09-28T10:47:48+02:00</time>
      </trkpt>
      <trkpt lat="44.36368" lon="4.83138">
        <ele>225.2998</ele>
        <time>2021-09-28T10:47:53+02:00</time>
      </trkpt>
      <trkpt lat="44.36368" lon="4.83122">
        <ele>225.2002</ele>
        <time>2021-09-28T10:47:58+02:00</time>
      </trkpt>
      <trkpt lat="44.36373" lon="4.83108">
        <ele>225.2998</ele>
        <time>2021-09-28T10:48:03+02:00</time>
      </trkpt>
      <trkpt lat="44.36376" lon="4.83099">
        <ele>225.2002</ele>
        <time>2021-09-28T10:48:08+02:00</time>
      </trkpt>
      <trkpt lat="44.36381" lon="4.83093">
        <ele>225.10059</ele>
        <time>2021-09-28T10:48:13+02:00</time>
      </trkpt>
      <trkpt lat="44.36394" lon="4.8308">
        <ele>225</ele>
        <time>2021-09-28T10:48:18+02:00</time>
      </trkpt>
      <trkpt lat="44.36409" lon="4.83067">
        <ele>225.10059</ele>
        <time>2021-09-28T10:48:23+02:00</time>
      </trkpt>
      <trkpt lat="44.36427" lon="4.83057">
        <ele>225.7002</ele>
        <time>2021-09-28T10:48:29+02:00</time>
      </trkpt>
      <trkpt lat="44.36438" lon="4.83052">
        <ele>226.2998</ele>
        <time>2021-09-28T10:48:34+02:00</time>
      </trkpt>
      <trkpt lat="44.36449" lon="4.83047">
        <ele>227.40039</ele>
        <time>2021-09-28T10:48:39+02:00</time>
      </trkpt>
      <trkpt lat="44.36461" lon="4.83037">
        <ele>228.10059</ele>
        <time>2021-09-28T10:48:44+02:00</time>
      </trkpt>
      <trkpt lat="44.36478" lon="4.83028">
        <ele>229</ele>
        <time>2021-09-28T10:48:50+02:00</time>
      </trkpt>
      <trkpt lat="44.36491" lon="4.83026">
        <ele>230.10059</ele>
        <time>2021-09-28T10:48:55+02:00</time>
      </trkpt>
      <trkpt lat="44.36506" lon="4.83027">
        <ele>231.2002</ele>
        <time>2021-09-28T10:49:00+02:00</time>
      </trkpt>
      <trkpt lat="44.36521" lon="4.83023">
        <ele>231.7998</ele>
        <time>2021-09-28T10:49:05+02:00</time>
      </trkpt>
      <trkpt lat="44.36538" lon="4.83014">
        <ele>231.7998</ele>
        <time>2021-09-28T10:49:11+02:00</time>
      </trkpt>
      <trkpt lat="44.36551" lon="4.8301">
        <ele>231.5</ele>
        <time>2021-09-28T10:49:16+02:00</time>
      </trkpt>
      <trkpt lat="44.36563" lon="4.83007">
        <ele>231.7998</ele>
        <time>2021-09-28T10:49:21+02:00</time>
      </trkpt>
      <trkpt lat="44.36577" lon="4.8301">
        <ele>232.10059</ele>
        <time>2021-09-28T10:49:26+02:00</time>
      </trkpt>
      <trkpt lat="44.3659" lon="4.83009">
        <ele>232.90039</ele>
        <time>2021-09-28T10:49:31+02:00</time>
      </trkpt>
      <trkpt lat="44.36604" lon="4.83009">
        <ele>233.5</ele>
        <time>2021-09-28T10:49:36+02:00</time>
      </trkpt>
      <trkpt lat="44.36619" lon="4.8301">
        <ele>234</ele>
        <time>2021-09-28T10:49:41+02:00</time>
      </trkpt>
      <trkpt lat="44.36629" lon="4.83011">
        <ele>234.5</ele>
        <time>2021-09-28T10:49:46+02:00</time>
      </trkpt>
      <trkpt lat="44.36642" lon="4.83012">
        <ele>235.10059</ele>
        <time>2021-09-28T10:49:51+02:00</time>
      </trkpt>
      <trkpt lat="44.36656" lon="4.83013">
        <ele>235.5</ele>
        <time>2021-09-28T10:49:57+02:00</time>
      </trkpt>
      <trkpt lat="44.36669" lon="4.83015">
        <ele>235.7998</ele>
        <time>2021-09-28T10:50:02+02:00</time>
      </trkpt>
      <trkpt lat="44.36681" lon="4.83022">
        <ele>235.90039</ele>
        <time>2021-09-28T10:50:07+02:00</time>
      </trkpt>
      <trkpt lat="44.36694" lon="4.8303">
        <ele>236</ele>
        <time>2021-09-28T10:50:12+02:00</time>
      </trkpt>
      <trkpt lat="44.36708" lon="4.83036">
        <ele>236.10059</ele>
        <time>2021-09-28T10:50:17+02:00</time>
      </trkpt>
      <trkpt lat="44.36726" lon="4.83043">
        <ele>236.5</ele>
        <time>2021-09-28T10:50:23+02:00</time>
      </trkpt>
      <trkpt lat="44.36741" lon="4.83049">
        <ele>236.7002</ele>
        <time>2021-09-28T10:50:28+02:00</time>
      </trkpt>
      <trkpt lat="44.36755" lon="4.83058">
        <ele>237.10059</ele>
        <time>2021-09-28T10:50:33+02:00</time>
      </trkpt>
      <trkpt lat="44.3677" lon="4.83066">
        <ele>237.5</ele>
        <time>2021-09-28T10:50:38+02:00</time>
      </trkpt>
      <trkpt lat="44.36784" lon="4.83073">
        <ele>237.7998</ele>
        <time>2021-09-28T10:50:43+02:00</time>
      </trkpt>
      <trkpt lat="44.36797" lon="4.83076">
        <ele>238.2002</ele>
        <time>2021-09-28T10:50:49+02:00</time>
      </trkpt>
      <trkpt lat="44.36809" lon="4.83078">
        <ele>238.7002</ele>
        <time>2021-09-28T10:50:54+02:00</time>
      </trkpt>
      <trkpt lat="44.36822" lon="4.8308">
        <ele>239.10059</ele>
        <time>2021-09-28T10:50:59+02:00</time>
      </trkpt>
      <trkpt lat="44.36833" lon="4.83087">
        <ele>239.5</ele>
        <time>2021-09-28T10:51:04+02:00</time>
      </trkpt>
      <trkpt lat="44.36843" lon="4.83101">
        <ele>239.60059</ele>
        <time>2021-09-28T10:51:10+02:00</time>
      </trkpt>
      <trkpt lat="44.36852" lon="4.83109">
        <ele>239.60059</ele>
        <time>2021-09-28T10:51:15+02:00</time>
      </trkpt>
      <trkpt lat="44.36864" lon="4.83111">
        <ele>240.10059</ele>
        <time>2021-09-28T10:51:20+02:00</time>
      </trkpt>
      <trkpt lat="44.36875" lon="4.83111">
        <ele>240.60059</ele>
        <time>2021-09-28T10:51:25+02:00</time>
      </trkpt>
      <trkpt lat="44.36886" lon="4.83112">
        <ele>241.2002</ele>
        <time>2021-09-28T10:51:30+02:00</time>
      </trkpt>
      <trkpt lat="44.36901" lon="4.83111">
        <ele>241.7002</ele>
        <time>2021-09-28T10:51:36+02:00</time>
      </trkpt>
      <trkpt lat="44.36913" lon="4.83114">
        <ele>242.2998</ele>
        <time>2021-09-28T10:51:41+02:00</time>
      </trkpt>
      <trkpt lat="44.36924" lon="4.83115">
        <ele>242.7002</ele>
        <time>2021-09-28T10:51:46+02:00</time>
      </trkpt>
      <trkpt lat="44.36931" lon="4.83114">
        <ele>243.60059</ele>
        <time>2021-09-28T10:51:51+02:00</time>
      </trkpt>
      <trkpt lat="44.36937" lon="4.83102">
        <ele>244.60059</ele>
        <time>2021-09-28T10:51:56+02:00</time>
      </trkpt>
      <trkpt lat="44.36938" lon="4.83082">
        <ele>245.2998</ele>
        <time>2021-09-28T10:52:01+02:00</time>
      </trkpt>
      <trkpt lat="44.3694" lon="4.83056">
        <ele>246.2002</ele>
        <time>2021-09-28T10:52:07+02:00</time>
      </trkpt>
      <trkpt lat="44.36941" lon="4.83032">
        <ele>246.60059</ele>
        <time>2021-09-28T10:52:13+02:00</time>
      </trkpt>
      <trkpt lat="44.36941" lon="4.83013">
        <ele>247</ele>
        <time>2021-09-28T10:52:18+02:00</time>
      </trkpt>
      <trkpt lat="44.36942" lon="4.82996">
        <ele>247.60059</ele>
        <time>2021-09-28T10:52:23+02:00</time>
      </trkpt>
      <trkpt lat="44.36943" lon="4.82979">
        <ele>248.60059</ele>
        <time>2021-09-28T10:52:28+02:00</time>
      </trkpt>
      <trkpt lat="44.3694" lon="4.82961">
        <ele>250.60059</ele>
        <time>2021-09-28T10:52:34+02:00</time>
      </trkpt>
      <trkpt lat="44.36937" lon="4.82947">
        <ele>250.7998</ele>
        <time>2021-09-28T10:52:39+02:00</time>
      </trkpt>
      <trkpt lat="44.36932" lon="4.82932">
        <ele>251.7002</ele>
        <time>2021-09-28T10:52:44+02:00</time>
      </trkpt>
      <trkpt lat="44.36939" lon="4.82926">
        <ele>253.5</ele>
        <time>2021-09-28T10:52:49+02:00</time>
      </trkpt>
      <trkpt lat="44.3695" lon="4.82936">
        <ele>252.7998</ele>
        <time>2021-09-28T10:52:54+02:00</time>
      </trkpt>
      <trkpt lat="44.36962" lon="4.82944">
        <ele>252.90039</ele>
        <time>2021-09-28T10:53:00+02:00</time>
      </trkpt>
      <trkpt lat="44.36973" lon="4.82944">
        <ele>254</ele>
        <time>2021-09-28T10:53:05+02:00</time>
      </trkpt>
      <trkpt lat="44.36984" lon="4.82949">
        <ele>255.2002</ele>
        <time>2021-09-28T10:53:10+02:00</time>
      </trkpt>
      <trkpt lat="44.36993" lon="4.82953">
        <ele>255</ele>
        <time>2021-09-28T10:53:15+02:00</time>
      </trkpt>
      <trkpt lat="44.37002" lon="4.82959">
        <ele>256.6006</ele>
        <time>2021-09-28T10:53:20+02:00</time>
      </trkpt>
      <trkpt lat="44.3701" lon="4.82963">
        <ele>256.7998</ele>
        <time>2021-09-28T10:53:26+02:00</time>
      </trkpt>
      <trkpt lat="44.37013" lon="4.82953">
        <ele>257.5</ele>
        <time>2021-09-28T10:53:31+02:00</time>
      </trkpt>
      <trkpt lat="44.37015" lon="4.82943">
        <ele>259.7998</ele>
        <time>2021-09-28T10:53:36+02:00</time>
      </trkpt>
      <trkpt lat="44.37018" lon="4.82932">
        <ele>260.6006</ele>
        <time>2021-09-28T10:53:41+02:00</time>
      </trkpt>
      <trkpt lat="44.37022" lon="4.82923">
        <ele>262.1006</ele>
        <time>2021-09-28T10:53:46+02:00</time>
      </trkpt>
      <trkpt lat="44.37023" lon="4.82919">
        <ele>262.1006</ele>
        <time>2021-09-28T10:53:51+02:00</time>
      </trkpt>
      <trkpt lat="44.37026" lon="4.82907">
        <ele>264.2002</ele>
        <time>2021-09-28T10:53:56+02:00</time>
      </trkpt>
      <trkpt lat="44.37026" lon="4.82896">
        <ele>264.9004</ele>
        <time>2021-09-28T10:54:01+02:00</time>
      </trkpt>
      <trkpt lat="44.37028" lon="4.82883">
        <ele>266.2998</ele>
        <time>2021-09-28T10:54:06+02:00</time>
      </trkpt>
      <trkpt lat="44.37033" lon="4.82869">
        <ele>267.6006</ele>
        <time>2021-09-28T10:54:11+02:00</time>
      </trkpt>
      <trkpt lat="44.37039" lon="4.82857">
        <ele>269.5</ele>
        <time>2021-09-28T10:54:16+02:00</time>
      </trkpt>
      <trkpt lat="44.37041" lon="4.82844">
        <ele>270</ele>
        <time>2021-09-28T10:54:21+02:00</time>
      </trkpt>
      <trkpt lat="44.37046" lon="4.82827">
        <ele>271.2998</ele>
        <time>2021-09-28T10:54:26+02:00</time>
      </trkpt>
      <trkpt lat="44.37047" lon="4.82811">
        <ele>272.5</ele>
        <time>2021-09-28T10:54:31+02:00</time>
      </trkpt>
      <trkpt lat="44.37046" lon="4.82798">
        <ele>273.7002</ele>
        <time>2021-09-28T10:54:36+02:00</time>
      </trkpt>
      <trkpt lat="44.37045" lon="4.82783">
        <ele>274.2998</ele>
        <time>2021-09-28T10:54:41+02:00</time>
      </trkpt>
      <trkpt lat="44.37044" lon="4.82768">
        <ele>275.5</ele>
        <time>2021-09-28T10:54:46+02:00</time>
      </trkpt>
      <trkpt lat="44.37042" lon="4.82752">
        <ele>276.7002</ele>
        <time>2021-09-28T10:54:51+02:00</time>
      </trkpt>
      <trkpt lat="44.37041" lon="4.82734">
        <ele>277.9004</ele>
        <time>2021-09-28T10:54:56+02:00</time>
      </trkpt>
      <trkpt lat="44.3704" lon="4.82716">
        <ele>278.9004</ele>
        <time>2021-09-28T10:55:01+02:00</time>
      </trkpt>
      <trkpt lat="44.37039" lon="4.82697">
        <ele>279.7998</ele>
        <time>2021-09-28T10:55:06+02:00</time>
      </trkpt>
      <trkpt lat="44.37036" lon="4.82679">
        <ele>280.5</ele>
        <time>2021-09-28T10:55:11+02:00</time>
      </trkpt>
      <trkpt lat="44.37034" lon="4.82661">
        <ele>281.2998</ele>
        <time>2021-09-28T10:55:16+02:00</time>
      </trkpt>
      <trkpt lat="44.37034" lon="4.82647">
        <ele>282.1006</ele>
        <time>2021-09-28T10:55:21+02:00</time>
      </trkpt>
      <trkpt lat="44.37036" lon="4.82629">
        <ele>282.7998</ele>
        <time>2021-09-28T10:55:26+02:00</time>
      </trkpt>
      <trkpt lat="44.37039" lon="4.82613">
        <ele>283.5</ele>
        <time>2021-09-28T10:55:31+02:00</time>
      </trkpt>
      <trkpt lat="44.37043" lon="4.82601">
        <ele>283.7998</ele>
        <time>2021-09-28T10:55:36+02:00</time>
      </trkpt>
      <trkpt lat="44.37045" lon="4.82587">
        <ele>284.7002</ele>
        <time>2021-09-28T10:55:41+02:00</time>
      </trkpt>
      <trkpt lat="44.37049" lon="4.82572">
        <ele>285.4004</ele>
        <time>2021-09-28T10:55:46+02:00</time>
      </trkpt>
      <trkpt lat="44.3705" lon="4.82555">
        <ele>286.5</ele>
        <time>2021-09-28T10:55:51+02:00</time>
      </trkpt>
      <trkpt lat="44.37059" lon="4.82544">
        <ele>287.2002</ele>
        <time>2021-09-28T10:55:56+02:00</time>
      </trkpt>
      <trkpt lat="44.37069" lon="4.82542">
        <ele>287.7002</ele>
        <time>2021-09-28T10:56:01+02:00</time>
      </trkpt>
      <trkpt lat="44.37079" lon="4.82551">
        <ele>287.5</ele>
        <time>2021-09-28T10:56:06+02:00</time>
      </trkpt>
      <trkpt lat="44.3709" lon="4.82563">
        <ele>287.7002</ele>
        <time>2021-09-28T10:56:11+02:00</time>
      </trkpt>
      <trkpt lat="44.37101" lon="4.82579">
        <ele>287.9004</ele>
        <time>2021-09-28T10:56:16+02:00</time>
      </trkpt>
      <trkpt lat="44.37112" lon="4.82596">
        <ele>288.6006</ele>
        <time>2021-09-28T10:56:21+02:00</time>
      </trkpt>
      <trkpt lat="44.37123" lon="4.82606">
        <ele>288.9004</ele>
        <time>2021-09-28T10:56:26+02:00</time>
      </trkpt>
      <trkpt lat="44.37136" lon="4.82615">
        <ele>289.9004</ele>
        <time>2021-09-28T10:56:31+02:00</time>
      </trkpt>
      <trkpt lat="44.37146" lon="4.82622">
        <ele>289.7998</ele>
        <time>2021-09-28T10:56:36+02:00</time>
      </trkpt>
      <trkpt lat="44.37159" lon="4.82624">
        <ele>290.5</ele>
        <time>2021-09-28T10:56:41+02:00</time>
      </trkpt>
      <trkpt lat="44.37177" lon="4.82621">
        <ele>291.2998</ele>
        <time>2021-09-28T10:56:46+02:00</time>
      </trkpt>
      <trkpt lat="44.37194" lon="4.82623">
        <ele>292</ele>
        <time>2021-09-28T10:56:51+02:00</time>
      </trkpt>
      <trkpt lat="44.3721" lon="4.82624">
        <ele>292.7998</ele>
        <time>2021-09-28T10:56:56+02:00</time>
      </trkpt>
      <trkpt lat="44.37225" lon="4.82616">
        <ele>293.4004</ele>
        <time>2021-09-28T10:57:01+02:00</time>
      </trkpt>
      <trkpt lat="44.37238" lon="4.82608">
        <ele>293.9004</ele>
        <time>2021-09-28T10:57:06+02:00</time>
      </trkpt>
      <trkpt lat="44.37246" lon="4.826">
        <ele>294.2002</ele>
        <time>2021-09-28T10:57:11+02:00</time>
      </trkpt>
      <trkpt lat="44.37256" lon="4.82588">
        <ele>294.6006</ele>
        <time>2021-09-28T10:57:16+02:00</time>
      </trkpt>
      <trkpt lat="44.37267" lon="4.82578">
        <ele>294.9004</ele>
        <time>2021-09-28T10:57:21+02:00</time>
      </trkpt>
      <trkpt lat="44.37279" lon="4.82571">
        <ele>295.1006</ele>
        <time>2021-09-28T10:57:26+02:00</time>
      </trkpt>
      <trkpt lat="44.37291" lon="4.82562">
        <ele>295.2002</ele>
        <time>2021-09-28T10:57:31+02:00</time>
      </trkpt>
      <trkpt lat="44.37305" lon="4.82549">
        <ele>295.4004</ele>
        <time>2021-09-28T10:57:36+02:00</time>
      </trkpt>
      <trkpt lat="44.37319" lon="4.82546">
        <ele>295.6006</ele>
        <time>2021-09-28T10:57:41+02:00</time>
      </trkpt>
      <trkpt lat="44.37333" lon="4.82558">
        <ele>295.1006</ele>
        <time>2021-09-28T10:57:46+02:00</time>
      </trkpt>
      <trkpt lat="44.37346" lon="4.8257">
        <ele>294.9004</ele>
        <time>2021-09-28T10:57:51+02:00</time>
      </trkpt>
      <trkpt lat="44.3736" lon="4.82584">
        <ele>294.7998</ele>
        <time>2021-09-28T10:57:56+02:00</time>
      </trkpt>
      <trkpt lat="44.37377" lon="4.82584">
        <ele>294.9004</ele>
        <time>2021-09-28T10:58:01+02:00</time>
      </trkpt>
      <trkpt lat="44.37389" lon="4.82575">
        <ele>295.1006</ele>
        <time>2021-09-28T10:58:06+02:00</time>
      </trkpt>
      <trkpt lat="44.37405" lon="4.82569">
        <ele>295.2998</ele>
        <time>2021-09-28T10:58:11+02:00</time>
      </trkpt>
      <trkpt lat="44.37422" lon="4.82565">
        <ele>295.2002</ele>
        <time>2021-09-28T10:58:16+02:00</time>
      </trkpt>
      <trkpt lat="44.3744" lon="4.82565">
        <ele>294.9004</ele>
        <time>2021-09-28T10:58:21+02:00</time>
      </trkpt>
      <trkpt lat="44.37456" lon="4.82564">
        <ele>294.4004</ele>
        <time>2021-09-28T10:58:26+02:00</time>
      </trkpt>
      <trkpt lat="44.37464" lon="4.82561">
        <ele>294.2002</ele>
        <time>2021-09-28T10:58:31+02:00</time>
      </trkpt>
      <trkpt lat="44.37467" lon="4.8255">
        <ele>293.9004</ele>
        <time>2021-09-28T10:58:36+02:00</time>
      </trkpt>
      <trkpt lat="44.37478" lon="4.82537">
        <ele>293</ele>
        <time>2021-09-28T10:58:41+02:00</time>
      </trkpt>
      <trkpt lat="44.37487" lon="4.82521">
        <ele>292.5</ele>
        <time>2021-09-28T10:58:46+02:00</time>
      </trkpt>
      <trkpt lat="44.37494" lon="4.82504">
        <ele>292.4004</ele>
        <time>2021-09-28T10:58:51+02:00</time>
      </trkpt>
      <trkpt lat="44.37499" lon="4.82487">
        <ele>292.4004</ele>
        <time>2021-09-28T10:58:56+02:00</time>
      </trkpt>
      <trkpt lat="44.37506" lon="4.82467">
        <ele>292.6006</ele>
        <time>2021-09-28T10:59:01+02:00</time>
      </trkpt>
      <trkpt lat="44.37511" lon="4.82448">
        <ele>292.9004</ele>
        <time>2021-09-28T10:59:06+02:00</time>
      </trkpt>
      <trkpt lat="44.3751" lon="4.82427">
        <ele>293.7998</ele>
        <time>2021-09-28T10:59:11+02:00</time>
      </trkpt>
      <trkpt lat="44.37508" lon="4.82407">
        <ele>294.2002</ele>
        <time>2021-09-28T10:59:16+02:00</time>
      </trkpt>
      <trkpt lat="44.37508" lon="4.82388">
        <ele>294.4004</ele>
        <time>2021-09-28T10:59:21+02:00</time>
      </trkpt>
      <trkpt lat="44.37511" lon="4.82369">
        <ele>294.5</ele>
        <time>2021-09-28T10:59:26+02:00</time>
      </trkpt>
      <trkpt lat="44.37503" lon="4.82357">
        <ele>294.9004</ele>
        <time>2021-09-28T10:59:31+02:00</time>
      </trkpt>
      <trkpt lat="44.37506" lon="4.82342">
        <ele>294.6006</ele>
        <time>2021-09-28T10:59:36+02:00</time>
      </trkpt>
      <trkpt lat="44.37513" lon="4.82327">
        <ele>294.2002</ele>
        <time>2021-09-28T10:59:41+02:00</time>
      </trkpt>
      <trkpt lat="44.37513" lon="4.82309">
        <ele>293.6006</ele>
        <time>2021-09-28T10:59:46+02:00</time>
      </trkpt>
      <trkpt lat="44.37516" lon="4.823">
        <ele>292.7002</ele>
        <time>2021-09-28T10:59:51+02:00</time>
      </trkpt>
      <trkpt lat="44.37525" lon="4.82298">
        <ele>292.5</ele>
        <time>2021-09-28T10:59:56+02:00</time>
      </trkpt>
      <trkpt lat="44.37534" lon="4.82301">
        <ele>292.7002</ele>
        <time>2021-09-28T11:00:01+02:00</time>
      </trkpt>
      <trkpt lat="44.37543" lon="4.82284">
        <ele>291.5</ele>
        <time>2021-09-28T11:00:06+02:00</time>
      </trkpt>
      <trkpt lat="44.37549" lon="4.82252">
        <ele>290</ele>
        <time>2021-09-28T11:00:11+02:00</time>
      </trkpt>
      <trkpt lat="44.37548" lon="4.82217">
        <ele>288.9004</ele>
        <time>2021-09-28T11:00:16+02:00</time>
      </trkpt>
      <trkpt lat="44.37539" lon="4.82179">
        <ele>287.4004</ele>
        <time>2021-09-28T11:00:21+02:00</time>
      </trkpt>
      <trkpt lat="44.37529" lon="4.82139">
        <ele>286.2002</ele>
        <time>2021-09-28T11:00:26+02:00</time>
      </trkpt>
      <trkpt lat="44.37509" lon="4.82105">
        <ele>285.5</ele>
        <time>2021-09-28T11:00:31+02:00</time>
      </trkpt>
      <trkpt lat="44.37487" lon="4.82074">
        <ele>284.2002</ele>
        <time>2021-09-28T11:00:36+02:00</time>
      </trkpt>
      <trkpt lat="44.37462" lon="4.82046">
        <ele>283.2998</ele>
        <time>2021-09-28T11:00:41+02:00</time>
      </trkpt>
      <trkpt lat="44.37437" lon="4.82012">
        <ele>282.5</ele>
        <time>2021-09-28T11:00:46+02:00</time>
      </trkpt>
      <trkpt lat="44.37417" lon="4.81973">
        <ele>280.5</ele>
        <time>2021-09-28T11:00:51+02:00</time>
      </trkpt>
      <trkpt lat="44.37399" lon="4.81934">
        <ele>278.2002</ele>
        <time>2021-09-28T11:00:56+02:00</time>
      </trkpt>
      <trkpt lat="44.37381" lon="4.81902">
        <ele>275.2998</ele>
        <time>2021-09-28T11:01:01+02:00</time>
      </trkpt>
      <trkpt lat="44.37378" lon="4.81856">
        <ele>271.5</ele>
        <time>2021-09-28T11:01:06+02:00</time>
      </trkpt>
      <trkpt lat="44.37357" lon="4.8181">
        <ele>266</ele>
        <time>2021-09-28T11:01:11+02:00</time>
      </trkpt>
      <trkpt lat="44.37337" lon="4.81755">
        <ele>262</ele>
        <time>2021-09-28T11:01:16+02:00</time>
      </trkpt>
      <trkpt lat="44.37321" lon="4.81683">
        <ele>257.1006</ele>
        <time>2021-09-28T11:01:21+02:00</time>
      </trkpt>
      <trkpt lat="44.37303" lon="4.81604">
        <ele>251.7002</ele>
        <time>2021-09-28T11:01:26+02:00</time>
      </trkpt>
      <trkpt lat="44.37302" lon="4.81528">
        <ele>250.10059</ele>
        <time>2021-09-28T11:01:31+02:00</time>
      </trkpt>
      <trkpt lat="44.37323" lon="4.8149">
        <ele>251.2002</ele>
        <time>2021-09-28T11:01:36+02:00</time>
      </trkpt>
      <trkpt lat="44.37339" lon="4.81471">
        <ele>252.40039</ele>
        <time>2021-09-28T11:01:41+02:00</time>
      </trkpt>
      <trkpt lat="44.37351" lon="4.81457">
        <ele>253.2998</ele>
        <time>2021-09-28T11:01:46+02:00</time>
      </trkpt>
      <trkpt lat="44.37362" lon="4.81444">
        <ele>253.7002</ele>
        <time>2021-09-28T11:01:51+02:00</time>
      </trkpt>
      <trkpt lat="44.37373" lon="4.81432">
        <ele>254.2002</ele>
        <time>2021-09-28T11:01:56+02:00</time>
      </trkpt>
      <trkpt lat="44.37384" lon="4.81421">
        <ele>254.40039</ele>
        <time>2021-09-28T11:02:01+02:00</time>
      </trkpt>
      <trkpt lat="44.37397" lon="4.81411">
        <ele>254.7002</ele>
        <time>2021-09-28T11:02:06+02:00</time>
      </trkpt>
      <trkpt lat="44.37412" lon="4.81402">
        <ele>255</ele>
        <time>2021-09-28T11:02:11+02:00</time>
      </trkpt>
      <trkpt lat="44.37428" lon="4.81398">
        <ele>255.40039</ele>
        <time>2021-09-28T11:02:16+02:00</time>
      </trkpt>
      <trkpt lat="44.37445" lon="4.81391">
        <ele>255.5</ele>
        <time>2021-09-28T11:02:21+02:00</time>
      </trkpt>
      <trkpt lat="44.3746" lon="4.81379">
        <ele>255.90039</ele>
        <time>2021-09-28T11:02:26+02:00</time>
      </trkpt>
      <trkpt lat="44.37474" lon="4.81363">
        <ele>256</ele>
        <time>2021-09-28T11:02:31+02:00</time>
      </trkpt>
      <trkpt lat="44.3749" lon="4.81349">
        <ele>255.7998</ele>
        <time>2021-09-28T11:02:36+02:00</time>
      </trkpt>
      <trkpt lat="44.37506" lon="4.81336">
        <ele>254.2002</ele>
        <time>2021-09-28T11:02:41+02:00</time>
      </trkpt>
      <trkpt lat="44.37519" lon="4.81318">
        <ele>252.60059</ele>
        <time>2021-09-28T11:02:46+02:00</time>
      </trkpt>
      <trkpt lat="44.37532" lon="4.81297">
        <ele>251.10059</ele>
        <time>2021-09-28T11:02:51+02:00</time>
      </trkpt>
      <trkpt lat="44.37537" lon="4.81281">
        <ele>249.7998</ele>
        <time>2021-09-28T11:02:56+02:00</time>
      </trkpt>
      <trkpt lat="44.37532" lon="4.81264">
        <ele>249.40039</ele>
        <time>2021-09-28T11:03:01+02:00</time>
      </trkpt>
      <trkpt lat="44.37522" lon="4.81248">
        <ele>249</ele>
        <time>2021-09-28T11:03:06+02:00</time>
      </trkpt>
      <trkpt lat="44.37514" lon="4.81233">
        <ele>249.2998</ele>
        <time>2021-09-28T11:03:11+02:00</time>
      </trkpt>
      <trkpt lat="44.37511" lon="4.81226">
        <ele>248.60059</ele>
        <time>2021-09-28T11:03:16+02:00</time>
      </trkpt>
      <trkpt lat="44.37502" lon="4.81211">
        <ele>249.40039</ele>
        <time>2021-09-28T11:03:21+02:00</time>
      </trkpt>
      <trkpt lat="44.3749" lon="4.8119">
        <ele>248.90039</ele>
        <time>2021-09-28T11:03:26+02:00</time>
      </trkpt>
      <trkpt lat="44.37478" lon="4.8117">
        <ele>249.2002</ele>
        <time>2021-09-28T11:03:31+02:00</time>
      </trkpt>
      <trkpt lat="44.37465" lon="4.81151">
        <ele>249.40039</ele>
        <time>2021-09-28T11:03:36+02:00</time>
      </trkpt>
      <trkpt lat="44.37451" lon="4.81133">
        <ele>249.40039</ele>
        <time>2021-09-28T11:03:41+02:00</time>
      </trkpt>
      <trkpt lat="44.37436" lon="4.81112">
        <ele>248.60059</ele>
        <time>2021-09-28T11:03:46+02:00</time>
      </trkpt>
      <trkpt lat="44.3742" lon="4.8109">
        <ele>249.7002</ele>
        <time>2021-09-28T11:03:51+02:00</time>
      </trkpt>
      <trkpt lat="44.37402" lon="4.81065">
        <ele>249.7002</ele>
        <time>2021-09-28T11:03:56+02:00</time>
      </trkpt>
      <trkpt lat="44.37384" lon="4.81039">
        <ele>249.2002</ele>
        <time>2021-09-28T11:04:01+02:00</time>
      </trkpt>
      <trkpt lat="44.37363" lon="4.8101">
        <ele>248</ele>
        <time>2021-09-28T11:04:06+02:00</time>
      </trkpt>
      <trkpt lat="44.37342" lon="4.8098">
        <ele>247.90039</ele>
        <time>2021-09-28T11:04:11+02:00</time>
      </trkpt>
      <trkpt lat="44.3732" lon="4.80951">
        <ele>246.7002</ele>
        <time>2021-09-28T11:04:16+02:00</time>
      </trkpt>
      <trkpt lat="44.37295" lon="4.80936">
        <ele>244.7998</ele>
        <time>2021-09-28T11:04:21+02:00</time>
      </trkpt>
      <trkpt lat="44.37272" lon="4.80934">
        <ele>242.7002</ele>
        <time>2021-09-28T11:04:26+02:00</time>
      </trkpt>
      <trkpt lat="44.37251" lon="4.80927">
        <ele>240.5</ele>
        <time>2021-09-28T11:04:31+02:00</time>
      </trkpt>
      <trkpt lat="44.37235" lon="4.80902">
        <ele>239.10059</ele>
        <time>2021-09-28T11:04:36+02:00</time>
      </trkpt>
      <trkpt lat="44.3722" lon="4.80877">
        <ele>238</ele>
        <time>2021-09-28T11:04:41+02:00</time>
      </trkpt>
      <trkpt lat="44.37203" lon="4.80867">
        <ele>237.90039</ele>
        <time>2021-09-28T11:04:46+02:00</time>
      </trkpt>
      <trkpt lat="44.37182" lon="4.80865">
        <ele>237.60059</ele>
        <time>2021-09-28T11:04:51+02:00</time>
      </trkpt>
      <trkpt lat="44.37166" lon="4.80863">
        <ele>236.40039</ele>
        <time>2021-09-28T11:04:56+02:00</time>
      </trkpt>
      <trkpt lat="44.37149" lon="4.80862">
        <ele>234.7998</ele>
        <time>2021-09-28T11:05:01+02:00</time>
      </trkpt>
      <trkpt lat="44.37139" lon="4.80866">
        <ele>232.7002</ele>
        <time>2021-09-28T11:05:06+02:00</time>
      </trkpt>
      <trkpt lat="44.37132" lon="4.8087">
        <ele>230.60059</ele>
        <time>2021-09-28T11:05:11+02:00</time>
      </trkpt>
      <trkpt lat="44.37119" lon="4.80867">
        <ele>228</ele>
        <time>2021-09-28T11:05:16+02:00</time>
      </trkpt>
      <trkpt lat="44.37111" lon="4.80861">
        <ele>226.2002</ele>
        <time>2021-09-28T11:05:21+02:00</time>
      </trkpt>
      <trkpt lat="44.37103" lon="4.80854">
        <ele>225.7998</ele>
        <time>2021-09-28T11:05:26+02:00</time>
      </trkpt>
      <trkpt lat="44.37097" lon="4.8084">
        <ele>226.2002</ele>
        <time>2021-09-28T11:05:31+02:00</time>
      </trkpt>
      <trkpt lat="44.37097" lon="4.80821">
        <ele>227.7998</ele>
        <time>2021-09-28T11:05:36+02:00</time>
      </trkpt>
      <trkpt lat="44.37095" lon="4.808">
        <ele>229.5</ele>
        <time>2021-09-28T11:05:41+02:00</time>
      </trkpt>
      <trkpt lat="44.37091" lon="4.80777">
        <ele>230.60059</ele>
        <time>2021-09-28T11:05:46+02:00</time>
      </trkpt>
      <trkpt lat="44.37085" lon="4.80754">
        <ele>231.5</ele>
        <time>2021-09-28T11:05:51+02:00</time>
      </trkpt>
      <trkpt lat="44.37079" lon="4.80745">
        <ele>230.60059</ele>
        <time>2021-09-28T11:05:56+02:00</time>
      </trkpt>
      <trkpt lat="44.37076" lon="4.80755">
        <ele>229.2002</ele>
        <time>2021-09-28T11:06:01+02:00</time>
      </trkpt>
      <trkpt lat="44.37075" lon="4.80776">
        <ele>227.5</ele>
        <time>2021-09-28T11:06:06+02:00</time>
      </trkpt>
      <trkpt lat="44.37074" lon="4.80801">
        <ele>223.5</ele>
        <time>2021-09-28T11:06:11+02:00</time>
      </trkpt>
      <trkpt lat="44.37072" lon="4.8083">
        <ele>221.5</ele>
        <time>2021-09-28T11:06:16+02:00</time>
      </trkpt>
      <trkpt lat="44.37067" lon="4.80856">
        <ele>218.40039</ele>
        <time>2021-09-28T11:06:21+02:00</time>
      </trkpt>
      <trkpt lat="44.3705" lon="4.8083">
        <ele>217.60059</ele>
        <time>2021-09-28T11:06:26+02:00</time>
      </trkpt>
      <trkpt lat="44.37032" lon="4.80784">
        <ele>216.10059</ele>
        <time>2021-09-28T11:06:31+02:00</time>
      </trkpt>
      <trkpt lat="44.37009" lon="4.80728">
        <ele>212.7002</ele>
        <time>2021-09-28T11:06:36+02:00</time>
      </trkpt>
      <trkpt lat="44.36973" lon="4.80687">
        <ele>206.10059</ele>
        <time>2021-09-28T11:06:41+02:00</time>
      </trkpt>
      <trkpt lat="44.36929" lon="4.80682">
        <ele>200.60059</ele>
        <time>2021-09-28T11:06:46+02:00</time>
      </trkpt>
      <trkpt lat="44.36889" lon="4.80681">
        <ele>196.7002</ele>
        <time>2021-09-28T11:06:51+02:00</time>
      </trkpt>
      <trkpt lat="44.36855" lon="4.80654">
        <ele>192.60059</ele>
        <time>2021-09-28T11:06:56+02:00</time>
      </trkpt>
      <trkpt lat="44.36825" lon="4.80625">
        <ele>188.7002</ele>
        <time>2021-09-28T11:07:01+02:00</time>
      </trkpt>
      <trkpt lat="44.36808" lon="4.80618">
        <ele>186.2998</ele>
        <time>2021-09-28T11:07:06+02:00</time>
      </trkpt>
      <trkpt lat="44.36805" lon="4.80637">
        <ele>186.2002</ele>
        <time>2021-09-28T11:07:11+02:00</time>
      </trkpt>
      <trkpt lat="44.36806" lon="4.8066">
        <ele>185.90039</ele>
        <time>2021-09-28T11:07:16+02:00</time>
      </trkpt>
      <trkpt lat="44.36812" lon="4.80683">
        <ele>186.5</ele>
        <time>2021-09-28T11:07:21+02:00</time>
      </trkpt>
      <trkpt lat="44.36822" lon="4.80701">
        <ele>187.40039</ele>
        <time>2021-09-28T11:07:26+02:00</time>
      </trkpt>
      <trkpt lat="44.36834" lon="4.80716">
        <ele>189.10059</ele>
        <time>2021-09-28T11:07:31+02:00</time>
      </trkpt>
      <trkpt lat="44.36847" lon="4.80731">
        <ele>191</ele>
        <time>2021-09-28T11:07:36+02:00</time>
      </trkpt>
      <trkpt lat="44.36859" lon="4.80764">
        <ele>189.5</ele>
        <time>2021-09-28T11:07:41+02:00</time>
      </trkpt>
      <trkpt lat="44.36851" lon="4.80801">
        <ele>185.7002</ele>
        <time>2021-09-28T11:07:46+02:00</time>
      </trkpt>
      <trkpt lat="44.36853" lon="4.8084">
        <ele>181.90039</ele>
        <time>2021-09-28T11:07:51+02:00</time>
      </trkpt>
      <trkpt lat="44.36876" lon="4.80883">
        <ele>179.90039</ele>
        <time>2021-09-28T11:07:56+02:00</time>
      </trkpt>
      <trkpt lat="44.36905" lon="4.80927">
        <ele>177.2002</ele>
        <time>2021-09-28T11:08:01+02:00</time>
      </trkpt>
      <trkpt lat="44.36931" lon="4.8096">
        <ele>177.7002</ele>
        <time>2021-09-28T11:08:06+02:00</time>
      </trkpt>
      <trkpt lat="44.36949" lon="4.80981">
        <ele>179</ele>
        <time>2021-09-28T11:08:11+02:00</time>
      </trkpt>
      <trkpt lat="44.36955" lon="4.81005">
        <ele>179.2998</ele>
        <time>2021-09-28T11:08:16+02:00</time>
      </trkpt>
      <trkpt lat="44.36957" lon="4.8103">
        <ele>179.2002</ele>
        <time>2021-09-28T11:08:21+02:00</time>
      </trkpt>
      <trkpt lat="44.36954" lon="4.81054">
        <ele>179.2998</ele>
        <time>2021-09-28T11:08:26+02:00</time>
      </trkpt>
      <trkpt lat="44.36947" lon="4.81082">
        <ele>179.10059</ele>
        <time>2021-09-28T11:08:31+02:00</time>
      </trkpt>
      <trkpt lat="44.36941" lon="4.81111">
        <ele>179.2998</ele>
        <time>2021-09-28T11:08:36+02:00</time>
      </trkpt>
      <trkpt lat="44.36937" lon="4.81138">
        <ele>180.10059</ele>
        <time>2021-09-28T11:08:41+02:00</time>
      </trkpt>
      <trkpt lat="44.36934" lon="4.81164">
        <ele>181.40039</ele>
        <time>2021-09-28T11:08:46+02:00</time>
      </trkpt>
      <trkpt lat="44.36932" lon="4.81191">
        <ele>181.7002</ele>
        <time>2021-09-28T11:08:51+02:00</time>
      </trkpt>
      <trkpt lat="44.36933" lon="4.81216">
        <ele>182.2998</ele>
        <time>2021-09-28T11:08:56+02:00</time>
      </trkpt>
      <trkpt lat="44.36934" lon="4.81237">
        <ele>183.60059</ele>
        <time>2021-09-28T11:09:01+02:00</time>
      </trkpt>
      <trkpt lat="44.36935" lon="4.81258">
        <ele>184.7002</ele>
        <time>2021-09-28T11:09:06+02:00</time>
      </trkpt>
      <trkpt lat="44.36936" lon="4.81276">
        <ele>186.2002</ele>
        <time>2021-09-28T11:09:11+02:00</time>
      </trkpt>
      <trkpt lat="44.36938" lon="4.81293">
        <ele>188</ele>
        <time>2021-09-28T11:09:16+02:00</time>
      </trkpt>
      <trkpt lat="44.36934" lon="4.81309">
        <ele>190.10059</ele>
        <time>2021-09-28T11:09:21+02:00</time>
      </trkpt>
      <trkpt lat="44.36925" lon="4.81317">
        <ele>191</ele>
        <time>2021-09-28T11:09:26+02:00</time>
      </trkpt>
      <trkpt lat="44.36914" lon="4.81314">
        <ele>191</ele>
        <time>2021-09-28T11:09:31+02:00</time>
      </trkpt>
      <trkpt lat="44.36901" lon="4.8131">
        <ele>189.90039</ele>
        <time>2021-09-28T11:09:36+02:00</time>
      </trkpt>
      <trkpt lat="44.36883" lon="4.81304">
        <ele>189.2002</ele>
        <time>2021-09-28T11:09:41+02:00</time>
      </trkpt>
      <trkpt lat="44.3686" lon="4.81299">
        <ele>189.5</ele>
        <time>2021-09-28T11:09:46+02:00</time>
      </trkpt>
      <trkpt lat="44.36841" lon="4.81291">
        <ele>188.40039</ele>
        <time>2021-09-28T11:09:51+02:00</time>
      </trkpt>
      <trkpt lat="44.36826" lon="4.81284">
        <ele>187.7002</ele>
        <time>2021-09-28T11:09:56+02:00</time>
      </trkpt>
      <trkpt lat="44.36811" lon="4.81279">
        <ele>188</ele>
        <time>2021-09-28T11:10:01+02:00</time>
      </trkpt>
      <trkpt lat="44.36797" lon="4.81275">
        <ele>187.7998</ele>
        <time>2021-09-28T11:10:06+02:00</time>
      </trkpt>
      <trkpt lat="44.36782" lon="4.81269">
        <ele>187.60059</ele>
        <time>2021-09-28T11:10:11+02:00</time>
      </trkpt>
      <trkpt lat="44.36768" lon="4.81242">
        <ele>185.7002</ele>
        <time>2021-09-28T11:10:16+02:00</time>
      </trkpt>
      <trkpt lat="44.36747" lon="4.81197">
        <ele>183</ele>
        <time>2021-09-28T11:10:21+02:00</time>
      </trkpt>
      <trkpt lat="44.36721" lon="4.81149">
        <ele>178.90039</ele>
        <time>2021-09-28T11:10:26+02:00</time>
      </trkpt>
      <trkpt lat="44.36703" lon="4.8112">
        <ele>178</ele>
        <time>2021-09-28T11:10:31+02:00</time>
      </trkpt>
      <trkpt lat="44.3671" lon="4.81093">
        <ele>174.40039</ele>
        <time>2021-09-28T11:10:36+02:00</time>
      </trkpt>
      <trkpt lat="44.36704" lon="4.81063">
        <ele>171.90039</ele>
        <time>2021-09-28T11:10:41+02:00</time>
      </trkpt>
      <trkpt lat="44.36688" lon="4.81035">
        <ele>171.2002</ele>
        <time>2021-09-28T11:10:46+02:00</time>
      </trkpt>
      <trkpt lat="44.36671" lon="4.81008">
        <ele>170.40039</ele>
        <time>2021-09-28T11:10:51+02:00</time>
      </trkpt>
      <trkpt lat="44.36654" lon="4.8098">
        <ele>170.60059</ele>
        <time>2021-09-28T11:10:56+02:00</time>
      </trkpt>
      <trkpt lat="44.36644" lon="4.80947">
        <ele>169.5</ele>
        <time>2021-09-28T11:11:01+02:00</time>
      </trkpt>
      <trkpt lat="44.36634" lon="4.80912">
        <ele>167.7998</ele>
        <time>2021-09-28T11:11:06+02:00</time>
      </trkpt>
      <trkpt lat="44.36619" lon="4.80879">
        <ele>168.2002</ele>
        <time>2021-09-28T11:11:11+02:00</time>
      </trkpt>
      <trkpt lat="44.36603" lon="4.80848">
        <ele>167.2002</ele>
        <time>2021-09-28T11:11:16+02:00</time>
      </trkpt>
      <trkpt lat="44.36588" lon="4.80814">
        <ele>164.7998</ele>
        <time>2021-09-28T11:11:21+02:00</time>
      </trkpt>
      <trkpt lat="44.36571" lon="4.80795">
        <ele>163.60059</ele>
        <time>2021-09-28T11:11:26+02:00</time>
      </trkpt>
      <trkpt lat="44.36551" lon="4.80794">
        <ele>165.5</ele>
        <time>2021-09-28T11:11:31+02:00</time>
      </trkpt>
      <trkpt lat="44.36534" lon="4.80786">
        <ele>166.7998</ele>
        <time>2021-09-28T11:11:36+02:00</time>
      </trkpt>
      <trkpt lat="44.3652" lon="4.80776">
        <ele>167.40039</ele>
        <time>2021-09-28T11:11:41+02:00</time>
      </trkpt>
      <trkpt lat="44.36503" lon="4.80755">
        <ele>166.7002</ele>
        <time>2021-09-28T11:11:46+02:00</time>
      </trkpt>
      <trkpt lat="44.36482" lon="4.8073">
        <ele>167.10059</ele>
        <time>2021-09-28T11:11:51+02:00</time>
      </trkpt>
      <trkpt lat="44.36462" lon="4.80705">
        <ele>166</ele>
        <time>2021-09-28T11:11:56+02:00</time>
      </trkpt>
      <trkpt lat="44.36441" lon="4.80679">
        <ele>166.2002</ele>
        <time>2021-09-28T11:12:01+02:00</time>
      </trkpt>
      <trkpt lat="44.36424" lon="4.80649">
        <ele>164.10059</ele>
        <time>2021-09-28T11:12:06+02:00</time>
      </trkpt>
      <trkpt lat="44.36404" lon="4.80619">
        <ele>164.7002</ele>
        <time>2021-09-28T11:12:11+02:00</time>
      </trkpt>
      <trkpt lat="44.36393" lon="4.80589">
        <ele>161.60059</ele>
        <time>2021-09-28T11:12:16+02:00</time>
      </trkpt>
      <trkpt lat="44.36371" lon="4.8057">
        <ele>163.60059</ele>
        <time>2021-09-28T11:12:21+02:00</time>
      </trkpt>
      <trkpt lat="44.36349" lon="4.80542">
        <ele>165</ele>
        <time>2021-09-28T11:12:26+02:00</time>
      </trkpt>
      <trkpt lat="44.36327" lon="4.80516">
        <ele>165.2998</ele>
        <time>2021-09-28T11:12:31+02:00</time>
      </trkpt>
      <trkpt lat="44.36306" lon="4.80489">
        <ele>166.2002</ele>
        <time>2021-09-28T11:12:36+02:00</time>
      </trkpt>
      <trkpt lat="44.36284" lon="4.80463">
        <ele>166</ele>
        <time>2021-09-28T11:12:41+02:00</time>
      </trkpt>
      <trkpt lat="44.36262" lon="4.80445">
        <ele>166.40039</ele>
        <time>2021-09-28T11:12:46+02:00</time>
      </trkpt>
      <trkpt lat="44.36242" lon="4.80427">
        <ele>167</ele>
        <time>2021-09-28T11:12:51+02:00</time>
      </trkpt>
      <trkpt lat="44.36225" lon="4.80409">
        <ele>168.2002</ele>
        <time>2021-09-28T11:12:56+02:00</time>
      </trkpt>
      <trkpt lat="44.36211" lon="4.80391">
        <ele>167.90039</ele>
        <time>2021-09-28T11:13:01+02:00</time>
      </trkpt>
      <trkpt lat="44.36196" lon="4.80374">
        <ele>168.90039</ele>
        <time>2021-09-28T11:13:06+02:00</time>
      </trkpt>
      <trkpt lat="44.36183" lon="4.80357">
        <ele>168.7998</ele>
        <time>2021-09-28T11:13:11+02:00</time>
      </trkpt>
      <trkpt lat="44.36167" lon="4.80334">
        <ele>166.90039</ele>
        <time>2021-09-28T11:13:16+02:00</time>
      </trkpt>
      <trkpt lat="44.36152" lon="4.80307">
        <ele>165.60059</ele>
        <time>2021-09-28T11:13:21+02:00</time>
      </trkpt>
      <trkpt lat="44.36136" lon="4.80282">
        <ele>162.40039</ele>
        <time>2021-09-28T11:13:26+02:00</time>
      </trkpt>
      <trkpt lat="44.36121" lon="4.80259">
        <ele>160.7002</ele>
        <time>2021-09-28T11:13:31+02:00</time>
      </trkpt>
      <trkpt lat="44.36115" lon="4.80225">
        <ele>157.40039</ele>
        <time>2021-09-28T11:13:36+02:00</time>
      </trkpt>
      <trkpt lat="44.36098" lon="4.80202">
        <ele>155.10059</ele>
        <time>2021-09-28T11:13:41+02:00</time>
      </trkpt>
      <trkpt lat="44.36093" lon="4.80179">
        <ele>153.2998</ele>
        <time>2021-09-28T11:13:46+02:00</time>
      </trkpt>
      <trkpt lat="44.36104" lon="4.80147">
        <ele>152</ele>
        <time>2021-09-28T11:13:51+02:00</time>
      </trkpt>
      <trkpt lat="44.36119" lon="4.80106">
        <ele>149.2002</ele>
        <time>2021-09-28T11:13:56+02:00</time>
      </trkpt>
      <trkpt lat="44.36135" lon="4.80064">
        <ele>151.60059</ele>
        <time>2021-09-28T11:14:01+02:00</time>
      </trkpt>
      <trkpt lat="44.36136" lon="4.80036">
        <ele>154.7002</ele>
        <time>2021-09-28T11:14:06+02:00</time>
      </trkpt>
      <trkpt lat="44.36119" lon="4.80021">
        <ele>154.5</ele>
        <time>2021-09-28T11:14:11+02:00</time>
      </trkpt>
      <trkpt lat="44.36101" lon="4.80006">
        <ele>154.5</ele>
        <time>2021-09-28T11:14:16+02:00</time>
      </trkpt>
      <trkpt lat="44.36082" lon="4.79983">
        <ele>154.7002</ele>
        <time>2021-09-28T11:14:21+02:00</time>
      </trkpt>
      <trkpt lat="44.3606" lon="4.79957">
        <ele>156.60059</ele>
        <time>2021-09-28T11:14:26+02:00</time>
      </trkpt>
      <trkpt lat="44.36033" lon="4.79935">
        <ele>158.2998</ele>
        <time>2021-09-28T11:14:31+02:00</time>
      </trkpt>
      <trkpt lat="44.36003" lon="4.79919">
        <ele>156.90039</ele>
        <time>2021-09-28T11:14:36+02:00</time>
      </trkpt>
      <trkpt lat="44.35973" lon="4.79911">
        <ele>155</ele>
        <time>2021-09-28T11:14:41+02:00</time>
      </trkpt>
      <trkpt lat="44.35949" lon="4.7989">
        <ele>152.40039</ele>
        <time>2021-09-28T11:14:46+02:00</time>
      </trkpt>
      <trkpt lat="44.35935" lon="4.79852">
        <ele>148.2998</ele>
        <time>2021-09-28T11:14:51+02:00</time>
      </trkpt>
      <trkpt lat="44.35929" lon="4.79811">
        <ele>145.7002</ele>
        <time>2021-09-28T11:14:56+02:00</time>
      </trkpt>
      <trkpt lat="44.35921" lon="4.7977">
        <ele>143.10059</ele>
        <time>2021-09-28T11:15:01+02:00</time>
      </trkpt>
      <trkpt lat="44.35912" lon="4.79728">
        <ele>142</ele>
        <time>2021-09-28T11:15:06+02:00</time>
      </trkpt>
      <trkpt lat="44.35902" lon="4.79688">
        <ele>141.10059</ele>
        <time>2021-09-28T11:15:11+02:00</time>
      </trkpt>
      <trkpt lat="44.35895" lon="4.79648">
        <ele>141.90039</ele>
        <time>2021-09-28T11:15:16+02:00</time>
      </trkpt>
      <trkpt lat="44.35893" lon="4.79604">
        <ele>141.2998</ele>
        <time>2021-09-28T11:15:21+02:00</time>
      </trkpt>
      <trkpt lat="44.35882" lon="4.79564">
        <ele>138.7998</ele>
        <time>2021-09-28T11:15:26+02:00</time>
      </trkpt>
      <trkpt lat="44.35871" lon="4.79522">
        <ele>137.2002</ele>
        <time>2021-09-28T11:15:31+02:00</time>
      </trkpt>
      <trkpt lat="44.35853" lon="4.79487">
        <ele>136.2998</ele>
        <time>2021-09-28T11:15:36+02:00</time>
      </trkpt>
      <trkpt lat="44.35834" lon="4.79452">
        <ele>134.7998</ele>
        <time>2021-09-28T11:15:41+02:00</time>
      </trkpt>
      <trkpt lat="44.35818" lon="4.79419">
        <ele>134.5</ele>
        <time>2021-09-28T11:15:46+02:00</time>
      </trkpt>
      <trkpt lat="44.35805" lon="4.79387">
        <ele>133.10059</ele>
        <time>2021-09-28T11:15:51+02:00</time>
      </trkpt>
      <trkpt lat="44.35789" lon="4.79353">
        <ele>131.10059</ele>
        <time>2021-09-28T11:15:56+02:00</time>
      </trkpt>
      <trkpt lat="44.35771" lon="4.79304">
        <ele>128.2002</ele>
        <time>2021-09-28T11:16:01+02:00</time>
      </trkpt>
      <trkpt lat="44.35764" lon="4.7925">
        <ele>127.100586</ele>
        <time>2021-09-28T11:16:06+02:00</time>
      </trkpt>
      <trkpt lat="44.35751" lon="4.79221">
        <ele>125.600586</ele>
        <time>2021-09-28T11:16:11+02:00</time>
      </trkpt>
      <trkpt lat="44.3572" lon="4.79207">
        <ele>122.700195</ele>
        <time>2021-09-28T11:16:16+02:00</time>
      </trkpt>
      <trkpt lat="44.35687" lon="4.79183">
        <ele>120.700195</ele>
        <time>2021-09-28T11:16:21+02:00</time>
      </trkpt>
      <trkpt lat="44.3568" lon="4.79162">
        <ele>120</ele>
        <time>2021-09-28T11:16:26+02:00</time>
      </trkpt>
      <trkpt lat="44.35688" lon="4.79138">
        <ele>119.600586</ele>
        <time>2021-09-28T11:16:31+02:00</time>
      </trkpt>
      <trkpt lat="44.35696" lon="4.79107">
        <ele>119.100586</ele>
        <time>2021-09-28T11:16:36+02:00</time>
      </trkpt>
      <trkpt lat="44.35699" lon="4.79072">
        <ele>119.100586</ele>
        <time>2021-09-28T11:16:41+02:00</time>
      </trkpt>
      <trkpt lat="44.35697" lon="4.79035">
        <ele>119.700195</ele>
        <time>2021-09-28T11:16:46+02:00</time>
      </trkpt>
      <trkpt lat="44.35694" lon="4.78997">
        <ele>120.600586</ele>
        <time>2021-09-28T11:16:51+02:00</time>
      </trkpt>
      <trkpt lat="44.35691" lon="4.78963">
        <ele>122.299805</ele>
        <time>2021-09-28T11:16:56+02:00</time>
      </trkpt>
      <trkpt lat="44.35689" lon="4.78935">
        <ele>124.40039</ele>
        <time>2021-09-28T11:17:01+02:00</time>
      </trkpt>
      <trkpt lat="44.3569" lon="4.78914">
        <ele>125.40039</ele>
        <time>2021-09-28T11:17:06+02:00</time>
      </trkpt>
      <trkpt lat="44.3569" lon="4.78898">
        <ele>126.200195</ele>
        <time>2021-09-28T11:17:11+02:00</time>
      </trkpt>
      <trkpt lat="44.35692" lon="4.78881">
        <ele>126.700195</ele>
        <time>2021-09-28T11:17:16+02:00</time>
      </trkpt>
      <trkpt lat="44.35693" lon="4.78862">
        <ele>127.100586</ele>
        <time>2021-09-28T11:17:21+02:00</time>
      </trkpt>
      <trkpt lat="44.35694" lon="4.78844">
        <ele>127.40039</ele>
        <time>2021-09-28T11:17:26+02:00</time>
      </trkpt>
      <trkpt lat="44.35694" lon="4.78827">
        <ele>127.600586</ele>
        <time>2021-09-28T11:17:31+02:00</time>
      </trkpt>
      <trkpt lat="44.35693" lon="4.78805">
        <ele>127.799805</ele>
        <time>2021-09-28T11:17:36+02:00</time>
      </trkpt>
      <trkpt lat="44.3569" lon="4.78779">
        <ele>128</ele>
        <time>2021-09-28T11:17:41+02:00</time>
      </trkpt>
      <trkpt lat="44.35687" lon="4.7875">
        <ele>128.5</ele>
        <time>2021-09-28T11:17:46+02:00</time>
      </trkpt>
      <trkpt lat="44.35685" lon="4.78713">
        <ele>129.2002</ele>
        <time>2021-09-28T11:17:51+02:00</time>
      </trkpt>
      <trkpt lat="44.35682" lon="4.78671">
        <ele>129.7002</ele>
        <time>2021-09-28T11:17:56+02:00</time>
      </trkpt>
      <trkpt lat="44.35681" lon="4.78633">
        <ele>130.2998</ele>
        <time>2021-09-28T11:18:01+02:00</time>
      </trkpt>
      <trkpt lat="44.35679" lon="4.786">
        <ele>129</ele>
        <time>2021-09-28T11:18:06+02:00</time>
      </trkpt>
      <trkpt lat="44.35676" lon="4.78569">
        <ele>127.700195</ele>
        <time>2021-09-28T11:18:11+02:00</time>
      </trkpt>
      <trkpt lat="44.35671" lon="4.78536">
        <ele>126.299805</ele>
        <time>2021-09-28T11:18:16+02:00</time>
      </trkpt>
      <trkpt lat="44.35658" lon="4.78501">
        <ele>124.90039</ele>
        <time>2021-09-28T11:18:21+02:00</time>
      </trkpt>
      <trkpt lat="44.35644" lon="4.78465">
        <ele>124</ele>
        <time>2021-09-28T11:18:26+02:00</time>
      </trkpt>
      <trkpt lat="44.35631" lon="4.78434">
        <ele>120.90039</ele>
        <time>2021-09-28T11:18:31+02:00</time>
      </trkpt>
      <trkpt lat="44.35619" lon="4.78411">
        <ele>119.200195</ele>
        <time>2021-09-28T11:18:36+02:00</time>
      </trkpt>
      <trkpt lat="44.35625" lon="4.78409">
        <ele>118.299805</ele>
        <time>2021-09-28T11:18:41+02:00</time>
      </trkpt>
      <trkpt lat="44.35629" lon="4.78417">
        <ele>118.700195</ele>
        <time>2021-09-28T11:18:46+02:00</time>
      </trkpt>
      <trkpt lat="44.35628" lon="4.78418">
        <ele>118.700195</ele>
        <time>2021-09-28T11:18:51+02:00</time>
      </trkpt>
      <trkpt lat="44.35633" lon="4.78421">
        <ele>119.100586</ele>
        <time>2021-09-28T11:18:56+02:00</time>
      </trkpt>
      <trkpt lat="44.35637" lon="4.78427">
        <ele>119.100586</ele>
        <time>2021-09-28T11:19:01+02:00</time>
      </trkpt>
      <trkpt lat="44.35644" lon="4.78429">
        <ele>118.5</ele>
        <time>2021-09-28T11:19:06+02:00</time>
      </trkpt>
      <trkpt lat="44.35645" lon="4.78425">
        <ele>117.90039</ele>
        <time>2021-09-28T11:19:11+02:00</time>
      </trkpt>
      <trkpt lat="44.35646" lon="4.78423">
        <ele>117.90039</ele>
        <time>2021-09-28T11:19:15+02:00</time>
      </trkpt>
    </trkseg>
  </trk>
</gpx>